[[{"header":{"parameterUnit":"m.s-1","parameterCategory":1,"la1":31.0,"la2":29.5877,"lo1":-88.7671,"lo2":-86.6584,"dx":0.0162,"dy":0.0185,"nx":115,"ny":88,"refTime":"2022-11-28T06:00:00:Z","depth":0,"parameterNumber":2,"parameterNumberName":"U-component_of_WINDS"},"data":[0.0,0.0,0.0,0.0,0.0,0.0,0.0,0.0,0.0,0.0,0.0,0.0,0.0,0.0,0.0,0.0,0.0,0.0,0.0,0.0,0.0,0.0,0.0,0.0,0.0,0.0,0.0,0.0,0.0,0.0,0.0,0.0,0.0,0.0,0.0,0.0,0.0,0.0,0.0,0.0,0.0,0.0,0.0,0.0,0.0,0.0,0.0,0.0,0.0,0.0,0.0,0.0,0.0,0.0,0.0,0.0,0.0,0.0,0.0,0.0,0.0,0.0,0.0,0.0,0.0,0.0,0.0,0.0,0.0,0.0,0.0,0.0,0.0,0.0,0.0,0.0,0.0,0.0,0.0,0.0,0.0,0.0,0.0,0.0,0.0,0.0,0.0,0.0,0.0,0.0,0.0,0.0,0.0,0.0,0.0,0.0,0.0,0.0,0.0,0.0,0.0,0.0,0.0,0.0,0.0,0.0,0.0,0.0,0.0,0.0,0.0,0.0,0.0,0.0,0.0,0.0,0.0,0.0,0.0,0.0,0.0,0.0,0.0,0.0,0.0,0.0,0.0,0.0,0.0,0.0,0.0,0.0,0.0,0.0,0.0,0.0,0.0,0.0,0.0,0.0,0.0,0.0,0.0,0.0,0.0,0.0,0.0,0.0,0.0,0.0,0.0,0.0,0.0,0.0,0.0,0.0,0.0,0.0,0.0,0.0,0.0,0.0,0.0,0.0,0.0,0.0,0.0,0.0,0.0,0.0,0.0,0.0,0.0,0.0,0.0,0.0,0.0,0.0,0.0,0.0,0.0,0.0,0.0,0.0,0.0,0.0,0.0,0.0,0.0,0.0,0.0,0.0,0.0,0.0,0.0,0.0,0.0,0.0,0.0,0.0,0.0,0.0,0.0,0.0,0.0,0.0,0.0,0.0,0.0,0.0,0.0,0.0,0.0,0.0,0.0,0.0,0.0,0.0,0.0,0.0,0.0,0.0,0.0,0.0,0.0,0.0,0.0,0.0,0.0,0.0,0.0,0.0,0.0,0.0,0.0,0.0,0.0,0.0,0.0,0.0,0.0,0.0,0.0,0.0,0.0,0.0,0.0,0.0,0.0,0.0,0.0,0.0,0.0,0.0,0.0,0.0,0.0,0.0,0.0,0.0,0.0,0.0,0.0,0.0,0.0,0.0,0.0,0.0,0.0,0.0,0.0,0.0,0.0,0.0,0.0,0.0,0.0,0.0,0.0,0.0,0.0,0.0,0.0,0.0,0.0,0.0,0.0,0.0,0.0,0.0,0.0,0.0,0.0,0.0,0.0,0.0,0.0,0.0,0.0,0.0,0.0,0.0,0.0,0.0,0.0,0.0,0.0,0.0,0.0,0.0,0.0,0.0,0.0,0.0,0.0,0.0,0.0,0.0,0.0,0.0,0.0,0.0,0.0,0.0,0.0,0.0,0.0,0.0,0.0,0.0,0.0,0.0,0.0,0.0,0.0,0.0,0.0,0.0,0.0,0.0,0.0,0.0,0.0,0.0,0.0,0.0,0.0,0.0,0.0,0.0,0.0,0.0,0.0,0.0,0.0,0.0,0.0,0.0,0.0,0.0,0.0,0.0,0.0,0.0,0.0,0.0,0.0,0.0,0.0,0.0,0.0,0.0,0.0,0.0,0.0,0.0,0.0,0.0,0.0,0.0,0.0,0.0,0.0,0.0,0.0,0.0,0.0,0.0,0.0,0.0,0.0,0.0,0.0,0.0,0.0,0.0,0.0,0.0,0.0,0.0,0.0,0.0,0.0,0.0,0.0,0.0,0.0,0.0,0.0,0.0,0.0,0.0,0.0,0.0,0.0,0.0,0.0,0.0,0.0,0.0,0.0,0.0,0.0,0.0,0.0,0.0,0.0,0.0,0.0,0.0,0.0,0.0,0.0,0.0,0.0,0.0,0.0,0.0,0.0,0.0,0.0,0.0,0.0,0.0,0.0,0.0,0.0,0.0,0.0,0.0,0.0,0.0,0.0,0.0,0.0,0.0,0.0,0.0,0.0,0.0,0.0,0.0,0.0,0.0,0.0,0.0,0.0,0.0,0.0,0.0,0.0,0.0,0.0,0.0,0.0,0.0,0.0,0.0,0.0,0.0,0.0,0.0,0.0,0.0,0.0,0.0,0.0,0.0,0.0,0.0,0.0,0.0,0.0,0.0,0.0,0.0,0.0,0.0,0.0,0.0,0.0,0.0,0.0,0.0,0.0,0.0,0.0,0.0,0.0,0.0,0.0,0.0,0.0,0.0,0.0,0.0,0.0,0.0,0.0,0.0,0.0,0.0,0.0,0.0,0.0,0.0,0.0,0.0,0.0,0.0,0.0,0.0,0.0,0.0,0.0,0.0,0.0,0.0,0.0,0.0,0.0,0.0,0.0,0.0,0.0,0.0,0.0,0.0,0.0,0.0,0.0,0.0,0.0,0.0,0.0,0.0,0.0,0.0,0.0,0.0,0.0,0.0,0.0,0.0,0.0,0.0,0.0,0.0,0.0,0.0,0.0,0.0,0.0,0.0,0.0,0.0,0.0,0.0,0.0,0.0,0.0,0.0,0.0,0.0,0.0,0.0,0.0,0.0,0.0,0.0,0.0,0.0,0.0,0.0,0.0,0.0,0.0,0.0,0.0,0.0,0.0,0.0,0.0,0.0,0.0,0.0,0.0,0.0,0.0,0.0,0.0,0.0,0.0,0.0,0.0,0.0,0.0,0.0,0.0,0.0,0.0,0.0,0.0,0.0,0.0,0.0,0.0,0.0,0.0,0.0,0.0,0.0,0.0,0.0,0.0,0.0,0.0,0.0,0.0,0.0,0.0,0.0,0.0,0.0,0.0,0.0,0.0,0.0,0.0,0.0,0.0,0.0,0.0,0.0,0.0,0.0,0.0,0.0,0.0,0.0,0.0,0.0,0.0,0.0,0.0,0.0,0.0,0.0,0.0,0.0,0.0,0.0,0.0,0.0,0.0,0.0,0.0,0.0,0.0,0.0,0.0,0.0,0.0,0.0,0.0,0.0,0.0,0.0,0.0,0.0,0.0,0.0,0.0,0.0,0.0,0.0,0.0,0.0,0.0,0.0,0.0,0.0,0.0,0.0,0.0,0.0,0.0,0.0,0.0,0.0,0.0,0.0,0.0,0.0,0.0,0.0,0.0,0.0,0.0,0.0,0.0,0.0,0.0,0.0,0.0,0.0,0.0,0.0,0.0,0.0,0.0,0.0,0.0,0.0,0.0,0.0,0.0,0.0,0.0,0.0,0.0,0.0,0.0,0.0,0.0,0.0,0.0,0.0,0.0,0.0,0.0,0.0,0.0,0.0,0.0,0.0,0.0,0.0,0.0,0.0,0.0,0.0,0.0,0.0,0.0,0.0,0.0,0.0,0.0,0.0,0.0,0.0,0.0,0.0,0.0,0.0,0.0,0.0,0.0,0.0,0.0,0.0,0.0,0.0,0.0,0.0,0.0,0.0,0.0,0.0,0.0,0.0,0.0,0.0,0.0,0.0,0.0,0.0,0.0,0.0,0.0,0.0,0.0,0.0,0.0,0.0,0.0,0.0,0.0,0.0,0.0,0.0,0.0,0.0,0.0,0.0,0.0,0.0,0.0,0.0,0.0,0.0,0.0,0.0,0.0,0.0,0.0,0.0,0.0,0.0,0.0,0.0,0.0,0.0,0.0,0.0,0.0,0.0,0.0,0.0,0.0,0.0,0.0,0.0,0.0,0.0,0.0,0.0,0.0,0.0,0.0,0.0,0.0,0.0,0.0,0.0,0.0,0.0,0.0,0.0,0.0,0.0,0.0,0.0,0.0,0.0,0.0,0.0,0.0,0.0,0.0,0.0,0.0,0.0,0.0,0.0,0.0,0.0,0.0,0.0,0.0,0.0,0.0,0.0,0.0,0.0,0.0,0.0,0.0,0.0,0.0,0.0,0.0,0.0,0.0,0.0,0.0,0.0,0.0,0.0,0.0,0.0,0.0,0.0,0.0,0.0,0.0,0.0,0.0,0.0,0.0,0.0,0.0,0.0,0.0,0.0,0.0,0.0,0.0,0.0,0.0,0.0,0.0,0.0,0.0,0.0,0.0,0.0,0.0,0.0,0.0,0.0,0.0,0.0,0.0,0.0,0.0,0.0,0.0,0.0,0.0,0.0,0.0,0.0,0.0,0.0,0.0,0.0,0.0,0.0,0.0,0.0,0.0,0.0,0.0,0.0,0.0,0.0,0.0,0.0,0.0,0.0,-0.8652,0.0,0.0,0.0,-0.7366,0.0,0.0,0.0,0.0,0.0,0.0,0.0,0.0,0.0,0.0,0.0,0.0,0.0,0.0,0.0,0.0,0.0,0.0,0.0,0.0,0.0,0.0,0.0,0.0,0.0,0.0,0.0,0.0,0.0,0.0,0.0,0.0,0.0,0.0,0.0,0.0,0.0,0.0,0.0,0.0,0.0,0.0,0.0,0.0,0.0,0.0,0.0,0.0,0.0,0.0,0.0,0.0,0.0,0.0,0.0,0.0,0.0,0.0,0.0,0.0,0.0,0.0,0.0,0.0,0.0,0.0,0.0,0.0,0.0,0.0,0.0,0.0,0.0,0.0,0.0,0.0,0.0,0.0,0.0,0.0,0.0,0.0,0.0,0.0,0.0,0.0,0.0,0.0,0.0,0.0,0.0,0.0,0.0,0.0,0.0,0.0,0.0,0.0,0.0,0.0,0.0,0.0,0.0,0.0,0.0,0.0,0.0,0.0,0.0,0.0,-0.8322,-0.8073,-0.7309,-0.6894,-0.6962,0.0,0.0,0.0,0.0,0.0,0.0,0.0,0.0,0.0,0.0,0.0,0.0,0.0,0.0,0.0,0.0,0.0,0.0,0.0,0.0,0.0,0.0,0.0,0.0,0.0,0.0,0.0,0.0,0.0,0.0,0.0,0.0,0.0,0.0,0.0,0.0,0.0,0.0,0.0,0.0,0.0,0.0,0.0,0.0,0.0,0.0,0.0,0.0,0.0,0.0,0.0,0.0,0.0,0.0,0.0,0.0,0.0,0.0,0.0,0.0,0.0,0.0,0.0,0.0,0.0,0.0,0.0,0.0,0.0,0.0,0.0,0.0,0.0,0.0,0.0,0.0,0.0,0.0,0.0,0.0,0.0,0.0,0.0,0.0,0.0,0.0,0.0,0.0,0.0,0.0,0.0,0.0,0.0,0.0,0.0,0.0,0.0,0.0,0.0,0.0,0.0,0.0,0.0,0.0,0.0,0.0,0.0,0.0,0.0,0.0,0.0,0.0,-0.7246,-0.6644,-0.659,0.0,0.0,0.0,0.0,0.0,0.0,0.0,0.0,0.0,0.0,0.0,0.0,0.0,0.0,0.0,0.0,0.0,0.0,0.0,0.0,0.0,0.0,0.0,0.0,0.0,0.0,0.0,0.0,0.0,0.0,0.0,0.0,0.0,0.0,0.0,0.0,0.0,0.0,0.0,0.0,0.0,0.0,0.0,0.0,0.0,0.0,0.0,0.0,0.0,0.0,0.0,0.0,0.0,0.0,0.0,0.0,0.0,0.0,0.0,0.0,0.0,0.0,0.0,0.0,0.0,0.0,0.0,0.0,0.0,0.0,0.0,0.0,0.0,0.0,0.0,0.0,0.0,0.0,0.0,0.0,0.0,0.0,0.0,0.0,0.0,0.0,0.0,0.0,0.0,0.0,0.0,0.0,0.0,0.0,0.0,0.0,0.0,0.0,0.0,0.0,0.0,0.0,0.0,0.0,0.0,0.0,0.0,0.0,0.0,0.0,-0.8282,-0.8286,-0.7369,0.0,-0.6575,0.0,0.0,0.0,0.0,0.0,0.0,0.0,0.0,0.0,0.0,0.0,0.0,0.0,0.0,0.0,0.0,0.0,0.0,0.0,0.0,0.0,0.0,0.0,0.0,0.0,0.0,0.0,0.0,0.0,0.0,0.0,0.0,0.0,0.0,0.0,0.0,0.0,0.0,0.0,0.0,0.0,0.0,0.0,0.0,0.0,0.0,0.0,0.0,0.0,0.0,0.0,0.0,0.0,0.0,0.0,0.0,0.0,0.0,0.0,0.0,0.0,0.0,0.0,0.0,0.0,0.0,0.0,0.0,0.0,0.0,0.0,0.0,0.0,0.0,0.0,0.0,0.0,0.0,0.0,0.0,0.0,0.0,0.0,0.0,0.0,0.0,0.0,0.0,0.0,0.0,0.0,0.0,0.0,0.0,0.0,0.0,0.0,0.0,0.0,0.0,0.0,0.0,0.0,0.0,0.0,0.0,0.0,0.0,0.0,0.0,-0.8437,-0.8774,-0.7851,-0.7082,0.0,0.0,0.0,0.0,0.0,0.0,0.0,0.0,0.0,0.0,0.0,0.0,0.0,0.0,0.0,0.0,0.0,0.0,0.0,0.0,0.0,0.0,0.0,0.0,0.0,0.0,0.0,0.0,0.0,0.0,0.0,0.0,0.0,0.0,0.0,0.0,0.0,0.0,0.0,0.0,0.0,0.0,0.0,0.0,0.0,0.0,0.0,0.0,0.0,0.0,0.0,0.0,0.0,0.0,0.0,0.0,0.0,0.0,0.0,0.0,0.0,0.0,0.0,0.0,0.0,0.0,0.0,0.0,0.0,0.0,0.0,0.0,0.0,0.0,0.0,0.0,0.0,0.0,0.0,0.0,0.0,0.0,0.0,0.0,0.0,0.0,0.0,0.0,0.0,0.0,0.0,0.0,0.0,0.0,0.0,0.0,0.0,0.0,0.0,0.0,0.0,0.0,0.0,0.0,0.0,0.0,0.0,0.0,0.0,0.0,-0.8423,-0.846,-0.8585,-0.7981,-0.7314,-0.6692,0.0,0.0,0.0,0.0,0.0,0.0,0.0,0.0,0.0,0.0,0.0,0.0,0.0,0.0,0.0,0.0,0.0,0.0,0.0,0.0,0.0,0.0,0.0,0.0,0.0,0.0,0.0,0.0,0.0,0.0,0.0,0.0,0.0,0.0,0.0,0.0,0.0,0.0,0.0,0.0,0.0,0.0,0.0,0.0,0.0,0.0,0.0,0.0,0.0,0.0,0.0,0.0,0.0,0.0,0.0,0.0,0.0,0.0,0.0,0.0,0.0,0.0,0.0,0.0,0.0,0.0,0.0,0.0,0.0,0.0,0.0,0.0,0.0,0.0,0.0,0.0,0.0,0.0,0.0,0.0,0.0,0.0,0.0,0.0,0.0,0.0,0.0,0.0,0.0,0.0,0.0,0.0,0.0,0.0,0.0,0.0,0.0,0.0,0.0,0.0,0.0,0.0,0.0,0.0,0.0,0.0,0.0,0.0,-0.9037,-0.8694,-0.8168,-0.7564,-0.7439,-0.7308,0.0,0.0,0.0,0.0,0.0,0.0,0.0,0.0,0.0,0.0,0.0,0.0,0.0,0.0,0.0,0.0,0.0,0.0,0.0,0.0,0.0,0.0,0.0,0.0,0.0,0.0,0.0,0.0,0.0,0.0,0.0,0.0,0.0,0.0,0.0,0.0,0.0,0.0,0.0,0.0,0.0,0.0,0.0,0.0,0.0,0.0,0.0,0.0,0.0,0.0,0.0,0.0,0.0,0.0,0.0,0.0,0.0,0.0,0.0,0.0,0.0,0.0,0.0,0.0,0.0,0.0,0.0,0.0,0.0,0.0,0.0,0.0,0.0,0.0,0.0,0.0,0.0,0.0,0.0,0.0,0.0,0.0,0.0,0.0,0.0,0.0,0.0,0.0,0.0,0.0,0.0,0.0,0.0,0.0,0.0,0.0,0.0,0.0,0.0,0.0,0.0,0.0,0.0,0.0,0.0,0.0,0.0,0.0,0.0,-0.9113,-0.9305,-0.9034,-0.8322,-0.8304,-0.7932,0.0,0.0,0.0,0.0,0.0,0.0,0.0,0.0,0.0,0.0,0.0,0.0,0.0,0.0,0.0,0.0,0.0,0.0,0.0,0.0,0.0,0.0,0.0,0.0,0.0,0.0,0.0,0.0,0.0,0.0,0.0,0.0,0.0,0.0,0.0,0.0,0.0,0.0,0.0,0.0,0.0,0.0,0.0,0.0,0.0,0.0,0.0,0.0,0.0,0.0,0.0,0.0,0.0,0.0,0.0,0.0,0.0,0.0,0.0,0.0,0.0,0.0,0.0,0.0,0.0,0.0,0.0,0.0,0.0,0.0,0.0,0.0,0.0,0.0,0.0,0.0,0.0,0.0,0.0,0.0,0.0,0.0,0.0,0.0,0.0,0.0,0.0,0.0,0.0,0.0,0.0,0.0,0.0,0.0,0.0,0.0,0.0,0.0,0.0,0.0,0.0,0.0,0.0,0.0,0.0,0.0,0.0,0.0,0.0,-0.8997,-0.9244,-0.9087,-0.8481,-0.8453,-0.8067,0.0,0.0,0.0,0.0,0.0,0.0,0.0,0.0,0.0,0.0,0.0,0.0,0.0,0.0,0.0,0.0,0.0,0.0,0.0,0.0,0.0,0.0,0.0,0.0,0.0,0.0,0.0,0.0,0.0,0.0,0.0,0.0,0.0,0.0,0.0,0.0,0.0,0.0,0.0,0.0,0.0,0.0,0.0,0.0,0.0,0.0,0.0,0.0,0.0,0.0,0.0,0.0,0.0,0.0,0.0,0.0,0.0,0.0,0.0,0.0,0.0,0.0,0.0,0.0,0.0,0.0,0.0,0.0,0.0,0.0,0.0,0.0,0.0,0.0,0.0,0.0,0.0,0.0,0.0,0.0,0.0,0.0,0.0,0.0,0.0,0.0,0.0,0.0,0.0,0.0,0.0,0.0,0.0,0.0,0.0,0.0,0.0,0.0,0.0,0.0,0.0,0.0,0.0,0.0,0.0,0.0,0.0,0.0,-0.902,-0.8819,-0.8552,-0.8253,-0.7749,-0.7783,-0.7734,0.0,0.0,0.0,0.0,0.0,0.0,0.0,0.0,0.0,0.0,0.0,0.0,0.0,0.0,0.0,0.0,0.0,0.0,0.0,0.0,0.0,0.0,0.0,0.0,0.0,0.0,0.0,0.0,0.0,0.0,0.0,0.0,0.0,0.0,0.0,0.0,0.0,0.0,0.0,0.0,0.0,0.0,0.0,0.0,0.0,0.0,0.0,0.0,0.0,0.0,0.0,0.0,0.0,0.0,0.0,0.0,0.0,0.0,0.0,0.0,0.0,0.0,0.0,0.0,0.0,0.0,0.0,0.0,0.0,0.0,0.0,0.0,0.0,0.0,0.0,0.0,0.0,0.0,0.0,0.0,0.0,0.0,0.0,0.0,0.0,0.0,0.0,0.0,0.0,0.0,0.0,0.0,0.0,0.0,0.0,0.0,0.0,0.0,0.0,0.0,0.0,0.0,0.0,0.0,0.0,0.0,0.0,0.0,0.0,-0.9691,-0.9605,-0.9222,-0.8562,-0.8833,-0.8586,0.0,0.0,0.0,0.0,0.0,0.0,0.0,0.0,0.0,0.0,0.0,0.0,0.0,0.0,0.0,0.0,0.0,0.0,0.0,0.0,0.0,0.0,0.0,0.0,0.0,0.0,0.0,0.0,0.0,0.0,0.0,0.0,0.0,0.0,0.0,0.0,0.0,0.0,0.0,0.0,0.0,0.0,0.0,0.0,0.0,0.0,0.0,0.0,0.0,0.0,0.0,0.0,0.0,0.0,0.0,0.0,0.0,0.0,0.0,0.0,0.0,0.0,0.0,0.0,0.0,0.0,0.0,0.0,0.0,0.0,0.0,0.0,0.0,0.0,0.0,0.0,0.0,0.0,0.0,0.0,0.0,0.0,0.0,0.0,0.0,0.0,0.0,0.0,0.0,0.0,0.0,0.0,0.0,0.0,0.0,0.0,0.0,0.0,0.0,0.0,0.0,0.0,0.0,0.0,0.0,0.0,0.0,0.0,0.0,-1.0858,-1.056,-1.014,-0.9646,-0.993,-0.9419,-0.8027,0.0,0.0,0.0,0.0,0.0,0.0,0.0,0.0,0.0,0.0,0.0,0.0,0.0,0.0,0.0,0.0,0.0,0.0,0.0,0.0,0.0,0.0,0.0,0.0,0.0,0.0,0.0,0.0,0.0,0.0,0.0,0.0,0.0,0.0,0.0,0.0,0.0,0.0,0.0,0.0,0.0,0.0,0.0,0.0,0.0,0.0,0.0,0.0,0.0,0.0,0.0,0.0,0.0,0.0,0.0,0.0,0.0,0.0,0.0,0.0,0.0,0.0,0.0,0.0,0.0,0.0,0.0,0.0,0.0,0.0,0.0,0.0,0.0,0.0,0.0,0.0,0.0,0.0,0.0,0.0,0.0,0.0,0.0,0.0,0.0,0.0,0.0,0.0,0.0,0.0,0.0,0.0,0.0,0.0,0.0,0.0,0.0,0.0,0.0,0.0,0.0,0.0,0.0,0.0,0.0,0.0,0.0,0.0,-1.2301,-1.158,-1.1172,-1.1055,-1.0996,-1.0195,0.0,0.0,0.0,0.0,0.0,0.0,0.0,0.0,0.0,0.0,0.0,0.0,0.0,0.0,0.0,0.0,0.0,0.0,0.0,0.0,0.0,0.0,0.0,0.0,0.0,0.0,0.0,0.0,0.0,0.0,0.0,0.0,0.0,0.0,0.0,0.0,0.0,0.0,0.0,0.0,0.0,0.0,0.0,0.0,0.0,0.0,0.0,0.0,0.0,0.0,0.0,0.0,0.0,0.0,0.0,0.0,0.0,0.0,0.0,0.0,0.0,0.0,0.0,0.0,0.0,0.0,0.0,0.0,0.0,0.0,0.0,0.0,0.0,0.0,0.0,0.0,0.0,0.0,0.0,0.0,0.0,0.0,0.0,0.0,0.0,0.0,0.0,0.0,0.0,0.0,0.0,0.0,0.0,0.0,0.0,0.0,0.0,0.0,0.0,0.0,0.0,0.0,0.0,0.0,0.0,0.0,0.0,0.0,0.0,-1.3568,-1.4336,-1.4121,-1.2871,-1.2184,-1.1209,0.0,0.0,0.0,0.0,0.0,0.0,0.0,0.0,0.0,0.0,0.0,0.0,0.0,0.0,0.0,0.0,0.0,0.0,0.0,0.0,0.0,0.0,0.0,0.0,0.0,0.0,0.0,0.0,0.0,0.0,0.0,0.0,0.0,0.0,0.0,0.0,0.0,0.0,0.0,0.0,0.0,0.0,0.0,0.0,0.0,0.0,0.0,0.0,0.0,0.0,0.0,0.0,0.0,0.0,0.0,0.0,0.0,0.0,0.0,0.0,0.0,0.0,0.0,0.0,0.0,0.0,0.0,0.0,0.0,0.0,0.0,0.0,0.0,0.0,0.0,0.0,0.0,0.0,0.0,0.0,0.0,0.0,0.0,0.0,0.0,0.0,0.0,0.0,0.0,0.0,0.0,0.0,0.0,0.0,0.0,0.0,0.0,0.0,0.0,0.0,0.0,0.0,0.0,0.0,0.0,0.0,0.0,0.0,-1.3646,-1.4387,-1.6387,-1.6855,-1.5673,-1.3919,-1.2344,0.0,0.0,0.0,0.0,0.0,0.0,0.0,0.0,0.0,0.0,0.0,0.0,0.0,0.0,0.0,0.0,0.0,0.0,0.0,0.0,0.0,0.0,0.0,0.0,0.0,0.0,0.0,0.0,0.0,0.0,0.0,0.0,0.0,0.0,0.0,0.0,0.0,0.0,0.0,0.0,0.0,0.0,0.0,0.0,0.0,0.0,0.0,0.0,0.0,0.0,0.0,0.0,0.0,0.0,0.0,0.0,0.0,0.0,0.0,0.0,0.0,0.0,0.0,0.0,0.0,0.0,0.0,0.0,0.0,0.0,0.0,0.0,0.0,0.0,0.0,0.0,0.0,0.0,0.0,0.0,0.0,0.0,0.0,0.0,0.0,0.0,0.0,0.0,0.0,0.0,0.0,0.0,0.0,0.0,0.0,0.0,0.0,0.0,0.0,0.0,0.0,0.0,0.0,0.0,0.0,0.0,0.0,0.0,-1.4863,-1.5107,-1.7866,-1.9102,-1.8598,-1.5692,-1.3361,0.0,0.0,0.0,0.0,0.0,0.0,0.0,0.0,0.0,0.0,0.0,0.0,0.0,0.0,0.0,0.0,0.0,0.0,0.0,0.0,0.0,0.0,0.0,0.0,0.0,0.0,0.0,0.0,0.0,0.0,0.0,0.0,0.0,0.0,0.0,0.0,0.0,0.0,0.0,0.0,0.0,0.0,0.0,0.0,0.0,0.0,0.0,0.0,0.0,0.0,0.0,0.0,0.0,0.0,0.0,0.0,0.0,0.0,0.0,0.0,0.0,0.0,0.0,0.0,0.0,0.0,0.0,0.0,0.0,0.0,0.0,0.0,0.0,0.0,0.0,0.0,0.0,0.0,0.0,0.0,0.0,0.0,0.0,0.0,0.0,0.0,0.0,0.0,0.0,0.0,0.0,0.0,0.0,0.0,0.0,0.0,0.0,0.0,0.0,0.0,0.0,0.0,0.0,0.0,0.0,0.0,0.0,0.0,-1.5449,-1.6816,-1.8437,-1.9238,-1.9141,-1.5811,-1.3738,0.0,0.0,0.0,0.0,0.0,0.0,0.0,0.0,0.0,0.0,0.0,0.0,0.0,0.0,0.0,0.0,0.0,0.0,0.0,0.0,0.0,0.0,0.0,0.0,0.0,0.0,0.0,0.0,0.0,0.0,0.0,0.0,0.0,0.0,0.0,0.0,0.0,0.0,0.0,0.0,0.0,0.0,0.0,0.0,0.0,0.0,0.0,0.0,-0.6578,0.0,0.0,0.0,0.0,0.0,0.0,0.0,0.0,0.0,0.0,0.0,0.0,0.0,0.0,0.0,0.0,0.0,0.0,0.0,0.0,0.0,0.0,0.0,0.0,0.0,0.0,0.0,0.0,0.0,0.0,0.0,0.0,0.0,0.0,0.0,0.0,0.0,0.0,0.0,0.0,0.0,0.0,0.0,0.0,0.0,0.0,0.0,0.0,0.0,0.0,0.0,0.0,0.0,0.0,0.0,0.0,0.0,0.0,0.0,-1.6163,-1.7656,-1.9121,-1.956,-1.8788,-1.6172,-1.4556,0.0,0.0,0.0,0.0,0.0,0.0,0.0,0.0,0.0,0.0,0.0,0.0,0.0,0.0,0.0,0.0,0.0,0.0,0.0,0.0,0.0,0.0,0.0,0.0,0.0,0.0,0.0,0.0,0.0,0.0,0.0,0.0,0.0,0.0,0.0,0.0,0.0,0.0,0.0,0.0,0.0,0.0,0.0,0.0,0.0,0.0,0.0,0.0,0.0,0.0,0.0,0.0,0.0,0.0,0.0,0.0,0.0,0.0,0.0,0.0,0.0,0.0,0.0,0.0,0.0,0.0,0.0,0.0,0.0,0.0,0.0,0.0,0.0,0.0,0.0,0.0,0.0,0.0,0.0,0.0,0.0,0.0,0.0,0.0,0.0,0.0,0.0,0.0,0.0,0.0,0.0,0.0,0.0,0.0,0.0,0.0,0.0,0.0,0.0,0.0,0.0,0.0,0.0,0.0,0.0,0.0,0.0,-1.4898,-1.653,-1.7872,-1.9354,-1.9461,-1.8163,-1.6317,-1.5063,-1.4469,0.0,0.0,0.0,0.0,0.0,0.0,0.0,0.0,0.0,0.0,0.0,0.0,0.0,0.0,0.0,0.0,0.0,0.0,0.0,0.0,0.0,0.0,0.0,0.0,0.0,0.0,0.0,0.0,0.0,0.0,0.0,0.0,0.0,0.0,0.0,0.0,0.0,0.0,-0.4368,-0.4955,0.0,0.0,0.0,0.0,0.0,0.0,0.0,0.0,-0.6286,0.0,0.0,0.0,0.0,0.0,0.0,0.0,0.0,0.0,0.0,0.0,0.0,0.0,0.0,0.0,0.0,0.0,0.0,0.0,0.0,0.0,0.0,0.0,0.0,0.0,0.0,0.0,0.0,0.0,0.0,0.0,0.0,0.0,0.0,0.0,0.0,0.0,0.0,0.0,0.0,0.0,0.0,0.0,0.0,0.0,0.0,0.0,0.0,0.0,0.0,0.0,0.0,0.0,0.0,0.0,0.0,-1.3636,-1.4393,-1.5613,-1.7355,-1.77,-1.7721,-1.7403,-1.5338,-1.3918,-1.3215,0.0,0.0,0.0,0.0,0.0,0.0,0.0,0.0,0.0,0.0,0.0,0.0,0.0,0.0,0.0,0.0,0.0,0.0,0.0,0.0,0.0,0.0,0.0,0.0,0.0,0.0,0.0,0.0,0.0,0.0,0.0,0.0,0.0,0.0,0.0,0.0,0.0,0.0,0.0,-0.5695,-0.5882,0.0,0.0,0.0,0.0,0.0,0.0,0.0,0.0,-0.6707,0.0,0.0,0.0,0.0,0.0,0.0,0.0,0.0,0.0,0.0,0.0,0.0,0.0,0.0,0.0,0.0,0.0,0.0,0.0,0.0,0.0,0.0,0.0,0.0,0.0,0.0,0.0,0.0,0.0,0.0,0.0,0.0,0.0,0.0,0.0,0.0,0.0,0.0,0.0,0.0,0.0,0.0,0.0,0.0,0.0,0.0,0.0,0.0,0.0,0.0,0.0,0.0,0.0,0.0,0.0,-1.3742,-1.4558,-1.5716,-1.7227,-1.7293,-1.7009,-1.6462,-1.4973,-1.3534,0.0,0.0,0.0,0.0,0.0,0.0,0.0,0.0,0.0,0.0,0.0,0.0,0.0,0.0,0.0,0.0,0.0,0.0,0.0,0.0,0.0,0.0,0.0,0.0,0.0,0.0,0.0,0.0,0.0,0.0,0.0,0.0,0.0,0.0,0.0,0.0,0.0,0.0,0.0,0.0,-0.6546,-0.6774,-0.8415,0.0,0.0,0.0,0.0,0.0,0.0,-0.7802,-0.7209,0.0,0.0,0.0,0.0,0.0,0.0,0.0,0.0,0.0,0.0,0.0,0.0,0.0,0.0,0.0,0.0,0.0,0.0,0.0,0.0,0.0,0.0,0.0,0.0,0.0,0.0,0.0,0.0,0.0,0.0,0.0,0.0,0.0,0.0,0.0,0.0,0.0,0.0,0.0,0.0,0.0,0.0,0.0,0.0,0.0,0.0,0.0,0.0,0.0,0.0,0.0,0.0,0.0,0.0,0.0,-1.3947,-1.4912,-1.5885,-1.6903,-1.678,-1.6232,-1.5391,-1.4368,-1.3009,0.0,0.0,0.0,0.0,0.0,0.0,0.0,0.0,0.0,0.0,0.0,0.0,0.0,0.0,0.0,0.0,0.0,0.0,0.0,0.0,0.0,0.0,0.0,0.0,0.0,0.0,0.0,0.0,0.0,0.0,0.0,0.0,0.0,0.0,0.0,0.0,0.0,0.0,0.0,0.0,0.0,-0.7872,-0.9526,-0.9099,0.0,0.0,0.0,0.0,-0.8871,-0.8536,0.0,0.0,0.0,0.0,0.0,0.0,0.0,0.0,0.0,0.0,0.0,0.0,0.0,0.0,0.0,0.0,0.0,0.0,0.0,0.0,0.0,0.0,0.0,0.0,0.0,0.0,0.0,0.0,0.0,0.0,0.0,0.0,0.0,0.0,0.0,0.0,0.0,0.0,0.0,0.0,0.0,0.0,0.0,0.0,0.0,0.0,0.0,0.0,0.0,0.0,0.0,0.0,0.0,0.0,0.0,0.0,-1.4409,-1.5045,-1.5541,-1.5842,-1.4936,-1.4405,-1.4265,-1.2638,-1.1553,0.0,0.0,0.0,0.0,0.0,0.0,0.0,0.0,0.0,0.0,0.0,0.0,0.0,0.0,0.0,0.0,0.0,0.0,0.0,0.0,0.0,0.0,0.0,0.0,0.0,0.0,0.0,0.0,0.0,0.0,0.0,0.0,0.0,0.0,0.0,0.0,0.0,0.0,0.0,0.0,0.0,-0.8697,-0.99,-0.9511,-0.9124,0.0,0.0,-1.0332,-1.0345,-1.0675,0.0,0.0,0.0,0.0,0.0,0.0,0.0,0.0,0.0,0.0,0.0,0.0,0.0,0.0,0.0,0.0,0.0,0.0,0.0,0.0,0.0,0.0,0.0,0.0,0.0,0.0,0.0,0.0,0.0,0.0,0.0,0.0,0.0,0.0,0.0,0.0,0.0,0.0,0.0,0.0,0.0,0.0,0.0,0.0,0.0,0.0,0.0,0.0,0.0,0.0,0.0,0.0,0.0,0.0,0.0,-1.3038,-1.3523,-1.4275,-1.4727,-1.4754,-1.4334,-1.4082,-1.4082,-1.2358,-1.1289,0.0,0.0,0.0,0.0,0.0,0.0,0.0,0.0,0.0,0.0,0.0,0.0,0.0,0.0,0.0,0.0,0.0,0.0,0.0,0.0,0.0,0.0,0.0,0.0,0.0,0.0,0.0,0.0,0.0,0.0,0.0,0.0,0.0,0.0,0.0,0.0,0.0,0.0,0.0,0.0,0.0,0.0,-1.0261,-1.0287,0.0,0.0,0.0,-1.0425,-0.9886,0.0,0.0,0.0,0.0,0.0,0.0,0.0,0.0,0.0,0.0,0.0,0.0,0.0,0.0,0.0,0.0,0.0,0.0,0.0,0.0,0.0,0.0,0.0,0.0,0.0,0.0,0.0,0.0,0.0,0.0,0.0,0.0,0.0,0.0,0.0,0.0,0.0,0.0,0.0,0.0,0.0,0.0,0.0,0.0,0.0,0.0,0.0,0.0,0.0,0.0,0.0,0.0,0.0,0.0,0.0,0.0,0.0,-1.3365,-1.4214,-1.4613,-1.4599,-1.444,-1.4282,-1.4175,-1.2692,0.0,0.0,0.0,0.0,0.0,0.0,0.0,0.0,0.0,0.0,0.0,0.0,0.0,0.0,0.0,0.0,0.0,0.0,0.0,0.0,0.0,0.0,0.0,0.0,0.0,0.0,0.0,-0.3932,0.0,0.0,0.0,0.0,0.0,0.0,0.0,0.0,0.0,0.0,0.0,0.0,0.0,0.0,-1.0171,-1.0546,-1.0875,-1.1129,0.0,0.0,-1.0519,-0.998,-1.0976,-1.1196,0.0,0.0,0.0,0.0,0.0,0.0,0.0,0.0,0.0,0.0,0.0,0.0,0.0,0.0,0.0,0.0,0.0,0.0,0.0,0.0,0.0,0.0,0.0,0.0,0.0,0.0,0.0,0.0,0.0,0.0,0.0,0.0,0.0,0.0,0.0,0.0,0.0,0.0,0.0,0.0,0.0,0.0,0.0,0.0,0.0,0.0,0.0,0.0,0.0,0.0,0.0,0.0,0.0,0.0,-1.4101,-1.495,-1.5607,-1.5946,-1.5946,-1.5309,-1.4821,-1.4496,-1.3574,-1.2545,0.0,0.0,0.0,0.0,0.0,0.0,0.0,0.0,0.0,0.0,0.0,0.0,0.0,0.0,0.0,0.0,0.0,0.0,0.0,0.0,0.0,0.0,0.0,0.0,0.0,0.0,0.0,0.0,0.0,0.0,0.0,0.0,0.0,0.0,0.0,0.0,0.0,0.0,0.0,0.0,0.0,-1.0854,-1.0626,-1.1035,-1.1503,0.0,-1.1363,-1.1129,-1.1645,-1.2465,-1.2478,-1.0734,0.0,0.0,0.0,0.0,0.0,0.0,0.0,0.0,0.0,0.0,0.0,0.0,0.0,0.0,0.0,0.0,0.0,0.0,0.0,0.0,0.0,0.0,0.0,0.0,0.0,0.0,0.0,0.0,0.0,0.0,0.0,0.0,0.0,0.0,0.0,0.0,0.0,0.0,0.0,0.0,0.0,0.0,0.0,0.0,0.0,0.0,0.0,0.0,0.0,0.0,0.0,0.0,0.0,-1.3381,-1.375,-1.4663,-1.5186,-1.5381,-1.5164,-1.491,-1.479,-1.3935,-1.2919,0.0,0.0,0.0,0.0,0.0,0.0,0.0,0.0,0.0,0.0,0.0,0.0,0.0,0.0,0.0,0.0,0.0,0.0,0.0,0.0,0.0,0.0,0.0,0.0,0.0,0.0,0.0,0.0,-0.6907,-0.7089,-0.6352,0.0,0.0,0.0,0.0,0.0,0.0,0.0,0.0,0.0,0.0,-1.0975,-1.1543,-1.1824,0.0,0.0,-1.1944,-1.1744,-1.161,-1.2184,-1.2104,-1.0541,-1.0287,0.0,0.0,0.0,0.0,0.0,0.0,0.0,0.0,0.0,0.0,0.0,0.0,0.0,0.0,0.0,0.0,0.0,0.0,0.0,0.0,0.0,0.0,0.0,0.0,0.0,0.0,0.0,0.0,0.0,0.0,0.0,0.0,0.0,0.0,0.0,0.0,0.0,0.0,0.0,0.0,0.0,0.0,0.0,0.0,0.0,0.0,0.0,0.0,0.0,0.0,0.0,0.0,-1.2725,-1.2889,-1.4118,-1.4923,-1.5217,-1.5217,-1.5231,-1.5249,-1.4536,-1.3614,0.0,0.0,0.0,0.0,0.0,0.0,0.0,0.0,0.0,0.0,0.0,0.0,0.0,0.0,0.0,0.0,0.0,0.0,0.0,0.0,0.0,0.0,0.0,0.0,0.0,0.0,0.0,0.0,-0.7655,-0.7839,-0.7068,0.0,0.0,0.0,0.0,0.0,0.0,0.0,0.0,0.0,0.0,-1.1417,-1.185,-1.2131,-1.2278,-1.2184,-1.2091,-1.1917,-1.1575,-1.1904,-1.1797,-1.0656,0.0,0.0,0.0,0.0,0.0,0.0,0.0,0.0,0.0,0.0,0.0,0.0,0.0,0.0,0.0,0.0,0.0,0.0,0.0,0.0,0.0,0.0,0.0,0.0,0.0,0.0,0.0,-0.681,0.0,0.0,-0.6197,0.0,0.0,0.0,0.0,0.0,0.0,0.0,0.0,0.0,0.0,0.0,0.0,0.0,0.0,0.0,0.0,0.0,0.0,0.0,0.0,0.0,0.0,-1.2452,-1.2883,-1.4528,-1.5511,-1.5758,-1.5771,-1.5818,-1.5805,-1.5511,-1.4803,-1.3573,0.0,0.0,0.0,0.0,0.0,0.0,0.0,0.0,0.0,0.0,0.0,0.0,0.0,0.0,0.0,0.0,0.0,0.0,0.0,0.0,0.0,0.0,0.0,0.0,0.0,0.0,-0.5139,-0.648,-0.7625,0.0,0.0,0.0,0.0,0.0,0.0,0.0,0.0,0.0,-0.9297,-1.127,-1.2301,-1.1243,-1.1757,-1.2211,-1.198,-1.1677,-1.1535,-1.185,-1.1913,-1.1806,0.0,0.0,0.0,0.0,0.0,0.0,0.0,0.0,0.0,0.0,0.0,0.0,0.0,0.0,0.0,0.0,0.0,0.0,0.0,0.0,0.0,0.0,0.0,0.0,0.0,0.0,0.0,-0.9052,-0.8868,0.0,0.0,0.0,0.0,0.0,0.0,0.0,0.0,0.0,0.0,0.0,-1.1703,-1.1683,0.0,0.0,0.0,0.0,0.0,0.0,0.0,0.0,0.0,0.0,0.0,0.0,-1.2806,-1.3196,-1.4771,-1.5925,-1.6393,-1.6406,-1.6406,-1.6406,-1.6126,-1.5337,-1.3975,0.0,0.0,0.0,0.0,0.0,0.0,0.0,0.0,0.0,0.0,0.0,0.0,0.0,0.0,0.0,0.0,0.0,0.0,0.0,0.0,0.0,0.0,0.0,0.0,0.0,-0.7196,0.0,0.0,0.0,0.0,0.0,0.0,0.0,0.0,0.0,0.0,-0.9472,-1.0221,-1.0902,-1.1203,-1.139,-1.1578,-1.1984,-1.2412,0.0,0.0,0.0,0.0,0.0,0.0,0.0,0.0,0.0,0.0,0.0,0.0,0.0,0.0,-1.2445,-0.9267,-0.9285,-0.9838,-1.0132,0.0,0.0,0.0,0.0,0.0,0.0,0.0,0.0,0.0,0.0,0.0,0.0,0.0,0.0,-1.0248,-0.9911,-0.9763,0.0,0.0,0.0,0.0,0.0,0.0,0.0,0.0,-1.1857,-1.2398,-1.2919,-1.2919,-1.2919,-1.2906,-1.265,-1.1669,0.0,0.0,0.0,0.0,0.0,0.0,0.0,0.0,-1.312,-1.34,-1.519,-1.6366,-1.6834,-1.6754,-1.6754,-1.6847,-1.658,-1.5925,-1.4928,-1.3707,-1.2545,0.0,0.0,0.0,0.0,0.0,0.0,0.0,0.0,0.0,0.0,0.0,0.0,0.0,0.0,0.0,0.0,0.0,0.0,0.0,0.0,0.0,0.0,0.0,-0.8444,0.0,0.0,0.0,0.0,0.0,0.0,0.0,0.0,0.0,-0.9713,-1.0301,-1.0969,-1.1623,-1.1663,-1.1698,-1.1703,0.0,0.0,0.0,0.0,0.0,0.0,0.0,-1.2763,-1.1695,-1.2468,-1.3126,-1.2755,-1.3343,-1.3868,-1.3834,0.0,0.0,-1.1736,-1.1709,-1.2232,-1.2573,-1.2714,-1.3015,-1.3754,-1.4536,-1.5161,0.0,0.0,0.0,0.0,-1.1894,0.0,0.0,0.0,-1.1672,-1.0915,0.0,-1.1035,0.0,0.0,0.0,0.0,-1.0314,-1.1953,0.0,0.0,-1.4656,-1.5217,-1.4215,-1.4188,-1.4175,-1.4108,-1.336,-1.2958,-1.2943,-1.321,0.0,0.0,0.0,0.0,0.0,0.0,-1.3387,-1.376,-1.5725,-1.6874,-1.7206,-1.6927,-1.6901,-1.7192,-1.6887,-1.6593,-1.6246,-1.5164,-1.4252,-1.3626,-1.1455,0.0,0.0,0.0,0.0,0.0,0.0,0.0,0.0,0.0,0.0,0.0,0.0,0.0,0.0,0.0,0.0,0.0,0.0,0.0,0.0,-0.8898,0.0,0.0,0.0,0.0,0.0,0.0,0.0,0.0,0.0,-1.0452,-0.9913,-1.1028,-1.1757,-1.149,0.0,0.0,0.0,0.0,-1.3187,-1.2144,-1.2234,-1.2442,-1.22,-1.2702,-1.3229,-1.3384,0.0,0.0,-1.3926,-1.3217,-1.2857,-1.2681,-1.438,-1.5381,-1.5836,-1.6169,-1.6523,-1.6555,-1.6555,-1.6728,-1.676,-1.6818,-1.6947,-1.3634,0.0,0.0,0.0,0.0,-1.2744,-1.3082,-1.4135,-1.3586,-1.3133,-1.2852,-1.3173,0.0,0.0,0.0,0.0,0.0,0.0,-1.348,-1.4215,-1.4955,-1.5471,-1.5952,-1.5952,-1.5952,-1.5939,-1.5698,-1.5578,-1.5578,-1.567,-1.4445,-1.1985,0.0,0.0,0.0,0.0,-1.4175,-1.5498,-1.6714,-1.7475,-1.7782,-1.7916,-1.7809,-1.7514,-1.7434,-1.7101,-1.6593,-1.6059,-1.5404,-1.4603,-1.3333,0.0,0.0,0.0,0.0,0.0,0.0,0.0,0.0,0.0,0.0,0.0,0.0,0.0,0.0,0.0,0.0,0.0,0.0,0.0,-0.8884,-0.9346,-0.9461,0.0,0.0,0.0,0.0,0.0,0.0,0.0,0.0,0.0,-1.161,-1.1717,-1.1873,0.0,0.0,-1.1868,-1.1442,-1.2518,-1.336,-1.344,-1.4709,0.0,-1.6153,-1.7327,-1.7934,-1.7188,-1.7746,-1.8376,-1.8554,-1.8877,-1.9159,-1.9061,-1.956,-1.9962,-1.9983,-1.8576,-1.7532,-1.7439,-1.7984,-1.8452,-1.8527,-1.9221,-1.9865,-1.5681,-1.5091,-1.4551,-1.4462,-1.47,-1.4186,-1.4643,-1.5729,-1.5305,-1.487,-1.4512,-1.4923,-1.4215,-1.2665,-1.2786,0.0,0.0,0.0,-1.4816,-1.5879,-1.6,-1.6313,-1.6874,-1.6994,-1.6994,-1.6887,-1.7128,-1.7183,-1.717,-1.6874,-1.5792,-1.403,0.0,-1.2893,-1.3373,-1.4349,-1.5378,-1.6433,-1.7435,-1.7983,-1.7995,-1.8343,-1.8317,-1.7956,-1.7943,-1.7662,-1.7074,-1.6887,-1.6429,-1.5558,-1.4536,-1.3373,0.0,0.0,0.0,0.0,0.0,0.0,0.0,0.0,0.0,0.0,0.0,-0.6984,-0.6073,0.0,0.0,0.0,-0.9179,-0.9721,-1.0563,-1.0367,0.0,0.0,0.0,0.0,0.0,0.0,0.0,-1.0715,-1.1984,-1.2866,-1.2692,-1.2757,-1.2784,-1.2746,-1.2799,-1.2746,-1.2518,0.0,-1.4295,-1.4416,-1.5456,-1.6343,-1.6735,-1.7792,-1.8588,-1.8669,-1.9553,-2.0374,-2.0632,-2.0998,-2.12,-2.1225,-2.1416,-2.1665,-2.1665,-2.0642,-1.9655,-1.9201,-1.9424,-1.9726,-1.9766,-2.0387,-2.1016,-1.7435,-1.7085,-1.487,-1.4549,-1.5458,-1.529,-1.5785,-1.6727,-1.6754,-1.6166,-1.5316,-1.6299,-1.5578,-1.3587,-1.3826,0.0,-1.5249,-1.5752,-1.642,-1.7246,-1.7462,-1.7448,-1.7246,-1.7501,-1.7435,-1.7246,-1.7769,-1.7995,-1.7942,-1.7235,-1.6954,-1.7206,-1.6393,-1.5685,-1.5124,-1.6099,-1.6687,-1.678,-1.7876,-1.837,-1.8169,-1.8437,-1.8557,-1.8557,-1.8531,-1.825,-1.7689,-1.7609,-1.7221,-1.6433,-1.5311,-1.4536,-1.4108,0.0,0.0,0.0,0.0,0.0,0.0,0.0,0.0,0.0,0.0,0.0,0.0,0.0,0.0,-1.0797,-1.1637,0.0,-1.2811,-1.1891,0.0,0.0,0.0,-1.1516,-1.2291,-1.2692,-1.2931,-1.2864,0.0,0.0,-1.3387,-1.3881,-1.4242,-1.4295,-1.4683,-1.4807,-1.4271,-1.5219,-1.5846,-1.5422,-1.559,-1.5767,-1.6493,-1.6961,-1.798,-1.9381,-2.0281,-2.1237,-2.123,-2.0879,-2.0492,-2.061,-2.0993,-2.1506,-2.1462,-2.2227,-2.2691,-2.1421,-2.0994,-2.082,-2.0859,-2.0937,-2.1094,-1.7675,-1.7769,-1.6981,-1.6553,-1.6406,-1.6616,-1.6831,-1.7112,-1.7275,-1.7208,-1.6981,-1.73,-1.7061,-1.6567,-1.6847,-1.6967,-1.6981,-1.7303,-1.7502,-1.7488,-1.7555,-1.7542,-1.7475,-1.7555,-1.7542,-1.7568,-1.7862,-1.7995,-1.7995,-1.8063,-1.7862,-1.7502,-1.7502,-1.6823,-1.5685,-1.5851,-1.6473,-1.7368,-1.7862,-1.8651,-1.9666,-1.9359,-1.9216,-1.9216,-1.8945,-1.8651,-1.8277,-1.7822,-1.7595,-1.7543,-1.67,-1.5752,-1.4834,-1.3307,0.0,0.0,0.0,0.0,0.0,0.0,0.0,0.0,0.0,-0.8632,-0.7154,0.0,-0.9804,0.0,-1.2347,-1.3761,-1.3454,-1.3574,0.0,0.0,-1.2906,-1.2974,-1.2999,-1.3896,-1.4218,-1.3467,-1.4282,-1.4883,-1.4883,-1.519,-1.5545,-1.6005,-1.5477,-1.4955,-1.4847,-1.6512,-1.7666,-1.7734,-1.9718,-2.1613,-2.1482,-2.2593,-2.3232,-2.3555,-2.3841,-2.3966,-2.3617,-2.3221,-2.2938,-2.2919,-2.2732,-2.2706,-2.2662,-2.2674,-2.2574,-2.2243,-2.2363,-2.2519,-2.2477,-2.2457,-2.2539,-1.809,-1.8237,-1.8063,-1.7796,-1.7488,-1.7395,-1.7393,-1.7407,-1.7515,-1.7582,-1.7582,-1.7582,-1.7582,-1.7661,-1.7889,-1.7943,-1.7822,-1.8182,-1.8288,-1.8196,-1.8317,-1.8303,-1.8183,-1.8317,-1.8303,-1.8196,-1.849,-1.8637,-1.8637,-1.8677,-1.8584,-1.8384,-1.841,-1.7836,-1.681,-1.6687,-1.6874,-1.7382,-1.7943,-1.8878,-2.016,-1.992,-1.9573,-1.9185,-1.8891,-1.841,-1.7716,-1.7248,-1.6954,-1.686,-1.6393,-1.5765,-1.5035,-1.3762,-1.261,0.0,0.0,0.0,0.0,0.0,0.0,0.0,0.0,0.0,0.0,0.0,-1.1163,-1.1092,-1.3187,-1.4239,-1.3653,-1.3893,-1.4068,-1.399,-1.4215,-1.4466,-1.4736,-1.5504,-1.5745,-1.5084,-1.5698,-1.6126,-1.6005,-1.6753,-1.7492,-1.8023,-1.8203,-1.7941,-1.718,-1.8228,-1.938,-2.0059,-2.1912,-2.3339,-2.3339,-2.4477,-2.5277,-2.5168,-2.5574,-2.584,-2.5605,-2.5234,-2.4941,-2.4902,-2.4434,-2.4004,-2.3984,-2.3652,-2.3359,-2.3398,-2.351,-2.3374,-2.2754,-2.2578,-2.2574,-1.8544,-1.8544,-1.8504,-1.849,-1.845,-1.7929,-1.7716,-1.7756,-1.7796,-1.7809,-1.7862,-1.7809,-1.7809,-1.7822,-1.809,-1.8142,-1.8142,-1.8691,-1.8905,-1.8878,-1.9132,-1.9118,-1.8878,-1.9132,-1.9118,-1.8891,-1.9172,-1.9363,-1.9363,-1.9078,-1.9078,-1.9239,-1.8998,-1.8571,-1.7942,-1.7756,-1.7515,-1.7326,-1.8156,-1.9105,-2.0147,-1.9967,-1.9586,-1.8851,-1.8531,-1.7889,-1.6874,-1.65,-1.6086,-1.5591,-1.5498,-1.5364,-1.5209,-1.3856,-1.3092,0.0,-1.1503,0.0,0.0,0.0,0.0,0.0,0.0,0.0,0.0,-1.2703,-1.2958,-1.3105,-1.4028,-1.4439,-1.4079,-1.4079,-1.4519,-1.5591,-1.5738,-1.6032,-1.6727,-1.7021,-1.7099,-1.6794,-1.7072,-1.7166,-1.6965,-1.8325,-1.955,-1.9858,-2.1095,-2.1464,-2.0397,-2.0592,-2.1406,-2.253,-2.3112,-2.3826,-2.3843,-2.4611,-2.5356,-2.5426,-2.6161,-2.7012,-2.6914,-2.6582,-2.6328,-2.6269,-2.5625,-2.5117,-2.5078,-2.4727,-2.4453,-2.4336,-2.4336,-2.3926,-2.2773,-2.2441,-2.2324,-1.8838,-1.8824,-1.8584,-1.849,-1.8477,-1.837,-1.845,-1.8691,-1.8931,-1.9082,-1.9082,-1.9025,-1.9038,-1.9095,-1.9092,-1.8985,-1.8715,-1.8808,-1.8798,-1.8584,-1.8624,-1.8637,-1.8584,-1.8624,-1.8624,-1.8597,-1.8865,-1.8998,-1.9011,-1.9199,-1.9065,-1.8664,-1.8597,-1.8277,-1.7716,0.0,0.0,0.0,-1.8758,-1.9426,-1.9826,-1.8931,-1.837,-1.8155,-1.7916,0.0,-1.7408,-1.6914,-1.658,-1.6446,-1.6005,0.0,0.0,0.0,0.0,0.0,0.0,0.0,0.0,0.0,0.0,0.0,-1.3054,-1.2946,-1.273,-1.316,-1.3868,-1.479,-1.511,-1.5578,-1.6406,-1.67,-1.7021,-1.7448,-1.7528,-1.7528,-1.7448,-1.7326,-1.7179,-1.7125,-1.738,-1.7582,-1.7862,-1.9299,-2.0437,-2.0765,-2.1857,-2.3058,-2.3825,-2.3913,-2.4175,-2.4557,-2.5411,-2.6121,-2.6205,-2.6397,-2.6557,-2.6686,-2.6737,-2.7031,-2.7031,-2.6719,-2.6426,-2.6426,-2.5957,-2.5508,-2.5195,-2.5047,-2.4844,-2.4512,-2.4434,-2.4336,-2.4004,-2.3926,-2.3965,-1.9145,-1.9132,-1.8985,-1.8918,0.0,-1.8918,-1.9011,-1.9132,-1.8998,-1.8931,-1.8931,-1.8931,-1.8988,-1.8945,-1.9078,-1.9065,-1.8931,-1.9078,-1.9065,-1.8931,-1.8931,-1.8918,-1.8918,-1.8918,-1.8988,-1.8931,-1.9078,-1.9145,-1.9158,-1.935,-1.9269,-1.8988,-1.8931,-1.8838,-1.8704,-1.9118,-1.9199,-1.8918,-1.9359,-1.9867,-2.0388,-1.9853,-1.9332,-1.8931,-1.8624,0.0,0.0,0.0,0.0,0.0,0.0,0.0,0.0,-1.6005,0.0,-1.5591,-1.4923,-1.4629,-1.4897,-1.4803,-1.4977,-1.5538,-1.5691,-1.5331,-1.4362,-1.495,-1.5738,-1.6593,-1.665,-1.7007,-1.7729,-1.7943,-1.809,-1.8223,-1.8263,-1.8196,-1.805,-1.7903,-1.7822,-1.7929,-1.8598,-1.9181,-1.9351,-2.1393,-2.2815,-2.3178,-2.435,-2.5569,-2.6315,-2.5869,-2.5532,-2.6439,-2.7146,-2.7656,-2.7656,-2.7637,-2.7637,-2.7656,-2.7637,-2.7637,-2.7637,-2.748,-2.7324,-2.7285,-2.6816,-2.6328,-2.6328,-2.5859,-2.5391,-2.5371,-2.5215,-2.5128,-2.5273,-2.4883,-2.4414,-1.943,-1.943,-1.943,-1.943,-1.943,-1.943,-1.943,-1.939,-1.8851,0.0,0.0,-1.8651,-1.8651,-1.8664,-1.8905,-1.8941,-1.9025,-1.9252,-1.943,-1.943,-1.943,-1.943,-1.943,-1.943,-1.943,-1.943,-1.943,-1.943,-1.943,-1.943,-1.943,-1.943,-1.943,-1.9533,-1.9893,-2.0401,-2.0468,-2.0054,-1.988,-2.0147,-2.0842,-2.0735,-2.0307,-1.9586,-1.9345,-1.8865,-1.8102,-1.7822,-1.7662,-1.7649,-1.7382,-1.7246,-1.7101,-1.682,-1.6607,-1.646,-1.6179,-1.6313,-1.6967,-1.6807,-1.6981,-1.7689,-1.7982,-1.7609,-1.6393,-1.6967,-1.7635,-1.8063,-1.8116,-1.8209,-1.8611,-1.8637,-1.8691,-1.8784,-1.8758,-1.8731,-1.8718,-1.8611,-1.8544,-1.8668,-1.9553,-2.0376,-2.0321,-2.2807,-2.4915,-2.5361,-2.6449,-2.7943,-2.8038,-2.7009,-2.6648,-2.7859,-2.8111,-2.8262,-2.8281,-2.8242,-2.8301,-2.8223,-2.8242,-2.8301,-2.8301,-2.8301,-2.8301,-2.8184,-2.7676,-2.7383,-2.7422,-2.666,-2.6094,-2.6328,-2.6113,-2.5927,-2.6289,-2.5664,-2.4961,-1.943,-1.943,-1.943,-1.943,-1.943,-1.943,-1.943,-1.9417,-1.9336,-1.9239,-1.9239,-1.9296,-1.9296,-1.931,-1.9292,-1.9363,-1.9363,-1.9345,-1.943,-1.943,-1.943,-1.943,-1.943,-1.943,-1.943,-1.943,-1.943,-1.943,-1.943,-1.943,-1.943,-1.943,-1.943,-1.9639,-2.016,-2.0508,-2.0762,-2.0909,-2.0174,-1.9853,-1.9973,-1.9252,-1.8811,-1.8691,-1.8677,-1.8571,-1.8437,-1.8156,-1.7929,-1.7916,-1.7689,-1.7849,-1.8544,-1.833,-1.8384,-1.8811,-1.8584,-1.837,-1.825,-1.8196,-1.8237,-1.8357,-1.8637,-1.8597,-1.817,-1.8237,-1.8343,-1.8424,-1.8477,-1.8651,-1.9216,-1.9239,-1.9426,-1.9853,-1.9746,-1.9613,-1.9573,-1.9185,-1.8891,-1.8878,-1.8964,-1.9302,-1.9808,-2.2189,-2.423,-2.4552,-2.6623,-2.8203,-2.8242,-2.8135,-2.8009,-2.8228,-2.8301,-2.8301,-2.8301,-2.8301,-2.8301,-2.8301,-2.8301,-2.8301,-2.8301,-2.8301,-2.8301,-2.8301,-2.8066,-2.7793,-2.7324,-2.6992,-2.666,-2.6484,-2.6328,-2.6406,-2.6797,-2.6641,-2.6445,-1.943,-1.943,-1.943,-1.943,-1.943,-1.943,-1.943,-1.943,-1.943,-1.943,-1.943,-1.943,-1.943,-1.943,-1.943,-1.943,-1.943,-1.943,-1.943,-1.943,-1.943,-1.943,-1.943,-1.943,-1.943,-1.943,-1.943,-1.9497,-1.9573,-1.9497,-1.9533,-1.9826,-1.9987,-2.0214,-2.0468,-2.0762,-2.0975,-2.1096,-2.0708,-2.0508,-2.0508,-2.012,-1.9907,-1.9907,-1.9907,-1.9907,-1.9907,-1.9786,-1.9706,-1.9706,-1.9426,-1.9452,-1.9826,-1.9599,-1.9546,-1.9813,-1.9706,-1.9573,-1.9439,-1.9439,-1.9439,-1.9439,-1.9559,-1.9586,-1.9452,-1.9292,-1.9265,-1.9412,-1.9439,-1.9546,-1.9813,-1.984,-1.9947,-2.0201,-2.0107,-2.004,-2.0013,-1.9826,-1.9573,-1.9484,-2.0125,-2.083,-2.1504,-2.3612,-2.5443,-2.6173,-2.7618,-2.8301,-2.8301,-2.8301,-2.8301,-2.8301,-2.8301,-2.8301,-2.8301,-2.8301,-2.8301,-2.8301,-2.8301,-2.8301,-2.8301,-2.8301,-2.8301,-2.8242,-2.7969,-2.7695,-2.7559,-2.7109,-2.6777,-2.6777,-2.6523,-2.6582,-2.6894,-2.7187,-2.7207,-1.943,-1.943,-1.943,-1.943,-1.943,-1.943,-1.943,-1.943,-1.943,-1.943,-1.943,-1.943,-1.943,-1.943,-1.943,-1.943,-1.943,-1.9439,-1.9484,-1.9444,-1.9497,-1.9439,-1.943,-1.943,-1.943,-1.9444,-1.9426,-1.9546,-1.9679,-1.9599,-1.9786,-2.0167,-2.0535,-2.0668,-2.0681,-2.0962,-2.1109,-2.1109,-2.1109,-2.1109,-2.1109,-2.1109,-2.1096,-2.1109,-2.1096,-2.1109,-2.1109,-2.1109,-2.1109,-2.1096,-2.0895,-2.0775,-2.0762,-2.0561,-2.0401,-2.0347,-2.0334,-2.0307,-2.018,-2.018,-2.018,-2.018,-2.0294,-2.0334,-2.0321,-2.0201,-2.012,-2.0153,-2.0127,-2.0167,-2.0294,-2.0321,-2.0361,-2.0414,-2.0428,-2.0441,-2.0428,-2.0313,-2.0214,-2.0126,-2.1144,-2.2318,-2.336,-2.4931,-2.6554,-2.7799,-2.8301,-2.8301,-2.8301,-2.8301,-2.8301,-2.8301,-2.8301,-2.8301,-2.8301,-2.8301,-2.8301,-2.8301,-2.8301,-2.8301,-2.8301,-2.8301,-2.8301,-2.8242,-2.7812,-2.7559,-2.7851,-2.7363,-2.6894,-2.6953,-2.6855,-2.6875,-2.7305,-2.748,-2.7559,-1.943,-1.943,-1.943,-1.943,-1.943,-1.9444,-1.9457,-1.9444,-1.943,-1.943,-1.9457,-1.943,-1.9444,-1.943,-1.9444,-1.9457,-1.9412,-1.9639,-1.9626,-1.9484,-1.9639,-1.9626,-1.947,-1.9444,-1.943,-1.9426,-1.9653,-1.9706,-1.9599,-1.9973,-2.0201,-2.0267,-2.0521,-2.0695,-2.0722,-2.0975,-2.1109,-2.1109,-2.1109,-2.1109,-2.1109,-2.1109,-2.1109,-2.1109,-2.1109,-2.1109,-2.1109,-2.1109,-2.1109,-2.1109,-2.1082,-2.1069,-2.1056,-2.1029,-2.0909,-2.0655,-2.0641,-2.0521,-2.0281,-2.018,-2.0254,-2.0193,-2.0494,-2.0641,-2.0641,-2.0842,-2.0748,-2.0401,-2.0254,-2.0388,-2.0588,-2.0628,-2.0722,-2.0922,-2.0962,-2.1029,-2.0962,-2.0788,-2.0521,-2.0227,-2.1389,-2.2002,-2.2601,-2.4671,-2.6717,-2.8067,-2.8301,-2.8301,-2.8301,-2.8301,-2.8301,-2.8301,-2.8301,-2.8301,-2.8301,-2.8301,-2.8301,-2.8301,-2.8301,-2.8301,-2.8301,-2.8301,-2.8301,-2.8262,-2.8164,-2.7871,-2.7539,-2.7266,-2.7363,-2.709,-2.7207,-2.7598,-2.7988,-2.791,-2.7748,-1.943,-1.943,-1.943,-1.9466,-1.9626,-1.98,-1.988,-1.988,-1.988,-1.988,-1.9907,-2.0067,-1.9947,-1.9639,-1.98,-1.9786,-1.9653,-1.992,-1.9907,-1.9666,-1.992,-1.9987,-1.9893,-1.988,-1.996,-2.0207,-2.0267,-2.0441,-2.0695,-2.1069,-2.1096,-2.0815,-2.1042,-2.1109,-2.0962,-2.1042,-2.1109,-2.1109,-2.1109,-2.1109,-2.1109,-2.1109,-2.1109,-2.1109,-2.1109,-2.1109,-2.1109,-2.1109,-2.1109,-2.1109,-2.1109,-2.1109,-2.1109,-2.1109,-2.1056,-2.0935,-2.0935,-2.0882,-2.0762,-2.0748,-2.0748,-2.0686,-2.0855,-2.0935,-2.0935,-2.1042,-2.0989,-2.0815,-2.0748,-2.0815,-2.0909,-2.0935,-2.0989,-2.1082,-2.1109,-2.1109,-2.1096,-2.1002,-2.1127,-2.1793,-2.2332,-2.3262,-2.4478,-2.619,-2.753,-2.8174,-2.8301,-2.8301,-2.8301,-2.8301,-2.8301,-2.8301,-2.8301,-2.8301,-2.8301,-2.8301,-2.8301,-2.8301,-2.8301,-2.8301,-2.8301,-2.8301,-2.8301,-2.8301,-2.8125,-2.8008,-2.7891,-2.7383,-2.7207,-2.7109,-2.7109,-2.7402,-2.7885,-2.8041,-2.8008,-1.9613,-1.9613,-1.9693,-1.9893,-2.0174,-2.0388,-2.0468,-2.0406,-2.0481,-2.0406,-2.0508,-2.0788,-2.0681,-2.0334,-2.0428,-2.0347,-2.0214,-2.0468,-2.0441,-2.0214,-2.0454,-2.0561,-2.0481,-2.0468,-2.0588,-2.0775,-2.0882,-2.1239,-2.1708,-2.1777,-2.1683,-2.143,-2.1563,-2.1563,-2.1376,-2.1349,-2.1349,-2.1349,-2.1349,-2.1349,-2.1349,-2.1269,-2.1189,-2.1122,-2.1109,-2.1109,-2.1109,-2.1109,-2.1109,-2.1109,-2.1109,-2.1109,-2.1109,-2.1109,-2.1109,-2.1109,-2.1109,-2.1109,-2.1109,-2.1109,-2.1109,-2.1109,-2.1109,-2.1109,-2.1109,-2.1109,-2.1109,-2.1082,-2.1109,-2.1082,-2.1109,-2.1109,-2.1109,-2.1109,-2.1109,-2.1109,-2.1109,-2.1411,-2.1964,-2.2422,-2.355,-2.5058,-2.6859,-2.7831,-2.8247,-2.8301,-2.8301,-2.8301,-2.8301,-2.8301,-2.8301,-2.8301,-2.8301,-2.8301,-2.8301,-2.8301,-2.8301,-2.8301,-2.8301,-2.8301,-2.8301,-2.8301,-2.8301,-2.8262,-2.7988,-2.7832,-2.7851,-2.748,-2.7344,-2.7363,-2.7383,-2.7461,-2.7943,-2.8125,-2.8242,-2.0187,-2.0241,-2.0494,-2.0762,-2.1042,-2.1056,-2.1069,-2.1069,-2.1069,-2.1069,-2.1109,-2.1454,-2.1561,-2.1494,-2.1216,-2.1069,-2.1069,-2.1309,-2.1283,-2.1042,-2.1323,-2.1336,-2.1082,-2.1069,-2.1082,-2.1189,-2.1467,-2.1683,-2.1964,-2.1815,-2.171,-2.1937,-2.1951,-2.1951,-2.1897,-2.1884,-2.1937,-2.1884,-2.1884,-2.1911,-2.1897,-2.1657,-2.1403,-2.1189,-2.1109,-2.1109,-2.1109,-2.1109,-2.1109,-2.1109,-2.1109,-2.1109,-2.1109,-2.1109,-2.1109,-2.1109,-2.1109,-2.1109,-2.1109,-2.1122,-2.1136,-2.1122,-2.1162,-2.1136,-2.1189,-2.1162,-2.1149,-2.1122,-2.1122,-2.1109,-2.1109,-2.1109,-2.1109,-2.1109,-2.1109,-2.1109,-2.1109,-2.2215,-2.2448,-2.2205,-2.4903,-2.7431,-2.8584,-2.8501,-2.834,-2.8301,-2.8301,-2.8301,-2.8301,-2.8301,-2.8301,-2.8301,-2.8301,-2.8301,-2.8301,-2.8301,-2.8301,-2.8301,-2.8301,-2.8301,-2.8301,-2.8301,-2.8301,-2.8301,-2.8223,-2.8066,-2.7871,-2.7851,-2.7969,-2.7988,-2.793,-2.8047,-2.8066,-2.8203,-2.8301,-2.0802,-2.0815,-2.1109,-2.1296,-2.1416,-2.159,-2.167,-2.167,-2.167,-2.167,-2.1724,-2.1977,-2.2111,-2.2111,-2.2191,-2.1924,-2.1521,-2.1697,-2.167,-2.1443,-2.1697,-2.1777,-2.1683,-2.167,-2.1777,-2.1951,-2.2058,-2.2258,-2.2512,-2.2432,-2.2338,-2.2258,-2.2271,-2.2178,-2.2017,-2.1991,-2.1991,-2.1991,-2.1991,-2.1991,-2.1991,-2.1884,-2.1777,-2.1657,-2.1296,-2.1109,-2.1109,-2.1109,-2.1109,-2.1109,-2.1109,-2.1109,-2.1109,-2.1109,-2.1109,-2.1109,-2.1109,-2.1109,-2.1122,-2.1296,-2.139,-2.1403,-2.1563,-2.1657,-2.1643,-2.151,-2.139,-2.1363,-2.1203,-2.1109,-2.1109,-2.1109,-2.1109,-2.1109,-2.1109,-2.1109,-2.1172,-2.1664,-2.2472,-2.4131,-2.7035,-2.9011,-2.9095,-2.873,-2.832,-2.8301,-2.8301,-2.8301,-2.8301,-2.8301,-2.8301,-2.8301,-2.8301,-2.8301,-2.8301,-2.8301,-2.8301,-2.8301,-2.8301,-2.8301,-2.8301,-2.8301,-2.8301,-2.8301,-2.8301,-2.8262,-2.8047,-2.7891,-2.8086,-2.8027,-2.8008,-2.8184,-2.8242,-2.8281,-2.8301,-2.1443,-2.155,-2.175,-2.1897,-2.1991,-2.2178,-2.2271,-2.2271,-2.2271,-2.2271,-2.2311,-2.2472,-2.2565,-2.2592,-2.2779,-2.2633,-2.2097,-2.2244,-2.2231,-2.2004,-2.2178,-2.2271,-2.2271,-2.2271,-2.2365,-2.2525,-2.2565,-2.2672,-2.2846,-2.2859,-2.2752,-2.2565,-2.2565,-2.2472,-2.2298,-2.2271,-2.2271,-2.2271,-2.2271,-2.2271,-2.2258,-2.2178,-2.2124,-2.2058,-2.1643,-2.139,-2.139,-2.1309,-2.1256,-2.1243,-2.1162,-2.1109,-2.1109,-2.1203,-2.1203,-2.1122,-2.1203,-2.1203,-2.1149,-2.139,-2.1614,-2.1641,-2.1817,-2.1991,-2.1964,-2.1804,-2.1735,-2.1601,-2.139,-2.1229,-2.1122,-2.1109,-2.1109,-2.1109,-2.1109,-2.1109,-2.1109,-2.1601,-2.3497,-2.6067,-2.7867,-2.8994,-2.9456,-2.8926,-2.8516,-2.832,-2.8301,-2.8301,-2.8301,-2.8301,-2.8301,-2.832,-2.8437,-2.8516,-2.8613,-2.873,-2.8496,-2.8437,-2.8418,-2.8379,-2.8398,-2.8379,-2.8359,-2.834,-2.8301,-2.8301,-2.8203,-2.8027,-2.793,-2.7871,-2.7988,-2.8184,-2.8242,-2.8281,-2.8301,-2.2151,-2.2365,-2.2418,-2.2539,-2.2794,-2.2766,-2.2901,-2.2792,-2.2806,-2.2766,-2.2752,-2.2901,-2.2819,-2.2846,-2.2846,-2.2901,-2.2834,-2.2752,-2.2766,-2.2739,-2.2779,-2.2792,-2.2779,-2.2766,-2.2766,-2.2819,-2.2846,-2.2846,-2.2859,-2.2859,-2.2846,-2.2914,-2.2819,-2.2792,-2.2832,-2.2779,-2.2806,-2.2792,-2.2766,-2.2874,-2.2819,-2.2552,-2.2418,-2.2392,-2.2138,-2.1991,-2.1991,-2.171,-2.1614,-2.1588,-2.1283,-2.1122,-2.1176,-2.1376,-2.148,-2.1269,-2.1403,-2.139,-2.1203,-2.1416,-2.1668,-2.1722,-2.1857,-2.2084,-2.2098,-2.2004,-2.1844,-2.1722,-2.1574,-2.1467,-2.1149,-2.1109,-2.1109,-2.1109,-2.1109,-2.1109,-2.1348,-2.2654,-2.4794,-2.7459,-2.8323,-2.8438,-2.9161,-2.9219,-2.8828,-2.8555,-2.8457,-2.8476,-2.8516,-2.8516,-2.8379,-2.8457,-2.8691,-2.8926,-2.9082,-2.9199,-2.8867,-2.8613,-2.8574,-2.8555,-2.8633,-2.8652,-2.8691,-2.8672,-2.8535,-2.8496,-2.8301,-2.8144,-2.8164,-2.8144,-2.8223,-2.8223,-2.8242,-2.8301,-2.8301,-2.2645,-2.2726,-2.2726,-2.2766,-2.2859,-2.2859,-2.2859,-2.2859,-2.2859,-2.2859,-2.2859,-2.2859,-2.2859,-2.2859,-2.2859,-2.2859,-2.2859,-2.2859,-2.2859,-2.2859,-2.2859,-2.2859,-2.2859,-2.2859,-2.2859,-2.2859,-2.2859,-2.2859,-2.2859,-2.2859,-2.2859,-2.2859,-2.2859,-2.2859,-2.2859,-2.2859,-2.2859,-2.2859,-2.2859,-2.2859,-2.2859,-2.2779,-2.2726,-2.2712,-2.2632,-2.2592,-2.2565,-2.2111,-2.1857,-2.1844,-2.1577,-2.1416,-2.1443,-2.1561,-2.1603,-2.1683,-2.159,-2.1601,-2.1483,-2.167,-2.1857,-2.1937,-2.2365,-2.2619,-2.2606,-2.2218,-2.1977,-2.1804,-2.151,-2.1189,-2.1136,-2.1109,-2.1122,-2.1109,-2.1109,-2.1235,-2.1677,-2.3636,-2.5984,-2.8015,-2.9021,-2.9623,-2.981,-2.9648,-2.9355,-2.918,-2.9121,-2.9121,-2.9141,-2.9082,-2.918,-2.9274,-2.9355,-2.9355,-2.9473,-2.959,-2.9492,-2.9219,-2.9082,-2.8906,-2.8965,-2.8984,-2.9023,-2.8984,-2.8828,-2.8691,-2.8457,-2.8398,-2.8457,-2.8398,-2.8379,-2.8359,-2.8301,-2.834,-2.8398,-2.2859,-2.2859,-2.2859,-2.2859,-2.2859,-2.2859,-2.2859,-2.2859,-2.2859,-2.2859,-2.2859,-2.2859,-2.2859,-2.2859,-2.2859,-2.2859,-2.2859,-2.2859,-2.2859,-2.2859,-2.2859,-2.2859,-2.2859,-2.2859,-2.2859,-2.2859,-2.2859,-2.2859,-2.2859,-2.2859,-2.2859,-2.2859,-2.2859,-2.2859,-2.2859,-2.2859,-2.2859,-2.2859,-2.2859,-2.2859,-2.2859,-2.2859,-2.2859,-2.2859,-2.2859,-2.2859,-2.2832,-2.2605,-2.2378,-2.2178,-2.1964,-2.1924,-2.2083,-2.2124,-2.2071,-2.2071,-2.1977,-2.1844,-2.1829,-2.1991,-2.2151,-2.2231,-2.2592,-2.2914,-2.2792,-2.2472,-2.2271,-2.1951,-2.167,-2.1349,-2.1176,-2.1229,-2.1269,-2.1269,-2.1782,-2.2335,-2.3193,-2.5507,-2.7444,-2.8908,-3.009,-3.0684,-3.0644,-3.0332,-3.0037,-2.9863,-2.9668,-2.957,-2.957,-2.9551,-2.9646,-2.9704,-2.9726,-2.9746,-2.9805,-2.9922,-3.0078,-2.9902,-2.9707,-2.9492,-2.9375,-2.9375,-2.9375,-2.9336,-2.9219,-2.918,-2.8984,-2.8926,-2.8926,-2.8769,-2.8672,-2.873,-2.8769,-2.8613,-2.8594,-2.2859,-2.2859,-2.2859,-2.2859,-2.2859,-2.2859,-2.2859,-2.2859,-2.2859,-2.2859,-2.2859,-2.2859,-2.2859,-2.2859,-2.2859,-2.2859,-2.2859,-2.2859,-2.2859,-2.2859,-2.2859,-2.2859,-2.2859,-2.2859,-2.2859,-2.2859,-2.2859,-2.2859,-2.2859,-2.2859,-2.2859,-2.2859,-2.2859,-2.2859,-2.2859,-2.2859,-2.2859,-2.2859,-2.2859,-2.2859,-2.2859,-2.2859,-2.2859,-2.2873,-2.2899,-2.2926,-2.2953,-2.3126,-2.3033,-2.2565,-2.2485,-2.2579,-2.2806,-2.2886,-2.2712,-2.2565,-2.2498,-2.2352,-2.2205,-2.2378,-2.2512,-2.2552,-2.2806,-2.2981,-2.2979,-2.2846,-2.2646,-2.2191,-2.1991,-2.1737,-2.1376,-2.1737,-2.2001,-2.2181,-2.3019,-2.4282,-2.6467,-2.8123,-2.9105,-2.9929,-3.1157,-3.1973,-3.1445,-3.1074,-3.0703,-3.0312,-2.9961,-2.9863,-2.988,-2.9939,-2.9763,-2.99,-3.0117,-3.0176,-3.0254,-3.0332,-3.0469,-3.0391,-3.0234,-3.0078,-2.9902,-2.9883,-2.9766,-2.9707,-2.9648,-2.9609,-2.9528,-2.9336,-2.9316,-2.9258,-2.9238,-2.9277,-2.918,-2.9023,-2.8523,-2.2859,-2.2859,-2.2859,-2.2859,-2.2859,-2.2859,-2.2859,-2.2859,-2.2859,-2.2859,-2.2859,-2.2859,-2.2859,-2.2859,-2.2859,-2.2859,-2.2859,-2.2859,-2.2859,-2.2859,-2.2859,-2.2859,-2.2859,-2.2859,-2.2859,-2.2859,-2.2859,-2.2859,-2.2859,-2.2859,-2.2859,-2.2859,-2.2859,-2.2859,-2.2859,-2.2859,-2.2859,-2.2859,-2.2859,-2.2859,-2.2859,-2.2859,-2.2859,-2.2886,-2.3073,-2.318,-2.3233,-2.3487,-2.3487,-2.314,-2.3086,-2.3113,-2.3233,-2.3233,-2.326,-2.3327,-2.318,-2.306,-2.2993,-2.302,-2.3073,-2.3113,-2.33,-2.3527,-2.3514,-2.3182,-2.2901,-2.2552,-2.2285,-2.199,-2.1973,-2.2962,-2.4089,-2.5293,-2.4976,-2.5644,-2.8099,-2.9251,-3.0002,-3.1317,-3.1944,-3.1971,-3.1738,-3.1445,-3.1211,-3.084,-3.0586,-3.0449,-3.0371,-3.0391,-3.037,-3.0488,-3.0684,-3.0684,-3.0723,-3.0801,-3.082,-3.0781,-3.0703,-3.0644,-3.0547,-3.0527,-3.0332,-3.0156,-3.0098,-3.0039,-2.9746,-2.9512,-2.959,-2.9766,-2.9687,-2.9648,-2.9587,-2.9394,-2.8557,-2.2859,-2.2859,-2.2859,-2.2859,-2.2859,-2.2859,-2.2859,-2.2859,-2.2859,-2.2859,-2.2859,-2.2859,-2.2859,-2.2859,-2.2859,-2.2859,-2.2859,-2.2859,-2.2859,-2.2886,-2.3006,-2.2993,-2.2899,-2.2859,-2.2859,-2.2859,-2.2873,-2.2859,-2.2859,-2.2859,-2.2859,-2.2859,-2.2859,-2.2859,-2.2859,-2.2859,-2.2859,-2.2859,-2.2859,-2.2859,-2.2859,-2.2859,-2.2859,-2.2926,-2.3166,-2.3394,-2.3661,-2.3861,-2.3861,-2.3728,-2.3701,-2.3741,-2.3848,-2.3754,-2.3781,-2.3928,-2.3674,-2.3514,-2.3514,-2.3514,-2.3514,-2.3527,-2.3688,-2.3754,-2.3688,-2.3327,-2.3033,-2.2806,-2.2418,-2.2535,-2.3121,-2.4145,-2.5581,-2.6955,-2.6712,-2.7213,-2.9681,-3.0556,-3.1413,-3.2351,-3.2676,-3.2617,-3.2305,-3.2012,-3.1699,-3.1426,-3.1035,-3.0918,-3.082,-3.0898,-3.0898,-3.0898,-3.0898,-3.084,-3.082,-3.0879,-3.0898,-3.0879,-3.0879,-3.0898,-3.0898,-3.0898,-3.0742,-3.0527,-3.0488,-3.041,-3.0156,-3.0019,-3.0215,-3.0293,-3.0194,-3.0057,-2.9922,-2.9844,-2.8994,-2.2859,-2.2859,-2.2859,-2.2859,-2.2859,-2.2859,-2.2899,-2.2913,-2.2939,-2.2966,-2.3006,-2.2979,-2.3046,-2.3035,-2.3073,-2.2993,-2.2993,-2.306,-2.302,-2.31,-2.322,-2.326,-2.3155,-2.3073,-2.306,-2.3046,-2.3048,-2.3075,-2.306,-2.302,-2.2993,-2.3115,-2.302,-2.3062,-2.3115,-2.2979,-2.2995,-2.2926,-2.2954,-2.2873,-2.2886,-2.2926,-2.2966,-2.302,-2.3354,-2.3741,-2.4088,-2.4249,-2.4222,-2.4249,-2.4249,-2.4329,-2.4456,-2.4342,-2.4249,-2.4222,-2.4048,-2.3901,-2.3875,-2.3901,-2.3875,-2.3901,-2.3901,-2.3834,-2.3794,-2.3554,-2.326,-2.2993,-2.2645,-2.3301,-2.483,-2.5393,-2.6527,-2.8243,-2.8557,-2.9349,-3.0229,-3.1816,-3.3008,-3.334,-3.3398,-3.3398,-3.3105,-3.2695,-3.215,-3.1387,-3.1133,-3.0976,-3.0898,-3.0898,-3.0898,-3.0898,-3.0898,-3.0898,-3.0879,-3.0898,-3.0898,-3.0898,-3.0898,-3.0898,-3.0898,-3.0898,-3.0898,-3.082,-3.0703,-3.0703,-3.0703,-3.0723,-3.0762,-3.0742,-3.0527,-3.0449,-3.0391,-3.0312,-2.9795,-2.2859,-2.2859,-2.2859,-2.2859,-2.2859,-2.2873,-2.3006,-2.322,-2.3233,-2.334,-2.3514,-2.3567,-2.3554,-2.3554,-2.3527,-2.3581,-2.3527,-2.3527,-2.3581,-2.3594,-2.3621,-2.3661,-2.3567,-2.3567,-2.3638,-2.3611,-2.3567,-2.3567,-2.3554,-2.3571,-2.3638,-2.3611,-2.3557,-2.3638,-2.3514,-2.3313,-2.322,-2.318,-2.3006,-2.2913,-2.2979,-2.314,-2.3233,-2.3287,-2.3714,-2.4155,-2.4449,-2.4543,-2.4543,-2.4543,-2.4529,-2.4556,-2.4596,-2.4496,-2.4442,-2.4489,-2.4476,-2.4422,-2.4436,-2.4396,-2.4436,-2.4396,-2.4356,-2.4356,-2.4102,-2.3848,-2.3554,-2.3247,-2.3021,-2.4054,-2.644,-2.7326,-2.8327,-2.9765,-3.1047,-3.1542,-3.1258,-3.2213,-3.3175,-3.3379,-3.3398,-3.3184,-3.2598,-3.2441,-3.1974,-3.1348,-3.1074,-3.0918,-3.0898,-3.0898,-3.0898,-3.0898,-3.0898,-3.0898,-3.0898,-3.0898,-3.0898,-3.0898,-3.0898,-3.0898,-3.0898,-3.0898,-3.0898,-3.0898,-3.0879,-3.0898,-3.0898,-3.0898,-3.084,-3.0879,-3.0898,-3.0762,-3.0664,-3.0684,-3.0142,-2.2953,-2.3073,-2.3086,-2.3166,-2.3273,-2.3287,-2.338,-2.3514,-2.3541,-2.3621,-2.3754,-2.3781,-2.3781,-2.3781,-2.3781,-2.3768,-2.3781,-2.3781,-2.3768,-2.3794,-2.3888,-2.3968,-2.4022,-2.4062,-2.4075,-2.3848,-2.3768,-2.3781,-2.3781,-2.3794,-2.3741,-2.3781,-2.3781,-2.3741,-2.3768,-2.3621,-2.3554,-2.3527,-2.3394,-2.3287,-2.3327,-2.3434,-2.3634,-2.3728,-2.4048,-2.4342,-2.4596,-2.4623,-2.4623,-2.4636,-2.4636,-2.4636,-2.4636,-2.4636,-2.4636,-2.4636,-2.4636,-2.4636,-2.4623,-2.4636,-2.4609,-2.4636,-2.4636,-2.4556,-2.4382,-2.4142,-2.3848,-2.3554,-2.3469,-2.4243,-2.6671,-2.8869,-2.9865,-3.0578,-3.1625,-3.2027,-3.2174,-3.2829,-3.3418,-3.3418,-3.3418,-3.3105,-3.2695,-3.2285,-3.1914,-3.1426,-3.1055,-3.0898,-3.0898,-3.0898,-3.0898,-3.0898,-3.0898,-3.0898,-3.0898,-3.0898,-3.0898,-3.0898,-3.0898,-3.0898,-3.0898,-3.0898,-3.0898,-3.0898,-3.0898,-3.0898,-3.0898,-3.0898,-3.0898,-3.0898,-3.0898,-3.0898,-3.0879,-3.0801,-3.0043,-2.3153,-2.3394,-2.3394,-2.3541,-2.3754,-2.3754,-2.3781,-2.3834,-2.3834,-2.3888,-2.3915,-2.3901,-2.3995,-2.3928,-2.3955,-2.3915,-2.3928,-2.3941,-2.4008,-2.4035,-2.4182,-2.4262,-2.4315,-2.4409,-2.4369,-2.3928,-2.3968,-2.3968,-2.3968,-2.3915,-2.4022,-2.3941,-2.3928,-2.3995,-2.3941,-2.3848,-2.3834,-2.3834,-2.3728,-2.3758,-2.3799,-2.3781,-2.3981,-2.4302,-2.4382,-2.4516,-2.469,-2.4676,-2.4636,-2.4636,-2.4636,-2.4636,-2.4636,-2.4636,-2.4636,-2.4636,-2.4636,-2.4636,-2.4636,-2.4636,-2.4636,-2.4636,-2.4569,-2.4516,-2.4409,-2.4187,-2.4093,-2.4272,-2.4441,-2.5159,-2.6337,-2.8804,-3.0642,-3.124,-3.1304,-3.1899,-3.2956,-3.3418,-3.3418,-3.3398,-3.3262,-3.2949,-3.2598,-3.2207,-3.1855,-3.1504,-3.1133,-3.0898,-3.0898,-3.0898,-3.0898,-3.0898,-3.0898,-3.0898,-3.0898,-3.0898,-3.0898,-3.0898,-3.0898,-3.0898,-3.0898,-3.0898,-3.0898,-3.0898,-3.0898,-3.0898,-3.0898,-3.0898,-3.0898,-3.0898,-3.0898,-3.0898,-3.0898,-3.0898,-3.0079,-2.3647,-2.3701,-2.3701,-2.3728,-2.3781,-2.3781,-2.3941,-2.4115,-2.4128,-2.4275,-2.4449,-2.4476,-2.4449,-2.4462,-2.4489,-2.4476,-2.4409,-2.4396,-2.4422,-2.4422,-2.4502,-2.4516,-2.4543,-2.4569,-2.4556,-2.4529,-2.4449,-2.4409,-2.4436,-2.4489,-2.4396,-2.4449,-2.4436,-2.4436,-2.4356,-2.4275,-2.4128,-2.4115,-2.3995,-2.3915,-2.3955,-2.4128,-2.4422,-2.4836,-2.4877,-2.493,-2.4917,-2.4783,-2.4636,-2.4636,-2.4636,-2.4636,-2.4636,-2.4636,-2.4636,-2.4636,-2.4636,-2.4636,-2.4636,-2.4636,-2.4636,-2.4583,-2.4462,-2.4209,-2.3995,-2.3927,-2.4498,-2.5511,-2.6672,-2.7965,-2.9735,-3.0578,-3.1497,-3.2365,-3.2829,-3.2956,-3.3292,-3.3457,-3.3476,-3.3516,-3.3203,-3.2793,-3.2441,-3.209,-3.1699,-3.1367,-3.1055,-3.0898,-3.0898,-3.0898,-3.0898,-3.0898,-3.0898,-3.0898,-3.0898,-3.0898,-3.0898,-3.0898,-3.0898,-3.0898,-3.0898,-3.0898,-3.0898,-3.0898,-3.0898,-3.0898,-3.0898,-3.0898,-3.0898,-3.0898,-3.0898,-3.0898,-3.0898,-3.0898,-3.0898,-2.3861,-2.3981,-2.3995,-2.4088,-2.4209,-2.4222,-2.4289,-2.4409,-2.4436,-2.4502,-2.4536,-2.4636,-2.4636,-2.4636,-2.4636,-2.4636,-2.4636,-2.4636,-2.4636,-2.4636,-2.4636,-2.4636,-2.4636,-2.4636,-2.4636,-2.4623,-2.4623,-2.4636,-2.4636,-2.4623,-2.4636,-2.4623,-2.4636,-2.4636,-2.4609,-2.4502,-2.4436,-2.4396,-2.4422,-2.4422,-2.4462,-2.4716,-2.505,-2.5197,-2.5304,-2.5304,-2.5277,-2.5197,-2.501,-2.4903,-2.4863,-2.4783,-2.4703,-2.4649,-2.4636,-2.4649,-2.4636,-2.4636,-2.4636,-2.4636,-2.4636,-2.4623,-2.4476,-2.4382,-2.4471,-2.4886,-2.5626,-2.7066,-2.846,-2.9865,-3.0578,-3.1579,-3.2492,-3.3082,-3.3437,-3.3457,-3.3476,-3.3633,-3.3711,-3.3711,-3.3437,-3.2988,-3.2305,-3.1934,-3.1543,-3.123,-3.0976,-3.0957,-3.0996,-3.1016,-3.1074,-3.1055,-3.1074,-3.1074,-3.1055,-3.1016,-3.0996,-3.0976,-3.0898,-3.0898,-3.0898,-3.0898,-3.0898,-3.0898,-3.0898,-3.0898,-3.0898,-3.0898,-3.0898,-3.0898,-3.0898,-3.0898,-3.0898,-3.0898,-3.0898,-2.4075,-2.4289,-2.4289,-2.4422,-2.4609,-2.4636,-2.4623,-2.4636,-2.4623,-2.4623,-2.4636,-2.4636,-2.4636,-2.4636,-2.4636,-2.4636,-2.4636,-2.4636,-2.4636,-2.4636,-2.4636,-2.4636,-2.4636,-2.4636,-2.4636,-2.4636,-2.4636,-2.4636,-2.4636,-2.4636,-2.4636,-2.4636,-2.4636,-2.4636,-2.4623,-2.4596,-2.4649,-2.4796,-2.493,-2.509,-2.5224,-2.5438,-2.5598,-2.5598,-2.5611,-2.5598,-2.5598,-2.5491,-2.5358,-2.5224,-2.5144,-2.5064,-2.4863,-2.481,-2.4783,-2.473,-2.4676,-2.4636,-2.4636,-2.4636,-2.4636,-2.4623,-2.4502,-2.4449,-2.4856,-2.5781,-2.7514,-2.8927,-3.0402,-3.1304,-3.1707,-3.2651,-3.3364,-3.355,-3.3672,-3.373,-3.3848,-3.4004,-3.416,-3.4043,-3.375,-3.332,-3.2754,-3.2129,-3.1797,-3.1699,-3.1465,-3.1445,-3.1465,-3.1406,-3.1406,-3.1328,-3.1309,-3.1328,-3.1289,-3.1211,-3.1191,-3.1172,-3.1016,-3.0898,-3.0898,-3.0898,-3.0898,-3.0898,-3.0898,-3.0898,-3.0898,-3.0898,-3.0898,-3.0898,-3.0898,-3.0898,-3.0898,-3.0898,-3.0898,-2.4556,-2.4583,-2.4583,-2.4609,-2.4636,-2.4636,-2.4636,-2.4636,-2.4636,-2.4636,-2.4636,-2.4636,-2.4636,-2.4636,-2.4636,-2.4636,-2.4636,-2.4636,-2.4636,-2.4636,-2.4636,-2.4636,-2.4636,-2.4636,-2.4636,-2.4636,-2.4636,-2.4636,-2.4636,-2.4636,-2.4636,-2.4636,-2.4636,-2.4636,-2.4636,-2.469,-2.4783,-2.497,-2.5077,-2.5237,-2.5491,-2.5758,-2.5879,-2.5905,-2.5905,-2.5905,-2.5879,-2.5732,-2.5558,-2.5491,-2.5464,-2.5438,-2.5411,-2.5411,-2.5264,-2.5037,-2.481,-2.4636,-2.4636,-2.4636,-2.4596,-2.4502,-2.4249,-2.3955,-2.4776,-2.6625,-2.8643,-3.0443,-3.2019,-3.288,-3.2995,-3.3617,-3.3945,-3.4082,-3.4199,-3.4355,-3.4492,-3.4473,-3.4609,-3.4492,-3.4238,-3.3867,-3.3398,-3.2715,-3.219,-3.2111,-3.2053,-3.2013,-3.1955,-3.1777,-3.1758,-3.168,-3.172,-3.166,-3.1621,-3.1543,-3.1504,-3.1445,-3.1289,-3.1055,-3.1035,-3.1055,-3.0918,-3.0918,-3.0918,-3.0898,-3.0898,-3.0898,-3.0898,-3.0898,-3.0898,-3.0898,-3.0898,-3.0898,-3.0898,-2.4636,-2.4636,-2.4636,-2.4636,-2.4636,-2.4636,-2.4636,-2.4636,-2.4636,-2.4636,-2.4636,-2.4636,-2.4636,-2.4636,-2.4636,-2.4636,-2.4636,-2.4636,-2.4636,-2.4636,-2.4636,-2.4636,-2.4636,-2.4636,-2.4636,-2.4636,-2.4636,-2.4636,-2.4636,-2.4636,-2.4636,-2.4636,-2.4636,-2.4636,-2.4663,-2.481,-2.4943,-2.5144,-2.5398,-2.5718,-2.5972,-2.6119,-2.6199,-2.6199,-2.6199,-2.6186,-2.6146,-2.6106,-2.5919,-2.5825,-2.5758,-2.5665,-2.5558,-2.5504,-2.5424,-2.5358,-2.5224,-2.4997,-2.4703,-2.4663,-2.4583,-2.4409,-2.4214,-2.4402,-2.5324,-2.7243,-2.9377,-3.1019,-3.2952,-3.3973,-3.4101,-3.4316,-3.4375,-3.4512,-3.4687,-3.4726,-3.4863,-3.5039,-3.5059,-3.4902,-3.4687,-3.4277,-3.3809,-3.3125,-3.2519,-3.2305,-3.2246,-3.2187,-3.2129,-3.2031,-3.2031,-3.207,-3.2111,-3.2051,-3.2012,-3.1934,-3.1914,-3.1894,-3.1855,-3.1621,-3.1348,-3.125,-3.1172,-3.1016,-3.0918,-3.0898,-3.0898,-3.0898,-3.0898,-3.0898,-3.0898,-3.0898,-3.0898,-3.0898,-3.0898,-2.4636,-2.4636,-2.4636,-2.4636,-2.4636,-2.4636,-2.4636,-2.4636,-2.4636,-2.4636,-2.4636,-2.4636,-2.4636,-2.4636,-2.4636,-2.4636,-2.4636,-2.4636,-2.4636,-2.4636,-2.4636,-2.4636,-2.4636,-2.4636,-2.4636,-2.4636,-2.4636,-2.4636,-2.4636,-2.4636,-2.4636,-2.4636,-2.4636,-2.4636,-2.4716,-2.4903,-2.5117,-2.5398,-2.5812,-2.6119,-2.6306,-2.636,-2.6373,-2.6386,-2.6386,-2.64,-2.64,-2.6373,-2.6226,-2.6119,-2.6066,-2.5972,-2.5838,-2.5825,-2.5745,-2.5665,-2.5585,-2.5384,-2.505,-2.4836,-2.4636,-2.4462,-2.4485,-2.4872,-2.6863,-2.849,-3.0325,-3.2224,-3.3546,-3.4459,-3.4707,-3.4766,-3.4863,-3.4922,-3.5039,-3.5,-3.5059,-3.5312,-3.5371,-3.5137,-3.4883,-3.459,-3.4062,-3.3437,-3.2949,-3.2617,-3.248,-3.2461,-3.2441,-3.2422,-3.25,-3.2598,-3.2617,-3.2617,-3.2578,-3.25,-3.2422,-3.2305,-3.2266,-3.2109,-3.1797,-3.1621,-3.1543,-3.1328,-3.1074,-3.0957,-3.0976,-3.0937,-3.0898,-3.0898,-3.0898,-3.0898,-3.0898,-3.0898,-3.084,-2.4636,-2.4636,-2.4636,-2.4636,-2.4636,-2.4636,-2.4636,-2.4636,-2.4636,-2.4636,-2.4636,-2.4636,-2.4636,-2.4636,-2.4636,-2.4636,-2.4636,-2.4636,-2.4636,-2.4636,-2.4636,-2.4636,-2.4636,-2.4636,-2.4636,-2.4636,-2.4636,-2.4636,-2.4636,-2.4636,-2.4636,-2.4636,-2.4636,-2.4636,-2.4743,-2.497,-2.5411,-2.5745,-2.6159,-2.6293,-2.6373,-2.64,-2.64,-2.64,-2.64,-2.64,-2.64,-2.64,-2.6373,-2.6306,-2.6293,-2.6293,-2.6186,-2.6186,-2.6092,-2.5972,-2.5932,-2.5745,-2.5504,-2.5157,-2.501,-2.485,-2.4915,-2.5541,-2.7661,-2.876,-3.0833,-3.3463,-3.4382,-3.4797,-3.4941,-3.5039,-3.5293,-3.5371,-3.5469,-3.5566,-3.5605,-3.5703,-3.5703,-3.5391,-3.5039,-3.4648,-3.4238,-3.3574,-3.3301,-3.2969,-3.2969,-3.293,-3.3027,-3.3047,-3.3125,-3.3203,-3.3242,-3.3242,-3.3223,-3.3105,-3.2832,-3.2695,-3.2637,-3.2441,-3.2168,-3.2051,-3.1973,-3.1699,-3.1465,-3.125,-3.1055,-3.1074,-3.1055,-3.0937,-3.0898,-3.0898,-3.0704,-3.045,-3.0509,-2.4636,-2.4636,-2.4636,-2.4636,-2.4636,-2.4636,-2.4636,-2.4636,-2.4636,-2.4636,-2.4636,-2.4636,-2.4636,-2.4636,-2.4636,-2.4636,-2.4636,-2.4636,-2.4636,-2.4636,-2.4636,-2.4636,-2.4636,-2.4636,-2.4636,-2.4636,-2.4636,-2.4636,-2.4636,-2.4636,-2.4636,-2.4636,-2.4636,-2.4636,-2.4756,-2.509,-2.5638,-2.6066,-2.6319,-2.6386,-2.64,-2.64,-2.64,-2.64,-2.64,-2.64,-2.64,-2.64,-2.64,-2.64,-2.64,-2.64,-2.64,-2.64,-2.6319,-2.6199,-2.6186,-2.6119,-2.5892,-2.5438,-2.4943,-2.4782,-2.521,-2.6246,-2.7972,-2.9641,-3.1472,-3.336,-3.4691,-3.5103,-3.5547,-3.5664,-3.5781,-3.582,-3.5898,-3.5996,-3.6035,-3.6035,-3.5742,-3.5312,-3.4941,-3.457,-3.4141,-3.3691,-3.3516,-3.3359,-3.3398,-3.3418,-3.3418,-3.3418,-3.3418,-3.3418,-3.3418,-3.3418,-3.3398,-3.3281,-3.3164,-3.3066,-3.2969,-3.2793,-3.2578,-3.2559,-3.2441,-3.2148,-3.1875,-3.168,-3.1504,-3.1348,-3.1191,-3.0996,-3.0918,-3.0898,-3.0587,-3.002,-2.9707,-2.4636,-2.4636,-2.4636,-2.4636,-2.4636,-2.4636,-2.4636,-2.4636,-2.4636,-2.4636,-2.4636,-2.4636,-2.4636,-2.4636,-2.4636,-2.4636,-2.4636,-2.4636,-2.4636,-2.4636,-2.4636,-2.4636,-2.4636,-2.4636,-2.4636,-2.4636,-2.4636,-2.4636,-2.4636,-2.4636,-2.4636,-2.4636,-2.4636,-2.4636,-2.477,-2.5211,-2.5798,-2.6253,-2.64,-2.64,-2.64,-2.64,-2.64,-2.64,-2.64,-2.64,-2.64,-2.64,-2.64,-2.64,-2.64,-2.64,-2.64,-2.6386,-2.6346,-2.6319,-2.6333,-2.636,-2.6092,-2.5651,-2.4943,-2.4649,-2.5105,-2.5984,-2.7483,-2.9658,-3.0698,-3.2979,-3.4352,-3.5382,-3.5743,-3.5976,-3.5957,-3.5937,-3.5957,-3.6035,-3.6035,-3.5996,-3.5605,-3.5195,-3.4844,-3.4512,-3.3965,-3.3574,-3.3516,-3.3418,-3.3418,-3.3418,-3.3418,-3.3418,-3.3418,-3.3418,-3.3418,-3.3418,-3.3398,-3.334,-3.3281,-3.3281,-3.3203,-3.3184,-3.3047,-3.2988,-3.2832,-3.25,-3.2266,-3.2129,-3.1953,-3.1758,-3.1367,-3.0976,-3.0879,-3.0762,-2.9785,-2.9157,-2.8367,-2.4636,-2.4636,-2.4636,-2.4636,-2.4636,-2.4636,-2.4636,-2.4636,-2.4636,-2.4636,-2.4636,-2.4636,-2.4636,-2.4636,-2.4636,-2.4636,-2.4636,-2.4636,-2.4636,-2.4636,-2.4636,-2.4636,-2.4636,-2.4636,-2.4636,-2.4636,-2.4636,-2.4636,-2.4636,-2.4636,-2.4636,-2.4636,-2.4636,-2.469,-2.4629,-2.5224,-2.5812,-2.6306,-2.6386,-2.64,-2.64,-2.64,-2.64,-2.64,-2.64,-2.64,-2.64,-2.64,-2.64,-2.64,-2.64,-2.6373,-2.6319,-2.6373,-2.6279,-2.6052,-2.6239,-2.6213,-2.5945,-2.5638,-2.5157,-2.4737,-2.5285,-2.6156,-2.7256,-2.8454,-3.0244,-3.344,-3.4001,-3.4659,-3.5314,-3.6035,-3.6035,-3.6035,-3.6035,-3.6035,-3.6035,-3.6016,-3.5625,-3.5117,-3.4785,-3.4434,-3.3848,-3.3437,-3.3437,-3.3418,-3.3418,-3.3418,-3.3418,-3.3418,-3.3418,-3.3418,-3.3418,-3.3418,-3.3418,-3.3418,-3.3398,-3.3418,-3.3398,-3.334,-3.332,-3.3262,-3.3066,-3.2812,-3.2715,-3.2598,-3.2383,-3.2209,-3.1498,-3.0853,-3.0702,-3.0311,-2.9213,-2.7991,-2.697,-2.4636,-2.4636,-2.4636,-2.4636,-2.4636,-2.4636,-2.4636,-2.4636,-2.4636,-2.4636,-2.4636,-2.4636,-2.4636,-2.4636,-2.4636,-2.4636,-2.4636,-2.4636,-2.4636,-2.4636,-2.4636,-2.4636,-2.4636,-2.4636,-2.4636,-2.4636,-2.4636,-2.4636,-2.4636,-2.4636,-2.4636,-2.4636,-2.4783,-2.4863,-2.5211,-2.5638,-2.6026,-2.6319,-2.64,-2.64,-2.64,-2.64,-2.64,-2.64,-2.64,-2.64,-2.64,-2.64,-2.64,-2.6386,-2.6373,-2.6293,-2.6213,-2.6226,-2.6213,-2.6077,-2.6079,-2.5852,-2.5531,-2.5224,-2.505,-2.5053,-2.5786,-2.7128,-2.8972,-3.068,-3.2595,-3.4089,-3.4452,-3.5158,-3.5879,-3.6035,-3.6035,-3.6035,-3.6035,-3.6035,-3.6016,-3.5996,-3.5762,-3.5117,-3.4648,-3.4219,-3.3691,-3.3437,-3.3418,-3.3418,-3.3418,-3.3418,-3.3418,-3.3418,-3.3418,-3.3418,-3.3418,-3.3418,-3.3418,-3.3418,-3.3418,-3.3418,-3.3418,-3.3398,-3.3398,-3.3418,-3.334,-3.3125,-3.3105,-3.3086,-3.2773,-3.2338,-3.1317,-3.0672,-3.0325,-2.9471,-2.8235,-2.6537,-2.4855,-2.4636,-2.4636,-2.4636,-2.4636,-2.4636,-2.4636,-2.4636,-2.4636,-2.4636,-2.4636,-2.4636,-2.4636,-2.4636,-2.4636,-2.4636,-2.4636,-2.4636,-2.4636,-2.4636,-2.4636,-2.4636,-2.4636,-2.4636,-2.4636,-2.4636,-2.4636,-2.4636,-2.4636,-2.4636,-2.4636,-2.4703,-2.485,-2.5077,-2.5411,-2.5678,-2.5798,-2.5972,-2.6253,-2.64,-2.64,-2.64,-2.64,-2.64,-2.64,-2.64,-2.64,-2.64,-2.64,-2.6386,-2.6373,-2.6279,-2.6159,-2.6066,-2.5985,-2.5959,-2.5745,-2.5611,-2.5438,-2.5197,-2.5117,-2.4957,-2.4676,-2.643,-2.7924,-2.9401,-3.0539,-3.2525,-3.402,-3.5089,-3.5587,-3.5879,-3.5879,-3.6035,-3.6035,-3.6035,-3.6035,-3.5976,-3.5957,-3.5586,-3.4961,-3.4434,-3.3984,-3.3613,-3.3516,-3.3418,-3.3418,-3.3418,-3.3418,-3.3418,-3.3418,-3.3418,-3.3418,-3.3418,-3.3418,-3.3418,-3.3418,-3.3418,-3.3418,-3.3418,-3.3418,-3.3418,-3.3418,-3.3418,-3.3355,-3.3257,-3.3097,-3.3066,-3.2483,-3.1612,-3.0519,-2.9635,-2.8606,-2.72,-2.5507,-2.3613,-2.4636,-2.4636,-2.4636,-2.4636,-2.4636,-2.4636,-2.4636,-2.4636,-2.4636,-2.4636,-2.4636,-2.4636,-2.4636,-2.4636,-2.4636,-2.4636,-2.4636,-2.4636,-2.4636,-2.4636,-2.4636,-2.4636,-2.4636,-2.4636,-2.4676,-2.4676,-2.4703,-2.4783,-2.469,-2.481,-2.493,-2.5211,-2.5665,-2.5879,-2.5879,-2.5838,-2.6012,-2.6333,-2.6413,-2.644,-2.648,-2.6413,-2.64,-2.64,-2.64,-2.64,-2.64,-2.64,-2.6373,-2.6279,-2.6197,-2.5985,-2.5838,-2.5665,-2.5384,-2.5197,-2.5144,-2.5104,-2.5099,-2.5072,-2.5425,-2.5534,-2.7143,-2.7635,-2.8557,-3.0397,-3.2455,-3.3743,-3.459,-3.5158,-3.5587,-3.5811,-3.6035,-3.6035,-3.6035,-3.5996,-3.5937,-3.5703,-3.5293,-3.4785,-3.4277,-3.3867,-3.3555,-3.3418,-3.3418,-3.3418,-3.3418,-3.3418,-3.3418,-3.3418,-3.3418,-3.3418,-3.3418,-3.3418,-3.3418,-3.3418,-3.3418,-3.3418,-3.3418,-3.3418,-3.3418,-3.3418,-3.3418,-3.3355,-3.3228,-3.2815,-3.1776,-3.1739,-3.1973,-3.0737,-2.8516,-2.787,-2.6586,-2.4826,-2.3099,-2.4636,-2.4636,-2.4636,-2.4636,-2.4636,-2.4636,-2.4636,-2.4636,-2.4636,-2.4636,-2.4636,-2.4636,-2.4636,-2.4636,-2.4636,-2.4636,-2.4636,-2.4636,-2.4636,-2.4636,-2.4663,-2.4649,-2.4649,-2.469,-2.4783,-2.489,-2.497,-2.5037,-2.5211,-2.5237,-2.5411,-2.5758,-2.5892,-2.6012,-2.6079,-2.5972,-2.6279,-2.6466,-2.6493,-2.6533,-2.656,-2.6507,-2.648,-2.6466,-2.644,-2.6453,-2.6466,-2.6453,-2.6386,-2.6106,-2.6104,-2.5916,-2.5317,-2.5424,-2.5398,-2.513,-2.5064,-2.5085,-2.5033,-2.5999,-2.653,-2.6896,-2.9131,-3.0184,-3.061,-3.1175,-3.3031,-3.3882,-3.4659,-3.5451,-3.5811,-3.5879,-3.6035,-3.6035,-3.6035,-3.6016,-3.5898,-3.5547,-3.5098,-3.4512,-3.4023,-3.373,-3.3437,-3.3418,-3.3418,-3.3418,-3.3418,-3.3418,-3.3418,-3.3418,-3.3418,-3.3418,-3.3418,-3.3418,-3.3418,-3.3418,-3.3418,-3.3418,-3.3418,-3.3418,-3.3418,-3.3418,-3.3418,-3.3082,-3.2556,-3.1176,-2.9587,-2.9877,-3.0552,-2.8474,-2.6471,-2.6306,-2.5862,-2.4257,-2.2897,-2.4636,-2.4636,-2.4636,-2.4636,-2.4636,-2.4636,-2.4636,-2.4636,-2.4636,-2.4636,-2.4636,-2.4636,-2.4636,-2.4636,-2.4636,-2.4636,-2.4636,-2.4636,-2.4636,-2.4589,-2.477,-2.4823,-2.4836,-2.493,-2.5104,-2.5211,-2.5264,-2.5317,-2.5545,-2.5785,-2.5959,-2.5905,-2.5892,-2.6146,-2.6293,-2.6346,-2.6493,-2.664,-2.6694,-2.6694,-2.668,-2.6667,-2.6653,-2.6667,-2.664,-2.66,-2.6694,-2.668,-2.6493,-2.6159,-2.6066,-2.5678,-2.5184,-2.5157,-2.513,-2.489,-2.4877,-2.481,-2.4837,-2.552,-2.6152,-2.7143,-2.9361,-3.0113,-3.1597,-3.2525,-3.3586,-3.4521,-3.5314,-3.6035,-3.6035,-3.6035,-3.6035,-3.6035,-3.6035,-3.6035,-3.5742,-3.541,-3.4863,-3.4238,-3.3848,-3.3555,-3.3418,-3.3418,-3.3418,-3.3418,-3.3418,-3.3418,-3.3418,-3.3418,-3.3418,-3.3418,-3.3418,-3.3418,-3.3418,-3.3418,-3.3418,-3.3418,-3.3418,-3.3418,-3.3418,-3.3146,-3.2956,-3.2301,-3.1497,-2.9995,-2.8361,-2.8361,-2.8476,-2.6573,-2.5517,-2.561,-2.5206,-2.3888,-2.2838,-2.4636,-2.4636,-2.4636,-2.4636,-2.4636,-2.4636,-2.4636,-2.4636,-2.4636,-2.4636,-2.4636,-2.4636,-2.4636,-2.4636,-2.4636,-2.4676,-2.4716,-2.4743,-2.481,-2.4655,-2.4997,-2.5104,-2.5197,-2.5358,-2.5411,-2.5504,-2.5571,-2.5625,-2.5758,-2.5985,-2.6146,-2.6039,-2.64,-2.6547,-2.64,-2.6613,-2.672,-2.676,-2.6854,-2.6894,-2.6867,-2.6881,-2.6947,-2.7108,-2.7014,-2.6881,-2.7081,-2.7081,-2.6934,-2.6453,-2.6066,-2.5665,-2.5291,-2.4997,-2.4863,-2.4836,-2.4903,-2.489,-2.5012,-2.5653,-2.5686,-2.6161,-2.694,-2.9249,-3.1534,-3.3229,-3.4223,-3.5061,-3.5896,-3.6376,-3.6484,-3.6484,-3.6465,-3.6465,-3.6484,-3.6387,-3.6133,-3.5625,-3.4902,-3.4375,-3.4101,-3.3828,-3.3633,-3.3652,-3.3555,-3.3496,-3.3418,-3.3418,-3.2912,-3.2912,-3.3038,-3.3102,-3.3292,-3.3292,-3.3418,-3.3418,-3.3418,-3.3418,-3.3292,-3.3418,-3.3418,-3.2956,-3.2428,-3.1176,-2.9735,-2.8738,-2.7635,-2.7105,-2.6573,-2.6239,-2.5383,-2.5181,-2.4444,-2.34,-2.2929,-2.4636,-2.4636,-2.4636,-2.4636,-2.4636,-2.4636,-2.4636,-2.4636,-2.4636,-2.4636,-2.4636,-2.4636,-2.4636,-2.4636,-2.4562,-2.4716,-2.4917,-2.497,-2.5117,-2.5237,-2.5411,-2.5504,-2.5438,-2.5598,-2.5692,-2.5798,-2.5879,-2.5945,-2.6106,-2.6293,-2.6373,-2.6293,-2.652,-2.6466,-2.6466,-2.672,-2.6867,-2.6894,-2.7068,-2.7121,-2.7094,-2.6961,-2.6947,-2.7068,-2.7028,-2.6881,-2.6934,-2.6747,-2.6466,-2.6092,-2.6012,-2.5758,-2.5438,-2.5331,-2.5304,-2.5304,-2.5237,-2.5211,-2.5513,-2.6074,-2.6734,-2.8237,-2.964,-3.09,-3.2299,-3.3606,-3.4678,-3.554,-3.6263,-3.6697,-3.6914,-3.6914,-3.6914,-3.6914,-3.6875,-3.668,-3.6484,-3.5742,-3.4961,-3.4648,-3.4394,-3.4199,-3.3984,-3.3848,-3.3711,-3.3594,-3.3457,-3.3102,-3.1873,-3.1552,-3.2001,-3.2256,-3.3019,-3.3146,-3.3019,-3.2619,-3.2237,-3.2683,-3.2746,-3.3019,-3.3292,-3.2091,-3.0854,-2.9148,-2.7701,-2.6839,-2.5771,-2.4385,-2.406,-2.4655,-2.4723,-2.4249,-2.3924,-2.3052,-2.2916,-2.4636,-2.4636,-2.4636,-2.4636,-2.4636,-2.4636,-2.4636,-2.4636,-2.4636,-2.4636,-2.4636,-2.4636,-2.4636,-2.4636,-2.4562,-2.4823,-2.509,-2.5224,-2.5438,-2.5638,-2.5879,-2.6026,-2.5999,-2.5945,-2.6146,-2.6266,-2.6186,-2.6239,-2.6373,-2.6386,-2.6386,-2.64,-2.64,-2.6453,-2.656,-2.6841,-2.6987,-2.7041,-2.7281,-2.7335,-2.7241,-2.7041,-2.6987,-2.7081,-2.7028,-2.6907,-2.6974,-2.6814,-2.656,-2.6172,-2.5919,-2.5718,-2.5518,-2.5464,-2.5491,-2.5491,-2.5478,-2.5518,-2.59,-2.6523,-2.7633,-2.9047,-2.9896,-3.0172,-3.2826,-3.4037,-3.3875,-3.4735,-3.6451,-3.7059,-3.7148,-3.7129,-3.7129,-3.7148,-3.6836,-3.6543,-3.6152,-3.5547,-3.5019,-3.4687,-3.4531,-3.4512,-3.4355,-3.4336,-3.4173,-3.3895,-3.3682,-3.2531,-3.1291,-2.9896,-3.0514,-3.0703,-3.1027,-3.1083,-3.0531,-3.0401,-3.0466,-3.1047,-3.1899,-3.2492,-3.2492,-3.0725,-2.9148,-2.7966,-2.6639,-2.5248,-2.406,-2.3133,-2.2859,-2.3597,-2.3461,-2.3065,-2.2859,-2.2859,-2.2832,-2.4636,-2.4636,-2.4636,-2.4636,-2.4636,-2.4636,-2.4636,-2.4636,-2.4636,-2.4636,-2.4649,-2.469,-2.469,-2.469,-2.4703,-2.493,-2.5211,-2.5585,-2.5825,-2.6106,-2.6386,-2.6547,-2.66,-2.6587,-2.656,-2.6493,-2.6413,-2.6373,-2.6386,-2.64,-2.64,-2.64,-2.644,-2.6507,-2.6787,-2.7014,-2.7121,-2.7134,-2.7255,-2.7335,-2.7201,-2.7014,-2.7094,-2.7094,-2.7028,-2.6987,-2.7121,-2.7068,-2.6814,-2.6493,-2.5999,-2.5852,-2.5758,-2.5758,-2.5732,-2.5745,-2.5758,-2.5745,-2.5782,-2.5899,-2.6906,-2.7839,-2.8295,-2.9947,-3.2662,-3.352,-3.3353,-3.4286,-3.6036,-3.6893,-3.6893,-3.7339,-3.7339,-3.6598,-3.6234,-3.6316,-3.5879,-3.548,-3.5148,-3.4817,-3.4817,-3.4817,-3.4719,-3.4719,-3.4417,-3.4154,-3.3208,-3.1945,-3.0568,-2.8993,-2.8305,-2.7973,-2.7675,-2.7646,-2.8213,-2.8558,-2.8952,-2.9344,-3.0254,-3.1304,-3.1497,-2.9279,-2.79,-2.7437,-2.6121,-2.4385,-2.3597,-2.2996,-2.2859,-2.2859,-2.2859,-2.2859,-2.2859,-2.2859,-2.2859,-2.4636,-2.4636,-2.4636,-2.4636,-2.4636,-2.4636,-2.4636,-2.4636,-2.4636,-2.4636,-2.4716,-2.4903,-2.4997,-2.4997,-2.4997,-2.5224,-2.5665,-2.6012,-2.636,-2.6667,-2.6907,-2.7081,-2.7081,-2.6907,-2.6653,-2.652,-2.644,-2.6413,-2.64,-2.64,-2.64,-2.64,-2.64,-2.644,-2.6507,-2.6747,-2.6974,-2.7041,-2.7041,-2.7068,-2.7081,-2.7028,-2.7201,-2.7148,-2.6987,-2.6907,-2.6854,-2.6667,-2.652,-2.6373,-2.6279,-2.6172,-2.6132,-2.6106,-2.6106,-2.6079,-2.6092,-2.6092,-2.6079,-2.6079,-2.6895,-2.7453,-2.8274,-2.9579,-3.1572,-3.2568,-3.2751,-3.3426,-3.4785,-3.5467,-3.5834,-3.7001,-3.7181,-3.5103,-3.4035,-3.5224,-3.5659,-3.5538,-3.5365,-3.5269,-3.5269,-3.5133,-3.4901,-3.4576,-3.406,-3.3468,-3.2178,-3.0767,-2.8571,-2.7369,-2.6384,-2.5736,-2.5106,-2.6261,-2.7584,-2.7519,-2.7768,-2.8098,-2.8361,-2.9083,-2.8886,-2.737,-2.6306,-2.6373,-2.5196,-2.3461,-2.2928,-2.2859,-2.2859,-2.2859,-2.2859,-2.2859,-2.2859,-2.2859,-2.2859]},{"header":{"parameterUnit":"m.s-1","parameterCategory":1,"la1":31.0,"la2":29.5877,"lo1":-88.7671,"lo2":-86.6584,"dx":0.0162,"dy":0.0185,"nx":115,"ny":88,"refTime":"2022-11-28T06:00:00:Z","depth":0,"parameterNumber":3,"parameterNumberName":"V-component_of_WINDS"},"data":[0.0,0.0,0.0,0.0,0.0,0.0,0.0,0.0,0.0,0.0,0.0,0.0,0.0,0.0,0.0,0.0,0.0,0.0,0.0,0.0,0.0,0.0,0.0,0.0,0.0,0.0,0.0,0.0,0.0,0.0,0.0,0.0,0.0,0.0,0.0,0.0,0.0,0.0,0.0,0.0,0.0,0.0,0.0,0.0,0.0,0.0,0.0,0.0,0.0,0.0,0.0,0.0,0.0,0.0,0.0,0.0,0.0,0.0,0.0,0.0,0.0,0.0,0.0,0.0,0.0,0.0,0.0,0.0,0.0,0.0,0.0,0.0,0.0,0.0,0.0,0.0,0.0,0.0,0.0,0.0,0.0,0.0,0.0,0.0,0.0,0.0,0.0,0.0,0.0,0.0,0.0,0.0,0.0,0.0,0.0,0.0,0.0,0.0,0.0,0.0,0.0,0.0,0.0,0.0,0.0,0.0,0.0,0.0,0.0,0.0,0.0,0.0,0.0,0.0,0.0,0.0,0.0,0.0,0.0,0.0,0.0,0.0,0.0,0.0,0.0,0.0,0.0,0.0,0.0,0.0,0.0,0.0,0.0,0.0,0.0,0.0,0.0,0.0,0.0,0.0,0.0,0.0,0.0,0.0,0.0,0.0,0.0,0.0,0.0,0.0,0.0,0.0,0.0,0.0,0.0,0.0,0.0,0.0,0.0,0.0,0.0,0.0,0.0,0.0,0.0,0.0,0.0,0.0,0.0,0.0,0.0,0.0,0.0,0.0,0.0,0.0,0.0,0.0,0.0,0.0,0.0,0.0,0.0,0.0,0.0,0.0,0.0,0.0,0.0,0.0,0.0,0.0,0.0,0.0,0.0,0.0,0.0,0.0,0.0,0.0,0.0,0.0,0.0,0.0,0.0,0.0,0.0,0.0,0.0,0.0,0.0,0.0,0.0,0.0,0.0,0.0,0.0,0.0,0.0,0.0,0.0,0.0,0.0,0.0,0.0,0.0,0.0,0.0,0.0,0.0,0.0,0.0,0.0,0.0,0.0,0.0,0.0,0.0,0.0,0.0,0.0,0.0,0.0,0.0,0.0,0.0,0.0,0.0,0.0,0.0,0.0,0.0,0.0,0.0,0.0,0.0,0.0,0.0,0.0,0.0,0.0,0.0,0.0,0.0,0.0,0.0,0.0,0.0,0.0,0.0,0.0,0.0,0.0,0.0,0.0,0.0,0.0,0.0,0.0,0.0,0.0,0.0,0.0,0.0,0.0,0.0,0.0,0.0,0.0,0.0,0.0,0.0,0.0,0.0,0.0,0.0,0.0,0.0,0.0,0.0,0.0,0.0,0.0,0.0,0.0,0.0,0.0,0.0,0.0,0.0,0.0,0.0,0.0,0.0,0.0,0.0,0.0,0.0,0.0,0.0,0.0,0.0,0.0,0.0,0.0,0.0,0.0,0.0,0.0,0.0,0.0,0.0,0.0,0.0,0.0,0.0,0.0,0.0,0.0,0.0,0.0,0.0,0.0,0.0,0.0,0.0,0.0,0.0,0.0,0.0,0.0,0.0,0.0,0.0,0.0,0.0,0.0,0.0,0.0,0.0,0.0,0.0,0.0,0.0,0.0,0.0,0.0,0.0,0.0,0.0,0.0,0.0,0.0,0.0,0.0,0.0,0.0,0.0,0.0,0.0,0.0,0.0,0.0,0.0,0.0,0.0,0.0,0.0,0.0,0.0,0.0,0.0,0.0,0.0,0.0,0.0,0.0,0.0,0.0,0.0,0.0,0.0,0.0,0.0,0.0,0.0,0.0,0.0,0.0,0.0,0.0,0.0,0.0,0.0,0.0,0.0,0.0,0.0,0.0,0.0,0.0,0.0,0.0,0.0,0.0,0.0,0.0,0.0,0.0,0.0,0.0,0.0,0.0,0.0,0.0,0.0,0.0,0.0,0.0,0.0,0.0,0.0,0.0,0.0,0.0,0.0,0.0,0.0,0.0,0.0,0.0,0.0,0.0,0.0,0.0,0.0,0.0,0.0,0.0,0.0,0.0,0.0,0.0,0.0,0.0,0.0,0.0,0.0,0.0,0.0,0.0,0.0,0.0,0.0,0.0,0.0,0.0,0.0,0.0,0.0,0.0,0.0,0.0,0.0,0.0,0.0,0.0,0.0,0.0,0.0,0.0,0.0,0.0,0.0,0.0,0.0,0.0,0.0,0.0,0.0,0.0,0.0,0.0,0.0,0.0,0.0,0.0,0.0,0.0,0.0,0.0,0.0,0.0,0.0,0.0,0.0,0.0,0.0,0.0,0.0,0.0,0.0,0.0,0.0,0.0,0.0,0.0,0.0,0.0,0.0,0.0,0.0,0.0,0.0,0.0,0.0,0.0,0.0,0.0,0.0,0.0,0.0,0.0,0.0,0.0,0.0,0.0,0.0,0.0,0.0,0.0,0.0,0.0,0.0,0.0,0.0,0.0,0.0,0.0,0.0,0.0,0.0,0.0,0.0,0.0,0.0,0.0,0.0,0.0,0.0,0.0,0.0,0.0,0.0,0.0,0.0,0.0,0.0,0.0,0.0,0.0,0.0,0.0,0.0,0.0,0.0,0.0,0.0,0.0,0.0,0.0,0.0,0.0,0.0,0.0,0.0,0.0,0.0,0.0,0.0,0.0,0.0,0.0,0.0,0.0,0.0,0.0,0.0,0.0,0.0,0.0,0.0,0.0,0.0,0.0,0.0,0.0,0.0,0.0,0.0,0.0,0.0,0.0,0.0,0.0,0.0,0.0,0.0,0.0,0.0,0.0,0.0,0.0,0.0,0.0,0.0,0.0,0.0,0.0,0.0,0.0,0.0,0.0,0.0,0.0,0.0,0.0,0.0,0.0,0.0,0.0,0.0,0.0,0.0,0.0,0.0,0.0,0.0,0.0,0.0,0.0,0.0,0.0,0.0,0.0,0.0,0.0,0.0,0.0,0.0,0.0,0.0,0.0,0.0,0.0,0.0,0.0,0.0,0.0,0.0,0.0,0.0,0.0,0.0,0.0,0.0,0.0,0.0,0.0,0.0,0.0,0.0,0.0,0.0,0.0,0.0,0.0,0.0,0.0,0.0,0.0,0.0,0.0,0.0,0.0,0.0,0.0,0.0,0.0,0.0,0.0,0.0,0.0,0.0,0.0,0.0,0.0,0.0,0.0,0.0,0.0,0.0,0.0,0.0,0.0,0.0,0.0,0.0,0.0,0.0,0.0,0.0,0.0,0.0,0.0,0.0,0.0,0.0,0.0,0.0,0.0,0.0,0.0,0.0,0.0,0.0,0.0,0.0,0.0,0.0,0.0,0.0,0.0,0.0,0.0,0.0,0.0,0.0,0.0,0.0,0.0,0.0,0.0,0.0,0.0,0.0,0.0,0.0,0.0,0.0,0.0,0.0,0.0,0.0,0.0,0.0,0.0,0.0,0.0,0.0,0.0,0.0,0.0,0.0,0.0,0.0,0.0,0.0,0.0,0.0,0.0,0.0,0.0,0.0,0.0,0.0,0.0,0.0,0.0,0.0,0.0,0.0,0.0,0.0,0.0,0.0,0.0,0.0,0.0,0.0,0.0,0.0,0.0,0.0,0.0,0.0,0.0,0.0,0.0,0.0,0.0,0.0,0.0,0.0,0.0,0.0,0.0,0.0,0.0,0.0,0.0,0.0,0.0,0.0,0.0,0.0,0.0,0.0,0.0,0.0,0.0,0.0,0.0,0.0,0.0,0.0,0.0,0.0,0.0,0.0,0.0,0.0,0.0,0.0,0.0,0.0,0.0,0.0,0.0,0.0,0.0,0.0,0.0,0.0,0.0,0.0,0.0,0.0,0.0,0.0,0.0,0.0,0.0,0.0,0.0,0.0,0.0,0.0,0.0,0.0,0.0,0.0,0.0,0.0,0.0,0.0,0.0,0.0,0.0,0.0,0.0,0.0,0.0,0.0,0.0,0.0,0.0,0.0,0.0,0.0,0.0,0.0,0.0,0.0,0.0,0.0,0.0,0.0,0.0,0.0,0.0,0.0,0.0,0.0,0.0,0.0,0.0,0.0,0.0,0.0,0.0,0.0,0.0,0.0,0.0,0.0,0.0,0.0,0.0,0.0,0.0,0.0,0.0,0.0,0.0,0.0,0.0,0.0,0.0,0.0,0.0,0.0,0.0,0.0,0.0,0.0,0.0,0.0,0.0,0.0,0.0,0.0,0.0,0.0,0.0,0.0,0.0,0.0,0.0,0.0,0.0,0.0,0.8804,0.0,0.0,0.0,0.8606,0.0,0.0,0.0,0.0,0.0,0.0,0.0,0.0,0.0,0.0,0.0,0.0,0.0,0.0,0.0,0.0,0.0,0.0,0.0,0.0,0.0,0.0,0.0,0.0,0.0,0.0,0.0,0.0,0.0,0.0,0.0,0.0,0.0,0.0,0.0,0.0,0.0,0.0,0.0,0.0,0.0,0.0,0.0,0.0,0.0,0.0,0.0,0.0,0.0,0.0,0.0,0.0,0.0,0.0,0.0,0.0,0.0,0.0,0.0,0.0,0.0,0.0,0.0,0.0,0.0,0.0,0.0,0.0,0.0,0.0,0.0,0.0,0.0,0.0,0.0,0.0,0.0,0.0,0.0,0.0,0.0,0.0,0.0,0.0,0.0,0.0,0.0,0.0,0.0,0.0,0.0,0.0,0.0,0.0,0.0,0.0,0.0,0.0,0.0,0.0,0.0,0.0,0.0,0.0,0.0,0.0,0.0,0.0,0.0,0.0,0.8904,0.9286,0.8189,0.7826,0.8334,0.0,0.0,0.0,0.0,0.0,0.0,0.0,0.0,0.0,0.0,0.0,0.0,0.0,0.0,0.0,0.0,0.0,0.0,0.0,0.0,0.0,0.0,0.0,0.0,0.0,0.0,0.0,0.0,0.0,0.0,0.0,0.0,0.0,0.0,0.0,0.0,0.0,0.0,0.0,0.0,0.0,0.0,0.0,0.0,0.0,0.0,0.0,0.0,0.0,0.0,0.0,0.0,0.0,0.0,0.0,0.0,0.0,0.0,0.0,0.0,0.0,0.0,0.0,0.0,0.0,0.0,0.0,0.0,0.0,0.0,0.0,0.0,0.0,0.0,0.0,0.0,0.0,0.0,0.0,0.0,0.0,0.0,0.0,0.0,0.0,0.0,0.0,0.0,0.0,0.0,0.0,0.0,0.0,0.0,0.0,0.0,0.0,0.0,0.0,0.0,0.0,0.0,0.0,0.0,0.0,0.0,0.0,0.0,0.0,0.0,0.0,0.0,0.8809,0.8241,0.8285,0.0,0.0,0.0,0.0,0.0,0.0,0.0,0.0,0.0,0.0,0.0,0.0,0.0,0.0,0.0,0.0,0.0,0.0,0.0,0.0,0.0,0.0,0.0,0.0,0.0,0.0,0.0,0.0,0.0,0.0,0.0,0.0,0.0,0.0,0.0,0.0,0.0,0.0,0.0,0.0,0.0,0.0,0.0,0.0,0.0,0.0,0.0,0.0,0.0,0.0,0.0,0.0,0.0,0.0,0.0,0.0,0.0,0.0,0.0,0.0,0.0,0.0,0.0,0.0,0.0,0.0,0.0,0.0,0.0,0.0,0.0,0.0,0.0,0.0,0.0,0.0,0.0,0.0,0.0,0.0,0.0,0.0,0.0,0.0,0.0,0.0,0.0,0.0,0.0,0.0,0.0,0.0,0.0,0.0,0.0,0.0,0.0,0.0,0.0,0.0,0.0,0.0,0.0,0.0,0.0,0.0,0.0,0.0,0.0,0.0,0.9827,0.9875,0.9411,0.0,0.9368,0.0,0.0,0.0,0.0,0.0,0.0,0.0,0.0,0.0,0.0,0.0,0.0,0.0,0.0,0.0,0.0,0.0,0.0,0.0,0.0,0.0,0.0,0.0,0.0,0.0,0.0,0.0,0.0,0.0,0.0,0.0,0.0,0.0,0.0,0.0,0.0,0.0,0.0,0.0,0.0,0.0,0.0,0.0,0.0,0.0,0.0,0.0,0.0,0.0,0.0,0.0,0.0,0.0,0.0,0.0,0.0,0.0,0.0,0.0,0.0,0.0,0.0,0.0,0.0,0.0,0.0,0.0,0.0,0.0,0.0,0.0,0.0,0.0,0.0,0.0,0.0,0.0,0.0,0.0,0.0,0.0,0.0,0.0,0.0,0.0,0.0,0.0,0.0,0.0,0.0,0.0,0.0,0.0,0.0,0.0,0.0,0.0,0.0,0.0,0.0,0.0,0.0,0.0,0.0,0.0,0.0,0.0,0.0,0.0,0.0,1.0054,1.0434,1.0026,0.9726,0.0,0.0,0.0,0.0,0.0,0.0,0.0,0.0,0.0,0.0,0.0,0.0,0.0,0.0,0.0,0.0,0.0,0.0,0.0,0.0,0.0,0.0,0.0,0.0,0.0,0.0,0.0,0.0,0.0,0.0,0.0,0.0,0.0,0.0,0.0,0.0,0.0,0.0,0.0,0.0,0.0,0.0,0.0,0.0,0.0,0.0,0.0,0.0,0.0,0.0,0.0,0.0,0.0,0.0,0.0,0.0,0.0,0.0,0.0,0.0,0.0,0.0,0.0,0.0,0.0,0.0,0.0,0.0,0.0,0.0,0.0,0.0,0.0,0.0,0.0,0.0,0.0,0.0,0.0,0.0,0.0,0.0,0.0,0.0,0.0,0.0,0.0,0.0,0.0,0.0,0.0,0.0,0.0,0.0,0.0,0.0,0.0,0.0,0.0,0.0,0.0,0.0,0.0,0.0,0.0,0.0,0.0,0.0,0.0,0.0,1.0218,1.0541,1.1088,1.0859,1.0567,1.028,0.0,0.0,0.0,0.0,0.0,0.0,0.0,0.0,0.0,0.0,0.0,0.0,0.0,0.0,0.0,0.0,0.0,0.0,0.0,0.0,0.0,0.0,0.0,0.0,0.0,0.0,0.0,0.0,0.0,0.0,0.0,0.0,0.0,0.0,0.0,0.0,0.0,0.0,0.0,0.0,0.0,0.0,0.0,0.0,0.0,0.0,0.0,0.0,0.0,0.0,0.0,0.0,0.0,0.0,0.0,0.0,0.0,0.0,0.0,0.0,0.0,0.0,0.0,0.0,0.0,0.0,0.0,0.0,0.0,0.0,0.0,0.0,0.0,0.0,0.0,0.0,0.0,0.0,0.0,0.0,0.0,0.0,0.0,0.0,0.0,0.0,0.0,0.0,0.0,0.0,0.0,0.0,0.0,0.0,0.0,0.0,0.0,0.0,0.0,0.0,0.0,0.0,0.0,0.0,0.0,0.0,0.0,0.0,1.0723,1.1003,1.1399,1.1901,1.1934,1.2014,0.0,0.0,0.0,0.0,0.0,0.0,0.0,0.0,0.0,0.0,0.0,0.0,0.0,0.0,0.0,0.0,0.0,0.0,0.0,0.0,0.0,0.0,0.0,0.0,0.0,0.0,0.0,0.0,0.0,0.0,0.0,0.0,0.0,0.0,0.0,0.0,0.0,0.0,0.0,0.0,0.0,0.0,0.0,0.0,0.0,0.0,0.0,0.0,0.0,0.0,0.0,0.0,0.0,0.0,0.0,0.0,0.0,0.0,0.0,0.0,0.0,0.0,0.0,0.0,0.0,0.0,0.0,0.0,0.0,0.0,0.0,0.0,0.0,0.0,0.0,0.0,0.0,0.0,0.0,0.0,0.0,0.0,0.0,0.0,0.0,0.0,0.0,0.0,0.0,0.0,0.0,0.0,0.0,0.0,0.0,0.0,0.0,0.0,0.0,0.0,0.0,0.0,0.0,0.0,0.0,0.0,0.0,0.0,0.0,1.0812,1.1313,1.1827,1.2338,1.2398,1.2361,0.0,0.0,0.0,0.0,0.0,0.0,0.0,0.0,0.0,0.0,0.0,0.0,0.0,0.0,0.0,0.0,0.0,0.0,0.0,0.0,0.0,0.0,0.0,0.0,0.0,0.0,0.0,0.0,0.0,0.0,0.0,0.0,0.0,0.0,0.0,0.0,0.0,0.0,0.0,0.0,0.0,0.0,0.0,0.0,0.0,0.0,0.0,0.0,0.0,0.0,0.0,0.0,0.0,0.0,0.0,0.0,0.0,0.0,0.0,0.0,0.0,0.0,0.0,0.0,0.0,0.0,0.0,0.0,0.0,0.0,0.0,0.0,0.0,0.0,0.0,0.0,0.0,0.0,0.0,0.0,0.0,0.0,0.0,0.0,0.0,0.0,0.0,0.0,0.0,0.0,0.0,0.0,0.0,0.0,0.0,0.0,0.0,0.0,0.0,0.0,0.0,0.0,0.0,0.0,0.0,0.0,0.0,0.0,0.0,1.1361,1.1912,1.2422,1.2843,1.2862,1.2785,0.0,0.0,0.0,0.0,0.0,0.0,0.0,0.0,0.0,0.0,0.0,0.0,0.0,0.0,0.0,0.0,0.0,0.0,0.0,0.0,0.0,0.0,0.0,0.0,0.0,0.0,0.0,0.0,0.0,0.0,0.0,0.0,0.0,0.0,0.0,0.0,0.0,0.0,0.0,0.0,0.0,0.0,0.0,0.0,0.0,0.0,0.0,0.0,0.0,0.0,0.0,0.0,0.0,0.0,0.0,0.0,0.0,0.0,0.0,0.0,0.0,0.0,0.0,0.0,0.0,0.0,0.0,0.0,0.0,0.0,0.0,0.0,0.0,0.0,0.0,0.0,0.0,0.0,0.0,0.0,0.0,0.0,0.0,0.0,0.0,0.0,0.0,0.0,0.0,0.0,0.0,0.0,0.0,0.0,0.0,0.0,0.0,0.0,0.0,0.0,0.0,0.0,0.0,0.0,0.0,0.0,0.0,0.0,1.1442,1.2566,1.289,1.3175,1.3388,1.3413,1.3396,0.0,0.0,0.0,0.0,0.0,0.0,0.0,0.0,0.0,0.0,0.0,0.0,0.0,0.0,0.0,0.0,0.0,0.0,0.0,0.0,0.0,0.0,0.0,0.0,0.0,0.0,0.0,0.0,0.0,0.0,0.0,0.0,0.0,0.0,0.0,0.0,0.0,0.0,0.0,0.0,0.0,0.0,0.0,0.0,0.0,0.0,0.0,0.0,0.0,0.0,0.0,0.0,0.0,0.0,0.0,0.0,0.0,0.0,0.0,0.0,0.0,0.0,0.0,0.0,0.0,0.0,0.0,0.0,0.0,0.0,0.0,0.0,0.0,0.0,0.0,0.0,0.0,0.0,0.0,0.0,0.0,0.0,0.0,0.0,0.0,0.0,0.0,0.0,0.0,0.0,0.0,0.0,0.0,0.0,0.0,0.0,0.0,0.0,0.0,0.0,0.0,0.0,0.0,0.0,0.0,0.0,0.0,0.0,0.0,1.41,1.4206,1.4132,1.3903,1.4379,1.4254,0.0,0.0,0.0,0.0,0.0,0.0,0.0,0.0,0.0,0.0,0.0,0.0,0.0,0.0,0.0,0.0,0.0,0.0,0.0,0.0,0.0,0.0,0.0,0.0,0.0,0.0,0.0,0.0,0.0,0.0,0.0,0.0,0.0,0.0,0.0,0.0,0.0,0.0,0.0,0.0,0.0,0.0,0.0,0.0,0.0,0.0,0.0,0.0,0.0,0.0,0.0,0.0,0.0,0.0,0.0,0.0,0.0,0.0,0.0,0.0,0.0,0.0,0.0,0.0,0.0,0.0,0.0,0.0,0.0,0.0,0.0,0.0,0.0,0.0,0.0,0.0,0.0,0.0,0.0,0.0,0.0,0.0,0.0,0.0,0.0,0.0,0.0,0.0,0.0,0.0,0.0,0.0,0.0,0.0,0.0,0.0,0.0,0.0,0.0,0.0,0.0,0.0,0.0,0.0,0.0,0.0,0.0,0.0,0.0,1.7167,1.6616,1.6188,1.5896,1.6364,1.5714,1.3904,0.0,0.0,0.0,0.0,0.0,0.0,0.0,0.0,0.0,0.0,0.0,0.0,0.0,0.0,0.0,0.0,0.0,0.0,0.0,0.0,0.0,0.0,0.0,0.0,0.0,0.0,0.0,0.0,0.0,0.0,0.0,0.0,0.0,0.0,0.0,0.0,0.0,0.0,0.0,0.0,0.0,0.0,0.0,0.0,0.0,0.0,0.0,0.0,0.0,0.0,0.0,0.0,0.0,0.0,0.0,0.0,0.0,0.0,0.0,0.0,0.0,0.0,0.0,0.0,0.0,0.0,0.0,0.0,0.0,0.0,0.0,0.0,0.0,0.0,0.0,0.0,0.0,0.0,0.0,0.0,0.0,0.0,0.0,0.0,0.0,0.0,0.0,0.0,0.0,0.0,0.0,0.0,0.0,0.0,0.0,0.0,0.0,0.0,0.0,0.0,0.0,0.0,0.0,0.0,0.0,0.0,0.0,0.0,2.136,2.0107,1.935,1.9147,1.9046,1.7659,0.0,0.0,0.0,0.0,0.0,0.0,0.0,0.0,0.0,0.0,0.0,0.0,0.0,0.0,0.0,0.0,0.0,0.0,0.0,0.0,0.0,0.0,0.0,0.0,0.0,0.0,0.0,0.0,0.0,0.0,0.0,0.0,0.0,0.0,0.0,0.0,0.0,0.0,0.0,0.0,0.0,0.0,0.0,0.0,0.0,0.0,0.0,0.0,0.0,0.0,0.0,0.0,0.0,0.0,0.0,0.0,0.0,0.0,0.0,0.0,0.0,0.0,0.0,0.0,0.0,0.0,0.0,0.0,0.0,0.0,0.0,0.0,0.0,0.0,0.0,0.0,0.0,0.0,0.0,0.0,0.0,0.0,0.0,0.0,0.0,0.0,0.0,0.0,0.0,0.0,0.0,0.0,0.0,0.0,0.0,0.0,0.0,0.0,0.0,0.0,0.0,0.0,0.0,0.0,0.0,0.0,0.0,0.0,0.0,2.356,2.4831,2.4458,2.2293,2.1156,1.9464,0.0,0.0,0.0,0.0,0.0,0.0,0.0,0.0,0.0,0.0,0.0,0.0,0.0,0.0,0.0,0.0,0.0,0.0,0.0,0.0,0.0,0.0,0.0,0.0,0.0,0.0,0.0,0.0,0.0,0.0,0.0,0.0,0.0,0.0,0.0,0.0,0.0,0.0,0.0,0.0,0.0,0.0,0.0,0.0,0.0,0.0,0.0,0.0,0.0,0.0,0.0,0.0,0.0,0.0,0.0,0.0,0.0,0.0,0.0,0.0,0.0,0.0,0.0,0.0,0.0,0.0,0.0,0.0,0.0,0.0,0.0,0.0,0.0,0.0,0.0,0.0,0.0,0.0,0.0,0.0,0.0,0.0,0.0,0.0,0.0,0.0,0.0,0.0,0.0,0.0,0.0,0.0,0.0,0.0,0.0,0.0,0.0,0.0,0.0,0.0,0.0,0.0,0.0,0.0,0.0,0.0,0.0,0.0,2.3695,2.4982,2.8383,2.9194,2.7216,2.4169,2.138,0.0,0.0,0.0,0.0,0.0,0.0,0.0,0.0,0.0,0.0,0.0,0.0,0.0,0.0,0.0,0.0,0.0,0.0,0.0,0.0,0.0,0.0,0.0,0.0,0.0,0.0,0.0,0.0,0.0,0.0,0.0,0.0,0.0,0.0,0.0,0.0,0.0,0.0,0.0,0.0,0.0,0.0,0.0,0.0,0.0,0.0,0.0,0.0,0.0,0.0,0.0,0.0,0.0,0.0,0.0,0.0,0.0,0.0,0.0,0.0,0.0,0.0,0.0,0.0,0.0,0.0,0.0,0.0,0.0,0.0,0.0,0.0,0.0,0.0,0.0,0.0,0.0,0.0,0.0,0.0,0.0,0.0,0.0,0.0,0.0,0.0,0.0,0.0,0.0,0.0,0.0,0.0,0.0,0.0,0.0,0.0,0.0,0.0,0.0,0.0,0.0,0.0,0.0,0.0,0.0,0.0,0.0,0.0,2.5744,2.61,3.0866,3.3085,3.2293,2.7385,2.3318,0.0,0.0,0.0,0.0,0.0,0.0,0.0,0.0,0.0,0.0,0.0,0.0,0.0,0.0,0.0,0.0,0.0,0.0,0.0,0.0,0.0,0.0,0.0,0.0,0.0,0.0,0.0,0.0,0.0,0.0,0.0,0.0,0.0,0.0,0.0,0.0,0.0,0.0,0.0,0.0,0.0,0.0,0.0,0.0,0.0,0.0,0.0,0.0,0.0,0.0,0.0,0.0,0.0,0.0,0.0,0.0,0.0,0.0,0.0,0.0,0.0,0.0,0.0,0.0,0.0,0.0,0.0,0.0,0.0,0.0,0.0,0.0,0.0,0.0,0.0,0.0,0.0,0.0,0.0,0.0,0.0,0.0,0.0,0.0,0.0,0.0,0.0,0.0,0.0,0.0,0.0,0.0,0.0,0.0,0.0,0.0,0.0,0.0,0.0,0.0,0.0,0.0,0.0,0.0,0.0,0.0,0.0,0.0,2.6759,2.9127,3.1935,3.3322,3.3152,2.8305,2.472,0.0,0.0,0.0,0.0,0.0,0.0,0.0,0.0,0.0,0.0,0.0,0.0,0.0,0.0,0.0,0.0,0.0,0.0,0.0,0.0,0.0,0.0,0.0,0.0,0.0,0.0,0.0,0.0,0.0,0.0,0.0,0.0,0.0,0.0,0.0,0.0,0.0,0.0,0.0,0.0,0.0,0.0,0.0,0.0,0.0,0.0,0.0,0.0,1.4731,0.0,0.0,0.0,0.0,0.0,0.0,0.0,0.0,0.0,0.0,0.0,0.0,0.0,0.0,0.0,0.0,0.0,0.0,0.0,0.0,0.0,0.0,0.0,0.0,0.0,0.0,0.0,0.0,0.0,0.0,0.0,0.0,0.0,0.0,0.0,0.0,0.0,0.0,0.0,0.0,0.0,0.0,0.0,0.0,0.0,0.0,0.0,0.0,0.0,0.0,0.0,0.0,0.0,0.0,0.0,0.0,0.0,0.0,0.0,2.7925,3.0581,3.3119,3.4398,3.4158,3.0819,2.752,0.0,0.0,0.0,0.0,0.0,0.0,0.0,0.0,0.0,0.0,0.0,0.0,0.0,0.0,0.0,0.0,0.0,0.0,0.0,0.0,0.0,0.0,0.0,0.0,0.0,0.0,0.0,0.0,0.0,0.0,0.0,0.0,0.0,0.0,0.0,0.0,0.0,0.0,0.0,0.0,0.0,0.0,0.0,0.0,0.0,0.0,0.0,0.0,0.0,0.0,0.0,0.0,0.0,0.0,0.0,0.0,0.0,0.0,0.0,0.0,0.0,0.0,0.0,0.0,0.0,0.0,0.0,0.0,0.0,0.0,0.0,0.0,0.0,0.0,0.0,0.0,0.0,0.0,0.0,0.0,0.0,0.0,0.0,0.0,0.0,0.0,0.0,0.0,0.0,0.0,0.0,0.0,0.0,0.0,0.0,0.0,0.0,0.0,0.0,0.0,0.0,0.0,0.0,0.0,0.0,0.0,0.0,2.6264,2.929,3.2076,3.4559,3.5749,3.5551,3.3547,3.0377,2.6102,0.0,0.0,0.0,0.0,0.0,0.0,0.0,0.0,0.0,0.0,0.0,0.0,0.0,0.0,0.0,0.0,0.0,0.0,0.0,0.0,0.0,0.0,0.0,0.0,0.0,0.0,0.0,0.0,0.0,0.0,0.0,0.0,0.0,0.0,0.0,0.0,0.0,0.0,1.192,1.27,0.0,0.0,0.0,0.0,0.0,0.0,0.0,0.0,1.6164,0.0,0.0,0.0,0.0,0.0,0.0,0.0,0.0,0.0,0.0,0.0,0.0,0.0,0.0,0.0,0.0,0.0,0.0,0.0,0.0,0.0,0.0,0.0,0.0,0.0,0.0,0.0,0.0,0.0,0.0,0.0,0.0,0.0,0.0,0.0,0.0,0.0,0.0,0.0,0.0,0.0,0.0,0.0,0.0,0.0,0.0,0.0,0.0,0.0,0.0,0.0,0.0,0.0,0.0,0.0,0.0,2.6546,2.787,3.0975,3.6082,3.6696,3.6946,3.6795,3.4348,3.126,2.7627,0.0,0.0,0.0,0.0,0.0,0.0,0.0,0.0,0.0,0.0,0.0,0.0,0.0,0.0,0.0,0.0,0.0,0.0,0.0,0.0,0.0,0.0,0.0,0.0,0.0,0.0,0.0,0.0,0.0,0.0,0.0,0.0,0.0,0.0,0.0,0.0,0.0,0.0,0.0,1.5386,1.5733,0.0,0.0,0.0,0.0,0.0,0.0,0.0,0.0,1.8302,0.0,0.0,0.0,0.0,0.0,0.0,0.0,0.0,0.0,0.0,0.0,0.0,0.0,0.0,0.0,0.0,0.0,0.0,0.0,0.0,0.0,0.0,0.0,0.0,0.0,0.0,0.0,0.0,0.0,0.0,0.0,0.0,0.0,0.0,0.0,0.0,0.0,0.0,0.0,0.0,0.0,0.0,0.0,0.0,0.0,0.0,0.0,0.0,0.0,0.0,0.0,0.0,0.0,0.0,0.0,2.7412,3.0015,3.3229,3.705,3.7192,3.7323,3.7524,3.5062,3.1981,0.0,0.0,0.0,0.0,0.0,0.0,0.0,0.0,0.0,0.0,0.0,0.0,0.0,0.0,0.0,0.0,0.0,0.0,0.0,0.0,0.0,0.0,0.0,0.0,0.0,0.0,0.0,0.0,0.0,0.0,0.0,0.0,0.0,0.0,0.0,0.0,0.0,0.0,0.0,0.0,1.7986,1.861,2.3043,0.0,0.0,0.0,0.0,0.0,0.0,2.1437,1.974,0.0,0.0,0.0,0.0,0.0,0.0,0.0,0.0,0.0,0.0,0.0,0.0,0.0,0.0,0.0,0.0,0.0,0.0,0.0,0.0,0.0,0.0,0.0,0.0,0.0,0.0,0.0,0.0,0.0,0.0,0.0,0.0,0.0,0.0,0.0,0.0,0.0,0.0,0.0,0.0,0.0,0.0,0.0,0.0,0.0,0.0,0.0,0.0,0.0,0.0,0.0,0.0,0.0,0.0,0.0,2.7746,3.1707,3.4958,3.7199,3.7469,3.7667,3.7976,3.523,3.2198,0.0,0.0,0.0,0.0,0.0,0.0,0.0,0.0,0.0,0.0,0.0,0.0,0.0,0.0,0.0,0.0,0.0,0.0,0.0,0.0,0.0,0.0,0.0,0.0,0.0,0.0,0.0,0.0,0.0,0.0,0.0,0.0,0.0,0.0,0.0,0.0,0.0,0.0,0.0,0.0,0.0,2.1702,2.6172,2.4914,0.0,0.0,0.0,0.0,2.4207,2.3373,0.0,0.0,0.0,0.0,0.0,0.0,0.0,0.0,0.0,0.0,0.0,0.0,0.0,0.0,0.0,0.0,0.0,0.0,0.0,0.0,0.0,0.0,0.0,0.0,0.0,0.0,0.0,0.0,0.0,0.0,0.0,0.0,0.0,0.0,0.0,0.0,0.0,0.0,0.0,0.0,0.0,0.0,0.0,0.0,0.0,0.0,0.0,0.0,0.0,0.0,0.0,0.0,0.0,0.0,0.0,0.0,2.8432,3.199,3.5113,3.7663,3.8283,3.8528,3.8538,3.4142,3.1212,0.0,0.0,0.0,0.0,0.0,0.0,0.0,0.0,0.0,0.0,0.0,0.0,0.0,0.0,0.0,0.0,0.0,0.0,0.0,0.0,0.0,0.0,0.0,0.0,0.0,0.0,0.0,0.0,0.0,0.0,0.0,0.0,0.0,0.0,0.0,0.0,0.0,0.0,0.0,0.0,0.0,2.3813,2.72,2.6219,2.5154,0.0,0.0,2.829,2.8326,2.9329,0.0,0.0,0.0,0.0,0.0,0.0,0.0,0.0,0.0,0.0,0.0,0.0,0.0,0.0,0.0,0.0,0.0,0.0,0.0,0.0,0.0,0.0,0.0,0.0,0.0,0.0,0.0,0.0,0.0,0.0,0.0,0.0,0.0,0.0,0.0,0.0,0.0,0.0,0.0,0.0,0.0,0.0,0.0,0.0,0.0,0.0,0.0,0.0,0.0,0.0,0.0,0.0,0.0,0.0,0.0,2.7105,2.9166,3.4042,3.7148,3.8312,3.8596,3.8689,3.8689,3.3954,3.1017,0.0,0.0,0.0,0.0,0.0,0.0,0.0,0.0,0.0,0.0,0.0,0.0,0.0,0.0,0.0,0.0,0.0,0.0,0.0,0.0,0.0,0.0,0.0,0.0,0.0,0.0,0.0,0.0,0.0,0.0,0.0,0.0,0.0,0.0,0.0,0.0,0.0,0.0,0.0,0.0,0.0,0.0,2.8191,2.8264,0.0,0.0,0.0,2.8546,2.7163,0.0,0.0,0.0,0.0,0.0,0.0,0.0,0.0,0.0,0.0,0.0,0.0,0.0,0.0,0.0,0.0,0.0,0.0,0.0,0.0,0.0,0.0,0.0,0.0,0.0,0.0,0.0,0.0,0.0,0.0,0.0,0.0,0.0,0.0,0.0,0.0,0.0,0.0,0.0,0.0,0.0,0.0,0.0,0.0,0.0,0.0,0.0,0.0,0.0,0.0,0.0,0.0,0.0,0.0,0.0,0.0,0.0,2.9582,3.5628,3.8825,3.8789,3.914,3.9239,3.8946,3.4871,0.0,0.0,0.0,0.0,0.0,0.0,0.0,0.0,0.0,0.0,0.0,0.0,0.0,0.0,0.0,0.0,0.0,0.0,0.0,0.0,0.0,0.0,0.0,0.0,0.0,0.0,0.0,1.0915,0.0,0.0,0.0,0.0,0.0,0.0,0.0,0.0,0.0,0.0,0.0,0.0,0.0,0.0,2.7849,2.8877,2.9879,3.0577,0.0,0.0,2.8803,2.742,3.0258,3.076,0.0,0.0,0.0,0.0,0.0,0.0,0.0,0.0,0.0,0.0,0.0,0.0,0.0,0.0,0.0,0.0,0.0,0.0,0.0,0.0,0.0,0.0,0.0,0.0,0.0,0.0,0.0,0.0,0.0,0.0,0.0,0.0,0.0,0.0,0.0,0.0,0.0,0.0,0.0,0.0,0.0,0.0,0.0,0.0,0.0,0.0,0.0,0.0,0.0,0.0,0.0,0.0,0.0,0.0,2.8281,2.9822,3.5894,3.91,3.91,4.0274,4.0581,3.9827,3.7294,3.4468,0.0,0.0,0.0,0.0,0.0,0.0,0.0,0.0,0.0,0.0,0.0,0.0,0.0,0.0,0.0,0.0,0.0,0.0,0.0,0.0,0.0,0.0,0.0,0.0,0.0,0.0,0.0,0.0,0.0,0.0,0.0,0.0,0.0,0.0,0.0,0.0,0.0,0.0,0.0,0.0,0.0,2.9721,2.9097,3.032,3.1604,0.0,3.1115,3.0577,3.1885,3.4247,3.4284,2.939,0.0,0.0,0.0,0.0,0.0,0.0,0.0,0.0,0.0,0.0,0.0,0.0,0.0,0.0,0.0,0.0,0.0,0.0,0.0,0.0,0.0,0.0,0.0,0.0,0.0,0.0,0.0,0.0,0.0,0.0,0.0,0.0,0.0,0.0,0.0,0.0,0.0,0.0,0.0,0.0,0.0,0.0,0.0,0.0,0.0,0.0,0.0,0.0,0.0,0.0,0.0,0.0,0.0,2.9532,3.1249,3.6753,3.982,4.0331,4.083,4.0965,4.0634,3.8285,3.5495,0.0,0.0,0.0,0.0,0.0,0.0,0.0,0.0,0.0,0.0,0.0,0.0,0.0,0.0,0.0,0.0,0.0,0.0,0.0,0.0,0.0,0.0,0.0,0.0,0.0,0.0,0.0,0.0,1.8977,1.941,1.7392,0.0,0.0,0.0,0.0,0.0,0.0,0.0,0.0,0.0,0.0,3.0051,3.1715,3.2485,0.0,0.0,3.2816,3.2265,3.1898,3.3476,3.3256,2.8962,2.8264,0.0,0.0,0.0,0.0,0.0,0.0,0.0,0.0,0.0,0.0,0.0,0.0,0.0,0.0,0.0,0.0,0.0,0.0,0.0,0.0,0.0,0.0,0.0,0.0,0.0,0.0,0.0,0.0,0.0,0.0,0.0,0.0,0.0,0.0,0.0,0.0,0.0,0.0,0.0,0.0,0.0,0.0,0.0,0.0,0.0,0.0,0.0,0.0,0.0,0.0,0.0,0.0,3.0626,3.2204,3.776,4.1001,4.1809,4.1809,4.1846,4.1756,3.9937,3.7404,0.0,0.0,0.0,0.0,0.0,0.0,0.0,0.0,0.0,0.0,0.0,0.0,0.0,0.0,0.0,0.0,0.0,0.0,0.0,0.0,0.0,0.0,0.0,0.0,0.0,0.0,0.0,0.0,2.1033,2.1465,1.9418,0.0,0.0,0.0,0.0,0.0,0.0,0.0,0.0,0.0,0.0,3.1262,3.2559,3.333,3.3733,3.3476,3.322,3.2742,3.1911,3.2706,3.2412,2.9377,0.0,0.0,0.0,0.0,0.0,0.0,0.0,0.0,0.0,0.0,0.0,0.0,0.0,0.0,0.0,0.0,0.0,0.0,0.0,0.0,0.0,0.0,0.0,0.0,0.0,0.0,0.0,1.6544,0.0,0.0,1.6741,0.0,0.0,0.0,0.0,0.0,0.0,0.0,0.0,0.0,0.0,0.0,0.0,0.0,0.0,0.0,0.0,0.0,0.0,0.0,0.0,0.0,0.0,3.1411,3.2291,3.8857,4.2616,4.3441,4.3478,4.3461,4.3424,4.2616,4.0671,3.7419,0.0,0.0,0.0,0.0,0.0,0.0,0.0,0.0,0.0,0.0,0.0,0.0,0.0,0.0,0.0,0.0,0.0,0.0,0.0,0.0,0.0,0.0,0.0,0.0,0.0,0.0,1.4217,1.7803,2.0878,0.0,0.0,0.0,0.0,0.0,0.0,0.0,0.0,0.0,2.5631,3.0858,3.3683,3.0785,3.2302,3.355,3.2803,3.2082,3.1801,3.2559,3.2619,3.2326,0.0,0.0,0.0,0.0,0.0,0.0,0.0,0.0,0.0,0.0,0.0,0.0,0.0,0.0,0.0,0.0,0.0,0.0,0.0,0.0,0.0,0.0,0.0,0.0,0.0,0.0,0.0,2.2126,2.2158,0.0,0.0,0.0,0.0,0.0,0.0,0.0,0.0,0.0,0.0,0.0,3.1197,3.1247,0.0,0.0,0.0,0.0,0.0,0.0,0.0,0.0,0.0,0.0,0.0,0.0,3.2825,3.506,4.0308,4.3754,4.5039,4.5076,4.5076,4.5076,4.4305,4.2139,3.8395,0.0,0.0,0.0,0.0,0.0,0.0,0.0,0.0,0.0,0.0,0.0,0.0,0.0,0.0,0.0,0.0,0.0,0.0,0.0,0.0,0.0,0.0,0.0,0.0,0.0,1.9704,0.0,0.0,0.0,0.0,0.0,0.0,0.0,0.0,0.0,0.0,2.6025,2.8081,2.9953,3.0675,3.1188,3.1702,3.2926,3.41,0.0,0.0,0.0,0.0,0.0,0.0,0.0,0.0,0.0,0.0,0.0,0.0,0.0,0.0,2.5873,2.3303,2.38,2.4505,2.4089,0.0,0.0,0.0,0.0,0.0,0.0,0.0,0.0,0.0,0.0,0.0,0.0,0.0,0.0,2.661,2.5652,2.6376,0.0,0.0,0.0,0.0,0.0,0.0,0.0,0.0,3.214,3.4064,3.5495,3.5495,3.5495,3.5459,3.4637,3.1419,0.0,0.0,0.0,0.0,0.0,0.0,0.0,0.0,3.4629,3.6817,4.1735,4.4966,4.625,4.603,4.603,4.6287,4.5553,4.3754,4.0875,3.7661,3.4468,0.0,0.0,0.0,0.0,0.0,0.0,0.0,0.0,0.0,0.0,0.0,0.0,0.0,0.0,0.0,0.0,0.0,0.0,0.0,0.0,0.0,0.0,0.0,2.3199,0.0,0.0,0.0,0.0,0.0,0.0,0.0,0.0,0.0,2.6686,2.8301,3.0136,3.1935,3.2045,3.2032,3.2155,0.0,0.0,0.0,0.0,0.0,0.0,0.0,3.2716,3.1701,3.1152,3.0923,3.1373,3.134,3.124,3.1255,0.0,0.0,2.6673,2.677,2.7393,2.7195,2.6654,2.6465,2.7362,2.7266,2.7281,0.0,0.0,0.0,0.0,2.9531,0.0,0.0,0.0,3.1959,2.9989,0.0,3.032,0.0,0.0,0.0,0.0,2.8338,3.2729,0.0,0.0,4.0267,4.1809,3.9056,3.8982,3.8946,3.8762,3.6582,3.5481,3.532,3.4302,0.0,0.0,0.0,0.0,0.0,0.0,3.678,3.7933,4.3204,4.6361,4.7113,4.6507,4.6434,4.7076,4.6397,4.559,4.4635,4.1662,3.9292,3.7566,3.158,0.0,0.0,0.0,0.0,0.0,0.0,0.0,0.0,0.0,0.0,0.0,0.0,0.0,0.0,0.0,0.0,0.0,0.0,0.0,0.0,2.4613,0.0,0.0,0.0,0.0,0.0,0.0,0.0,0.0,0.0,2.862,2.7236,3.0198,3.2302,3.1568,0.0,0.0,0.0,0.0,3.6354,3.3366,3.35,3.384,3.318,3.4202,3.5381,3.6157,0.0,0.0,3.7497,3.5469,3.3935,3.3918,3.4718,3.4243,3.0422,2.9625,2.9429,2.9411,2.9411,2.9268,2.9249,2.9576,2.9502,3.6105,0.0,0.0,0.0,0.0,3.1841,3.364,3.6583,3.6582,3.6083,3.5312,3.6193,0.0,0.0,0.0,0.0,0.0,0.0,3.7037,3.9056,4.0948,4.2506,4.3828,4.3828,4.3828,4.3791,4.313,4.28,4.28,4.2475,3.8763,3.1843,0.0,0.0,0.0,0.0,3.8946,4.258,4.592,4.8012,4.8857,4.9224,4.893,4.7957,4.7736,4.6985,4.559,4.4121,4.2323,4.012,3.6633,0.0,0.0,0.0,0.0,0.0,0.0,0.0,0.0,0.0,0.0,0.0,0.0,0.0,0.0,0.0,0.0,0.0,0.0,0.0,2.4659,2.7931,2.8798,0.0,0.0,0.0,0.0,0.0,0.0,0.0,0.0,0.0,3.1898,3.2192,3.2509,0.0,0.0,3.2719,3.1544,3.4394,3.6707,3.6927,3.7701,0.0,3.9606,3.8465,3.7494,3.7498,3.7627,3.7366,3.6316,3.6457,3.6707,3.6714,3.6982,3.6766,3.5774,3.5028,3.4688,3.4692,3.4456,3.4252,3.4212,3.441,3.4493,4.2221,3.9312,3.6588,3.5908,3.6612,3.6479,3.8271,4.1243,4.1486,4.0855,3.9738,4.1001,3.9056,3.4798,3.5128,0.0,0.0,0.0,4.0708,4.348,4.381,4.4819,4.6361,4.6691,4.6691,4.6397,4.7058,4.737,4.7334,4.6361,4.3387,3.8417,0.0,3.5422,3.6743,3.9423,4.2249,4.5149,4.7902,4.9407,4.961,5.0398,5.0325,4.9334,4.9297,4.8526,4.6911,4.6397,4.4984,4.2599,3.9937,3.6743,0.0,0.0,0.0,0.0,0.0,0.0,0.0,0.0,0.0,0.0,0.0,1.9655,1.8151,0.0,0.0,0.0,2.7039,2.8133,2.912,3.0431,0.0,0.0,0.0,0.0,0.0,0.0,0.0,2.9439,3.2926,3.5349,3.4871,3.4931,3.5004,3.5018,3.5165,3.5018,3.4394,0.0,3.9276,3.9606,4.0134,4.0835,4.1814,4.1163,4.0552,4.073,4.0313,3.9772,3.911,3.9491,3.9871,3.9813,3.9444,3.9084,3.9084,3.8618,3.7858,3.7082,3.6435,3.6049,3.6028,3.6219,3.64,4.7902,4.6782,4.0855,3.9974,4.247,4.1866,4.3223,4.5957,4.603,4.4415,4.1939,4.4782,4.28,3.7331,3.8117,0.0,4.1756,4.3277,4.5112,4.7223,4.7976,4.7939,4.7223,4.792,4.7902,4.7223,4.882,4.961,4.9463,4.7352,4.6581,4.7113,4.5039,4.3094,4.1552,4.4232,4.5847,4.6104,4.9114,5.0472,5.0088,5.0655,5.0986,5.0986,5.0912,5.0141,4.86,4.8379,4.7315,4.5149,4.2066,3.9937,3.8762,0.0,0.0,0.0,0.0,0.0,0.0,0.0,0.0,0.0,0.0,0.0,0.0,0.0,0.0,2.9866,3.1971,0.0,3.5078,3.2669,0.0,0.0,0.0,3.1641,3.377,3.4871,3.5408,3.5224,0.0,0.0,3.678,3.8138,3.9129,3.9276,4.0341,4.0545,3.9077,4.1392,4.2951,4.1525,4.1421,4.1479,4.1869,4.2649,4.3543,4.4178,4.4374,4.3664,4.3407,4.2926,4.2722,4.2492,4.1649,4.0769,4.0792,4.0202,3.9402,3.7384,3.6547,3.6062,3.622,3.6265,3.6535,4.8563,4.882,4.6654,4.548,4.5076,4.5498,4.6085,4.6856,4.7462,4.7278,4.6654,4.7369,4.6874,4.5516,4.6287,4.6617,4.6654,4.7701,4.8086,4.8049,4.8233,4.8196,4.8012,4.8233,4.8196,4.8103,4.9077,4.961,4.961,4.9627,4.9077,4.8086,4.8086,4.6379,4.3094,4.3698,4.5259,4.7719,4.9077,5.1242,5.4032,5.3188,5.2616,5.2616,5.205,5.1242,5.0215,4.8967,4.8343,4.8362,4.5883,4.3277,4.0618,3.656,0.0,0.0,0.0,0.0,0.0,0.0,0.0,0.0,0.0,2.4293,2.1538,0.0,2.9302,0.0,3.4746,3.7808,3.6964,3.7294,0.0,0.0,3.5459,3.5766,3.5716,3.805,3.893,3.7125,3.9239,4.0891,4.0891,4.1735,4.2854,4.3975,4.2379,4.0948,4.0655,4.2323,4.3587,4.3348,4.39,4.4437,4.4413,4.4341,4.4275,4.3838,4.3683,4.3347,4.2826,4.2108,4.1594,4.156,4.0905,4.0337,4.0362,3.9772,3.9199,3.8623,3.8734,3.9005,3.9029,3.8996,3.9039,4.9701,5.0105,4.9627,4.8893,4.8049,4.7792,4.7626,4.7663,4.8122,4.8306,4.8306,4.8306,4.8306,4.836,4.915,4.9297,4.8967,5.0124,5.0418,4.9994,5.0325,5.0288,4.9958,5.0325,5.0288,4.9994,5.0802,5.1206,5.1206,5.1316,5.1059,5.0508,5.0582,4.917,4.6342,4.5847,4.6361,4.7755,4.9297,5.1867,5.539,5.473,5.3775,5.2711,5.1903,5.0582,4.8673,4.7388,4.6581,4.6324,4.5039,4.3314,4.1168,3.7683,3.4527,0.0,0.0,0.0,0.0,0.0,0.0,0.0,0.0,0.0,0.0,0.0,3.2305,3.1875,3.6728,3.9255,3.7639,3.83,3.8652,3.8307,3.9056,3.9879,4.0487,4.2453,4.3113,4.1442,4.313,4.4305,4.3975,4.4364,4.5127,4.6345,4.5055,4.3855,4.3613,4.4834,4.5795,4.5587,4.6329,4.694,4.694,4.6401,4.5836,4.5405,4.5088,4.4756,4.435,4.3707,4.32,4.3132,4.232,4.1576,4.1542,4.0967,4.046,4.0527,4.0823,4.0587,3.9411,3.9106,3.9199,5.0949,5.0949,5.0839,5.0802,5.0692,4.926,4.8673,4.8783,4.8893,4.893,4.8911,4.893,4.893,4.8967,4.9701,5.0014,5.0014,5.1353,5.194,5.1867,5.2564,5.2527,5.1867,5.2564,5.2527,5.1903,5.2674,5.302,5.302,5.2417,5.2417,5.2858,5.2197,5.1022,4.9463,4.8783,4.8122,4.7443,4.9884,5.2491,5.5354,5.5045,5.3812,5.1793,5.0912,4.915,4.6361,4.5333,4.4195,4.2837,4.258,4.2213,4.1645,3.794,3.5848,0.0,3.1604,0.0,0.0,0.0,0.0,0.0,0.0,0.0,0.0,3.4784,3.5481,3.5885,3.8542,3.9806,3.8814,3.8814,4.0026,4.2837,4.324,4.4048,4.5957,4.6764,4.6819,4.614,4.6746,4.7003,4.6452,4.6521,4.6909,4.7501,4.752,4.7097,4.6632,4.7357,4.7938,4.7636,4.8051,4.805,4.8085,4.7785,4.7438,4.7444,4.6954,4.6786,4.6616,4.6041,4.5602,4.55,4.4384,4.3504,4.3436,4.2828,4.2354,4.2151,4.2151,4.1441,3.9445,3.887,3.8667,5.1756,5.172,5.1059,5.0802,5.0765,5.0472,5.0692,5.1353,5.2013,5.2249,5.2249,5.227,5.2307,5.2286,5.2454,5.216,5.1593,5.185,5.1646,5.1059,5.1169,5.1206,5.1059,5.1169,5.1169,5.1096,5.183,5.2197,5.2234,5.2747,5.238,5.1279,5.1096,5.0215,4.8673,0.0,0.0,0.0,5.1536,5.3371,5.4473,5.2013,5.0472,5.0051,4.9224,0.0,4.7829,4.6471,4.5553,4.5186,4.3975,0.0,0.0,0.0,0.0,0.0,0.0,0.0,0.0,0.0,0.0,0.0,3.5987,3.5569,3.4857,3.6156,3.8102,4.0634,4.1515,4.28,4.5076,4.5883,4.6764,4.7939,4.8159,4.8159,4.7939,4.7443,4.7039,4.6892,4.759,4.8306,4.8744,4.8992,4.9037,4.9068,4.8806,4.8207,4.7526,4.7701,4.7832,4.768,4.7541,4.7244,4.7153,4.7135,4.718,4.6927,4.6898,4.6819,4.6819,4.6278,4.5771,4.5771,4.4959,4.4181,4.3639,4.3274,4.3031,4.2455,4.232,4.2151,4.1576,4.1441,4.1508,5.2601,5.2564,5.216,5.1977,0.0,5.1977,5.2234,5.2564,5.2197,5.2013,5.2013,5.2013,5.1993,5.205,5.2417,5.238,5.2013,5.2417,5.238,5.2013,5.2013,5.1977,5.1977,5.1977,5.1993,5.2013,5.2417,5.2601,5.2637,5.2983,5.2763,5.1993,5.2013,5.1756,5.1389,5.2527,5.2747,5.1977,5.3188,5.4583,5.6014,5.4546,5.3115,5.2013,5.1169,0.0,0.0,0.0,0.0,0.0,0.0,0.0,0.0,4.3975,0.0,4.2837,4.1001,4.0194,4.0928,4.0671,4.1148,4.269,4.3258,4.2266,3.946,4.1075,4.324,4.559,4.5902,4.6728,4.871,4.9297,4.9701,5.0068,5.0178,4.9994,4.9591,4.9187,4.8967,4.8928,4.8928,4.9164,4.9601,4.9054,4.8926,4.9144,4.8705,4.8342,4.834,4.8271,4.8273,4.8317,4.8103,4.7902,4.7902,4.7868,4.7868,4.7902,4.7868,4.7868,4.7868,4.7597,4.7327,4.7259,4.6447,4.5602,4.5602,4.479,4.3978,4.3944,4.3673,4.3633,4.3775,4.3098,4.2286,5.3203,5.3203,5.3203,5.3203,5.3203,5.3203,5.3203,5.3093,5.1793,0.0,0.0,5.1242,5.1242,5.1279,5.194,5.2218,5.227,5.2894,5.3203,5.3203,5.3203,5.3203,5.3203,5.3203,5.3203,5.3203,5.3203,5.3203,5.3203,5.3203,5.3203,5.3203,5.3203,5.3665,5.4656,5.6051,5.6235,5.5097,5.462,5.5354,5.7262,5.6969,5.5794,5.3812,5.3151,5.183,4.9904,4.8967,4.8526,4.8489,4.7755,4.7223,4.6985,4.6214,4.5626,4.5223,4.4452,4.4819,4.6617,4.6177,4.6654,4.86,4.9574,4.8545,4.5039,4.6617,4.8287,4.9627,4.9774,5.0198,5.1132,5.1206,5.1353,5.161,5.1536,5.1463,5.1426,5.1132,5.0949,5.0945,5.0444,5.0118,5.014,4.9189,4.8506,4.898,4.8712,4.8277,4.8809,4.8851,4.8826,4.8866,4.8812,4.8951,4.8984,4.8917,4.9018,4.8883,4.8917,4.9018,4.9018,4.9018,4.9018,4.8815,4.7936,4.7428,4.7496,4.6177,4.5196,4.5602,4.5229,4.5021,4.5534,4.4451,4.3234,5.3203,5.3203,5.3203,5.3203,5.3203,5.3203,5.3203,5.3167,5.2947,5.2858,5.2858,5.2837,5.2837,5.2873,5.3004,5.302,5.302,5.3151,5.3203,5.3203,5.3203,5.3203,5.3203,5.3203,5.3203,5.3203,5.3203,5.3203,5.3203,5.3203,5.3203,5.3203,5.3203,5.3959,5.539,5.6345,5.7042,5.7446,5.5427,5.4546,5.4876,5.2894,5.1683,5.1353,5.1316,5.1022,5.0655,4.9884,4.9427,4.939,4.86,4.904,5.0949,5.0362,5.0508,5.1683,5.1059,5.0472,5.0141,4.9994,5.0105,5.0435,5.1206,5.1096,4.9921,5.0105,5.0398,5.0618,5.0765,5.1242,5.2616,5.2858,5.3371,5.4546,5.4252,5.3885,5.3775,5.2711,5.1903,5.1867,5.1752,5.1627,5.1435,5.088,5.0374,5.0479,4.9418,4.8849,4.8917,4.8978,4.9006,4.9015,4.9018,4.9018,4.9018,4.9018,4.9018,4.9018,4.9018,4.9018,4.9018,4.9018,4.9018,4.9018,4.8612,4.8139,4.7327,4.6752,4.6177,4.5872,4.5602,4.5737,4.6413,4.6143,4.5805,5.3203,5.3203,5.3203,5.3203,5.3203,5.3203,5.3203,5.3203,5.3203,5.3203,5.3203,5.3203,5.3203,5.3203,5.3203,5.3203,5.3203,5.3203,5.3203,5.3203,5.3203,5.3203,5.3203,5.3203,5.3203,5.3203,5.3203,5.3387,5.3775,5.3387,5.3665,5.4473,5.4913,5.5537,5.6235,5.7042,5.7629,5.796,5.6895,5.6345,5.6345,5.528,5.4693,5.4693,5.4693,5.4693,5.4693,5.4363,5.4142,5.4142,5.3371,5.3445,5.4473,5.3849,5.3702,5.4436,5.4142,5.3775,5.3408,5.3408,5.3408,5.3408,5.3739,5.3812,5.3445,5.3004,5.2931,5.3335,5.3408,5.3702,5.4436,5.4509,5.4803,5.55,5.5244,5.506,5.4987,5.4473,5.3775,5.335,5.2945,5.2377,5.1597,5.0925,5.0342,5.0011,4.9316,4.9018,4.9018,4.9018,4.9018,4.9018,4.9018,4.9018,4.9018,4.9018,4.9018,4.9018,4.9018,4.9018,4.9018,4.9018,4.9018,4.8917,4.8443,4.797,4.7733,4.6955,4.638,4.638,4.594,4.6041,4.6583,4.709,4.7124,5.3203,5.3203,5.3203,5.3203,5.3203,5.3203,5.3203,5.3203,5.3203,5.3203,5.3203,5.3203,5.3203,5.3203,5.3203,5.3203,5.3203,5.3408,5.335,5.324,5.3387,5.3408,5.3203,5.3203,5.3203,5.324,5.3371,5.3702,5.4069,5.3849,5.4363,5.5596,5.6418,5.6785,5.6822,5.7593,5.7997,5.7997,5.7997,5.7997,5.7997,5.7997,5.796,5.7997,5.796,5.7997,5.7997,5.7997,5.7997,5.796,5.7409,5.7079,5.7042,5.6492,5.6051,5.5904,5.5868,5.5794,5.5633,5.5633,5.5633,5.5633,5.5757,5.5868,5.5831,5.55,5.528,5.5559,5.5486,5.5596,5.5757,5.5831,5.5941,5.6088,5.6124,5.6161,5.6124,5.6,5.5537,5.4737,5.3849,5.2738,5.1556,5.0554,4.9809,4.926,4.9018,4.9018,4.9018,4.9018,4.9018,4.9018,4.9018,4.9018,4.9018,4.9018,4.9018,4.9018,4.9018,4.9018,4.9018,4.9018,4.9018,4.8917,4.8173,4.7733,4.824,4.7394,4.6583,4.6684,4.6515,4.6549,4.7293,4.7597,4.7733,5.3203,5.3203,5.3203,5.3203,5.3203,5.324,5.3277,5.324,5.3203,5.3203,5.3277,5.3203,5.324,5.3203,5.324,5.3277,5.3335,5.3959,5.3922,5.335,5.3959,5.3922,5.3314,5.324,5.3203,5.3371,5.3995,5.4142,5.3849,5.4876,5.55,5.5684,5.6381,5.6859,5.6932,5.7629,5.7997,5.7997,5.7997,5.7997,5.7997,5.7997,5.7997,5.7997,5.7997,5.7997,5.7997,5.7997,5.7997,5.7997,5.7923,5.7886,5.785,5.7776,5.7446,5.6748,5.6712,5.6381,5.5721,5.5633,5.5647,5.5669,5.6308,5.6712,5.6712,5.7262,5.7005,5.6051,5.5647,5.6014,5.6565,5.6675,5.6932,5.7483,5.7593,5.7776,5.7593,5.7116,5.6381,5.5574,5.4298,5.2955,5.1979,5.0724,4.9722,4.9107,4.9018,4.9018,4.9018,4.9018,4.9018,4.9018,4.9018,4.9018,4.9018,4.9018,4.9018,4.9018,4.9018,4.9018,4.9018,4.9018,4.9018,4.8951,4.8781,4.8274,4.7699,4.7225,4.7394,4.6921,4.7124,4.78,4.8477,4.8342,4.7939,5.3203,5.3203,5.3203,5.3482,5.3922,5.4399,5.462,5.462,5.462,5.462,5.4693,5.5133,5.4803,5.3959,5.4399,5.4363,5.3995,5.473,5.4693,5.4032,5.473,5.4913,5.4656,5.462,5.484,5.5332,5.5684,5.6161,5.6859,5.7886,5.796,5.7189,5.7813,5.7997,5.7593,5.7813,5.7997,5.7997,5.7997,5.7997,5.7997,5.7997,5.7997,5.7997,5.7997,5.7997,5.7997,5.7997,5.7997,5.7997,5.7997,5.7997,5.7997,5.7997,5.785,5.7519,5.7519,5.7373,5.7042,5.7005,5.7005,5.7028,5.7299,5.7519,5.7519,5.7813,5.7666,5.7189,5.7005,5.7189,5.7446,5.7519,5.7666,5.7923,5.7997,5.7997,5.796,5.7703,5.7075,5.586,5.51,5.3821,5.19,5.031,4.9411,4.9046,4.9018,4.9018,4.9018,4.9018,4.9018,4.9018,4.9018,4.9018,4.9018,4.9018,4.9018,4.9018,4.9018,4.9018,4.9018,4.9018,4.9018,4.9018,4.8714,4.8511,4.8308,4.7428,4.7124,4.6955,4.6955,4.7462,4.8176,4.8446,4.8511,5.3885,5.3885,5.4106,5.4656,5.5427,5.6014,5.6235,5.6257,5.6271,5.6257,5.6345,5.7116,5.6822,5.5868,5.6124,5.5904,5.5537,5.6235,5.6161,5.5537,5.6198,5.6492,5.6271,5.6235,5.6565,5.7079,5.7373,5.8157,5.9441,5.9832,5.9575,5.8877,5.9245,5.9245,5.8731,5.8657,5.8657,5.8657,5.8657,5.8657,5.8657,5.8437,5.8217,5.8033,5.7997,5.7997,5.7997,5.7997,5.7997,5.7997,5.7997,5.7997,5.7997,5.7997,5.7997,5.7997,5.7997,5.7997,5.7997,5.7997,5.7997,5.7997,5.7997,5.7997,5.7997,5.7997,5.7997,5.7923,5.7997,5.7923,5.7997,5.7997,5.7997,5.7997,5.7997,5.7997,5.7997,5.7844,5.7218,5.62,5.5312,5.4044,5.1459,4.9824,4.9049,4.9018,4.9018,4.9018,4.9018,4.9018,4.9018,4.9018,4.9018,4.9018,4.9018,4.9018,4.9018,4.9018,4.9018,4.9018,4.9018,4.9018,4.9018,4.8951,4.8477,4.8206,4.824,4.7597,4.7361,4.7394,4.7428,4.7564,4.8277,4.8714,4.8917,5.5464,5.5611,5.6308,5.7042,5.7813,5.785,5.7886,5.7886,5.7886,5.7886,5.7997,5.8744,5.9038,5.8854,5.829,5.7886,5.7886,5.8547,5.8474,5.7813,5.8584,5.8621,5.7923,5.7886,5.7923,5.8217,5.8781,5.9575,6.0346,5.9735,5.9648,6.0272,6.0309,6.0309,6.0162,6.0126,6.0272,6.0126,6.0126,6.0199,6.0162,5.9501,5.8804,5.8217,5.7997,5.7997,5.7997,5.7997,5.7997,5.7997,5.7997,5.7997,5.7997,5.7997,5.7997,5.7997,5.7997,5.7997,5.7997,5.8033,5.807,5.8033,5.8143,5.807,5.8217,5.8143,5.8107,5.8033,5.8033,5.7997,5.7997,5.7997,5.7997,5.7997,5.7997,5.7997,5.7997,5.7498,5.6988,5.637,5.4802,5.2835,5.0521,4.9489,4.9086,4.9018,4.9018,4.9018,4.9018,4.9018,4.9018,4.9018,4.9018,4.9018,4.9018,4.9018,4.9018,4.9018,4.9018,4.9018,4.9018,4.9018,4.9018,4.9018,4.8883,4.8612,4.8274,4.824,4.8443,4.8477,4.8376,4.8578,4.8612,4.8849,4.9018,5.7152,5.7189,5.7997,5.851,5.8841,5.9318,5.9538,5.9538,5.9538,5.9538,5.9685,6.0382,6.075,6.075,6.097,6.0236,5.8927,5.9612,5.9538,5.8914,5.9612,5.9832,5.9575,5.9538,5.9832,6.0309,6.0603,6.1153,6.1851,6.163,6.1374,6.1153,6.119,6.0933,6.0493,6.0419,6.0419,6.0419,6.0419,6.0419,6.0419,6.0126,5.9832,5.9501,5.851,5.7997,5.7997,5.7997,5.7997,5.7997,5.7997,5.7997,5.7997,5.7997,5.7997,5.7997,5.7997,5.7997,5.8033,5.851,5.8767,5.8804,5.9245,5.9501,5.9465,5.9098,5.8767,5.8694,5.8253,5.7997,5.7997,5.7997,5.7997,5.7997,5.7997,5.7997,5.7973,5.775,5.7231,5.5998,5.3783,5.167,5.0905,4.9763,4.9052,4.9018,4.9018,4.9018,4.9018,4.9018,4.9018,4.9018,4.9018,4.9018,4.9018,4.9018,4.9018,4.9018,4.9018,4.9018,4.9018,4.9018,4.9018,4.9018,4.9018,4.8951,4.8578,4.8308,4.8646,4.8545,4.8511,4.8815,4.8917,4.8984,4.9018,5.8914,5.9208,5.9758,6.0162,6.0419,6.0933,6.119,6.119,6.119,6.119,6.13,6.1741,6.1998,6.2071,6.2585,6.1973,6.0505,6.0909,6.0872,6.0456,6.0933,6.119,6.119,6.119,6.1447,6.1887,6.1998,6.2291,6.2768,6.2805,6.2511,6.1998,6.1998,6.1741,6.1263,6.119,6.119,6.119,6.119,6.119,6.1153,6.0933,6.0786,6.0603,5.9465,5.8767,5.8767,5.8547,5.84,5.8364,5.8143,5.7997,5.7997,5.8253,5.8253,5.8033,5.8253,5.8253,5.8107,5.8767,5.9184,5.9258,5.9942,6.0419,6.0346,5.9905,5.9515,5.9148,5.8767,5.8327,5.8033,5.7997,5.7997,5.7997,5.7997,5.7997,5.7997,5.7774,5.6902,5.5426,5.3532,5.2038,5.1148,5.0101,4.939,4.9052,4.9018,4.9018,4.9018,4.9018,4.9018,4.9052,4.9255,4.939,4.956,4.9763,4.9357,4.9255,4.9221,4.9154,4.9187,4.9154,4.912,4.9086,4.9018,4.9018,4.8849,4.8545,4.8376,4.8274,4.8477,4.8815,4.8917,4.8984,4.9018,6.086,6.1447,6.1594,6.1924,6.2413,6.2548,6.2707,6.2622,6.2658,6.2548,6.2511,6.2707,6.2695,6.2768,6.2768,6.2707,6.2523,6.2511,6.2548,6.2475,6.2585,6.2622,6.2585,6.2548,6.2548,6.2695,6.2768,6.2768,6.2805,6.2805,6.2768,6.2743,6.2695,6.2622,6.2732,6.2585,6.2658,6.2622,6.2548,6.2633,6.2695,6.1961,6.1594,6.152,6.0823,6.0419,6.0419,5.9648,5.9184,5.9111,5.8474,5.8033,5.818,5.8731,5.8817,5.8437,5.8804,5.8767,5.8253,5.8841,5.9331,5.9478,6.0052,6.0676,6.0713,6.0456,6.0015,5.9478,5.9074,5.8781,5.8107,5.7997,5.7997,5.7997,5.7997,5.7997,5.7867,5.7327,5.6349,5.4925,5.3691,5.2788,5.1541,5.0608,4.9932,4.9458,4.9289,4.9323,4.939,4.939,4.9154,4.9289,4.9695,5.0101,5.0371,5.0574,4.9999,4.956,4.9492,4.9458,4.9593,4.9627,4.9695,4.9661,4.9424,4.9357,4.9018,4.8748,4.8781,4.8748,4.8883,4.8883,4.8917,4.9018,4.9018,6.2218,6.2438,6.2438,6.2548,6.2805,6.2805,6.2805,6.2805,6.2805,6.2805,6.2805,6.2805,6.2805,6.2805,6.2805,6.2805,6.2805,6.2805,6.2805,6.2805,6.2805,6.2805,6.2805,6.2805,6.2805,6.2805,6.2805,6.2805,6.2805,6.2805,6.2805,6.2805,6.2805,6.2805,6.2805,6.2805,6.2805,6.2805,6.2805,6.2805,6.2805,6.2585,6.2438,6.2401,6.2181,6.2071,6.1998,6.075,6.0052,6.0015,5.9281,5.8841,5.8914,5.9038,5.9355,5.9575,5.9318,5.9148,5.9024,5.9538,6.0052,6.0272,6.1239,6.1936,6.19,6.1043,6.0382,5.9905,5.9098,5.8217,5.807,5.7997,5.8033,5.7997,5.7997,5.795,5.7786,5.6887,5.5724,5.4687,5.345,5.2492,5.2025,5.1352,5.0845,5.0541,5.0439,5.0439,5.0473,5.0371,5.0541,5.0576,5.0845,5.0845,5.1048,5.1251,5.1082,5.0608,5.0371,5.0067,5.0168,5.0202,5.027,5.0202,4.9932,4.9695,4.9289,4.9187,4.9289,4.9187,4.9154,4.912,4.9018,4.9086,4.9187,6.2805,6.2805,6.2805,6.2805,6.2805,6.2805,6.2805,6.2805,6.2805,6.2805,6.2805,6.2805,6.2805,6.2805,6.2805,6.2805,6.2805,6.2805,6.2805,6.2805,6.2805,6.2805,6.2805,6.2805,6.2805,6.2805,6.2805,6.2805,6.2805,6.2805,6.2805,6.2805,6.2805,6.2805,6.2805,6.2805,6.2805,6.2805,6.2805,6.2805,6.2805,6.2805,6.2805,6.2805,6.2805,6.2805,6.2732,6.2108,6.1484,6.0933,6.0346,6.0236,6.0469,6.0579,6.0639,6.0639,6.0382,6.0015,5.9771,6.0419,6.086,6.108,6.2071,6.2743,6.2622,6.1741,6.119,6.0309,5.9538,5.8657,5.818,5.8327,5.8437,5.8437,5.7872,5.7619,5.7406,5.6459,5.5804,5.5237,5.4423,5.3551,5.3078,5.2536,5.1895,5.1725,5.1386,5.1217,5.1217,5.1183,5.1219,5.132,5.1488,5.1522,5.1623,5.1826,5.2097,5.1792,5.1454,5.1082,5.0879,5.0879,5.0879,5.0811,5.0608,5.0541,5.0202,5.0101,5.0101,4.983,4.9661,4.9763,4.983,4.956,4.9526,6.2805,6.2805,6.2805,6.2805,6.2805,6.2805,6.2805,6.2805,6.2805,6.2805,6.2805,6.2805,6.2805,6.2805,6.2805,6.2805,6.2805,6.2805,6.2805,6.2805,6.2805,6.2805,6.2805,6.2805,6.2805,6.2805,6.2805,6.2805,6.2805,6.2805,6.2805,6.2805,6.2805,6.2805,6.2805,6.2805,6.2805,6.2805,6.2805,6.2805,6.2805,6.2805,6.2805,6.2842,6.2915,6.2989,6.3062,6.3539,6.3282,6.1998,6.1777,6.2034,6.2658,6.2879,6.2401,6.1998,6.1814,6.141,6.1006,6.1484,6.1851,6.1961,6.2658,6.2927,6.3135,6.2768,6.201,6.097,6.0419,5.9722,5.8731,5.8723,5.9042,5.8933,5.8065,5.7378,5.6921,5.6252,5.6059,5.6288,5.6065,5.5378,5.4465,5.3822,5.3179,5.2503,5.1894,5.1725,5.1624,5.1726,5.1422,5.1658,5.2164,5.2266,5.2401,5.2536,5.2773,5.2638,5.2367,5.2097,5.1792,5.1758,5.1555,5.1454,5.1352,5.1285,5.1016,5.0811,5.0777,5.0676,5.0642,5.071,5.0541,5.027,5.0286,6.2805,6.2805,6.2805,6.2805,6.2805,6.2805,6.2805,6.2805,6.2805,6.2805,6.2805,6.2805,6.2805,6.2805,6.2805,6.2805,6.2805,6.2805,6.2805,6.2805,6.2805,6.2805,6.2805,6.2805,6.2805,6.2805,6.2805,6.2805,6.2805,6.2805,6.2805,6.2805,6.2805,6.2805,6.2805,6.2805,6.2805,6.2805,6.2805,6.2805,6.2805,6.2805,6.2805,6.2879,6.3392,6.3686,6.3833,6.453,6.453,6.3576,6.3429,6.3503,6.3833,6.3833,6.3906,6.409,6.3686,6.3356,6.3172,6.3246,6.3392,6.3503,6.4016,6.464,6.4604,6.3477,6.2707,6.1961,6.1227,6.0212,5.976,5.9429,5.9066,5.8518,5.8484,5.8109,5.7136,5.6643,5.6426,5.6065,5.589,5.5515,5.4972,5.4465,5.4059,5.3416,5.2976,5.2739,5.2604,5.2638,5.247,5.2807,5.3145,5.3145,5.3213,5.3348,5.3382,5.3315,5.3179,5.3078,5.2909,5.2875,5.2536,5.2232,5.2131,5.2029,5.1522,5.1116,5.1251,5.1555,5.142,5.1352,5.1117,5.0913,5.1253,6.2805,6.2805,6.2805,6.2805,6.2805,6.2805,6.2805,6.2805,6.2805,6.2805,6.2805,6.2805,6.2805,6.2805,6.2805,6.2805,6.2805,6.2805,6.2805,6.2879,6.3209,6.3172,6.2915,6.2805,6.2805,6.2805,6.2842,6.2805,6.2805,6.2805,6.2805,6.2805,6.2805,6.2805,6.2805,6.2805,6.2805,6.2805,6.2805,6.2805,6.2805,6.2805,6.2805,6.2989,6.3649,6.4273,6.5007,6.5558,6.5558,6.5191,6.5118,6.5228,6.5521,6.5264,6.5338,6.5742,6.5044,6.4604,6.4604,6.4604,6.4604,6.464,6.5081,6.5264,6.5081,6.409,6.3282,6.2658,6.1594,6.0677,6.0037,5.976,5.9542,5.9319,5.9472,5.9029,5.7476,5.7016,5.6816,5.6602,5.6596,5.6494,5.5953,5.5446,5.4905,5.4431,5.3754,5.3551,5.3382,5.3518,5.3518,5.3518,5.3518,5.3416,5.3382,5.3484,5.3518,5.3484,5.3484,5.3518,5.3518,5.3518,5.3247,5.2875,5.2807,5.2672,5.2232,5.1995,5.2334,5.2469,5.2165,5.1929,5.1826,5.1691,5.2038,6.2805,6.2805,6.2805,6.2805,6.2805,6.2805,6.2915,6.2952,6.3025,6.3099,6.3209,6.3135,6.3319,6.3074,6.3392,6.3172,6.3172,6.3356,6.3246,6.3466,6.3796,6.3906,6.3404,6.3392,6.3356,6.3319,6.311,6.3184,6.3356,6.3246,6.3172,6.3294,6.3246,6.3147,6.3294,6.3135,6.2964,6.2989,6.2853,6.2842,6.2879,6.2989,6.3099,6.3246,6.4163,6.5228,6.6182,6.6623,6.6549,6.6623,6.6623,6.6843,6.742,6.688,6.6623,6.6549,6.6072,6.5668,6.5595,6.5668,6.5595,6.5668,6.5668,6.5485,6.5375,6.4714,6.3906,6.3172,6.2218,6.1098,5.9944,6.0004,6.011,5.9885,6.0039,5.9351,5.838,5.7397,5.7171,5.7746,5.7848,5.7848,5.734,5.663,5.5546,5.4363,5.3923,5.3653,5.3518,5.3518,5.3518,5.3518,5.3518,5.3518,5.3484,5.3518,5.3518,5.3518,5.3518,5.3518,5.3518,5.3518,5.3518,5.3382,5.3179,5.3179,5.3179,5.3213,5.3281,5.3247,5.2875,5.2739,5.2638,5.2503,5.2663,6.2805,6.2805,6.2805,6.2805,6.2805,6.2842,6.3209,6.3796,6.3833,6.4127,6.4604,6.4751,6.4714,6.4714,6.464,6.4787,6.464,6.464,6.4787,6.4824,6.4897,6.5007,6.4751,6.4751,6.4725,6.4651,6.4751,6.4751,6.4714,6.4541,6.4725,6.4651,6.4505,6.4725,6.4604,6.4053,6.3796,6.3686,6.3209,6.2952,6.3135,6.3576,6.3833,6.398,6.5154,6.6366,6.7173,6.743,6.743,6.743,6.7393,6.7467,6.7577,6.753,6.7383,6.7283,6.7247,6.71,6.7136,6.7026,6.7136,6.7026,6.6916,6.6916,6.6219,6.5521,6.4714,6.387,6.3037,6.1855,6.0447,6.0309,6.0061,5.9536,5.9011,5.8703,5.8634,5.8114,5.7751,5.7814,5.7848,5.7476,5.6461,5.619,5.5242,5.4296,5.3822,5.3551,5.3518,5.3518,5.3518,5.3518,5.3518,5.3518,5.3518,5.3518,5.3518,5.3518,5.3518,5.3518,5.3518,5.3518,5.3518,5.3518,5.3484,5.3518,5.3518,5.3518,5.3416,5.3484,5.3518,5.3281,5.3112,5.3145,5.3275,6.3062,6.3392,6.3429,6.3649,6.3943,6.398,6.4237,6.4604,6.4677,6.4897,6.5264,6.5338,6.5338,6.5338,6.5338,6.5301,6.5338,6.5338,6.5301,6.5375,6.5632,6.5852,6.5999,6.6109,6.6145,6.5521,6.5301,6.5338,6.5338,6.5375,6.5228,6.5338,6.5338,6.5228,6.5301,6.4897,6.4714,6.464,6.4273,6.398,6.409,6.4383,6.4934,6.5191,6.6072,6.688,6.7577,6.765,6.765,6.7687,6.7687,6.7687,6.7687,6.7687,6.7687,6.7687,6.7687,6.7687,6.765,6.7687,6.7614,6.7687,6.7687,6.7467,6.699,6.6329,6.5521,6.4714,6.383,6.2745,6.1156,6.0019,5.9574,5.9211,5.8703,5.8529,5.8493,5.8173,5.7881,5.7881,5.7881,5.734,5.663,5.5919,5.5277,5.4431,5.3788,5.3518,5.3518,5.3518,5.3518,5.3518,5.3518,5.3518,5.3518,5.3518,5.3518,5.3518,5.3518,5.3518,5.3518,5.3518,5.3518,5.3518,5.3518,5.3518,5.3518,5.3518,5.3518,5.3518,5.3518,5.3518,5.3484,5.3348,5.3645,6.3613,6.4273,6.4273,6.4677,6.5264,6.5264,6.5338,6.5485,6.5485,6.5632,6.5705,6.5668,6.5925,6.5742,6.5815,6.5705,6.5742,6.5778,6.5962,6.6035,6.6439,6.6659,6.6806,6.7063,6.6953,6.5742,6.5852,6.5852,6.5852,6.5705,6.5999,6.5778,6.5742,6.5925,6.5778,6.5521,6.5485,6.5485,6.5191,6.5055,6.5165,6.5338,6.5888,6.6769,6.699,6.7357,6.7834,6.7797,6.7687,6.7687,6.7687,6.7687,6.7687,6.7687,6.7687,6.7687,6.7687,6.7687,6.7687,6.7687,6.7687,6.7687,6.7504,6.7357,6.7063,6.6229,6.5307,6.449,6.3464,6.2467,6.13,6.0051,5.9178,5.8909,5.8875,5.8599,5.8101,5.7881,5.7881,5.7848,5.7611,5.707,5.6461,5.5784,5.5175,5.4566,5.3923,5.3518,5.3518,5.3518,5.3518,5.3518,5.3518,5.3518,5.3518,5.3518,5.3518,5.3518,5.3518,5.3518,5.3518,5.3518,5.3518,5.3518,5.3518,5.3518,5.3518,5.3518,5.3518,5.3518,5.3518,5.3518,5.3518,5.3518,5.3848,6.4971,6.5118,6.5118,6.5191,6.5338,6.5338,6.5778,6.6256,6.6292,6.6696,6.7173,6.7247,6.7173,6.721,6.7283,6.7247,6.7063,6.7026,6.71,6.71,6.732,6.7357,6.743,6.7504,6.7467,6.7393,6.7173,6.7063,6.7136,6.7283,6.7026,6.7173,6.7136,6.7136,6.6916,6.6696,6.6292,6.6256,6.5925,6.5705,6.5815,6.6292,6.71,6.8238,6.8348,6.8495,6.8458,6.8091,6.7687,6.7687,6.7687,6.7687,6.7687,6.7687,6.7687,6.7687,6.7687,6.7687,6.7687,6.7687,6.7687,6.754,6.721,6.6512,6.5925,6.5076,6.4237,6.2747,6.1709,6.0661,5.9639,5.9211,5.8772,5.8388,5.8173,5.8101,5.7954,5.7949,5.7983,5.8051,5.7509,5.6799,5.619,5.5581,5.4905,5.4329,5.3788,5.3518,5.3518,5.3518,5.3518,5.3518,5.3518,5.3518,5.3518,5.3518,5.3518,5.3518,5.3518,5.3518,5.3518,5.3518,5.3518,5.3518,5.3518,5.3518,5.3518,5.3518,5.3518,5.3518,5.3518,5.3518,5.3518,5.3518,5.3518,6.5558,6.5888,6.5925,6.6182,6.6512,6.6549,6.6733,6.7063,6.7136,6.732,6.764,6.7687,6.7687,6.7687,6.7687,6.7687,6.7687,6.7687,6.7687,6.7687,6.7687,6.7687,6.7687,6.7687,6.7687,6.765,6.765,6.7687,6.7687,6.765,6.7687,6.765,6.7687,6.7687,6.7614,6.732,6.7136,6.7026,6.71,6.71,6.721,6.7907,6.8825,6.9229,6.9522,6.9522,6.9449,6.9229,6.8715,6.8421,6.8311,6.8091,6.7871,6.7724,6.7687,6.7724,6.7687,6.7687,6.7687,6.7687,6.7687,6.765,6.7247,6.699,6.6333,6.5469,6.3627,6.1878,6.0344,5.9574,5.9211,5.8772,5.8317,5.8029,5.7915,5.7949,5.7983,5.8254,5.8389,5.8389,5.7915,5.7137,5.5953,5.531,5.4634,5.4093,5.3653,5.3619,5.3687,5.3721,5.3822,5.3788,5.3822,5.3822,5.3788,5.3721,5.3687,5.3653,5.3518,5.3518,5.3518,5.3518,5.3518,5.3518,5.3518,5.3518,5.3518,5.3518,5.3518,5.3518,5.3518,5.3518,5.3518,5.3518,5.3518,6.6145,6.6733,6.6733,6.71,6.7614,6.7687,6.765,6.7687,6.765,6.765,6.7687,6.7687,6.7687,6.7687,6.7687,6.7687,6.7687,6.7687,6.7687,6.7687,6.7687,6.7687,6.7687,6.7687,6.7687,6.7687,6.7687,6.7687,6.7687,6.7687,6.7687,6.7687,6.7687,6.7687,6.765,6.7577,6.7724,6.8128,6.8495,6.8935,6.9302,6.9889,7.033,7.033,7.0367,7.033,7.033,7.0036,6.9669,6.9302,6.9082,6.8862,6.8311,6.8164,6.8091,6.7944,6.7797,6.7687,6.7687,6.7687,6.7687,6.765,6.732,6.7173,6.6482,6.4827,6.3089,6.1333,5.9828,5.8875,5.8703,5.8452,5.8228,5.8256,5.8321,5.8423,5.8626,5.8896,5.9167,5.8964,5.8457,5.7712,5.6731,5.5649,5.5074,5.4905,5.4499,5.4465,5.4499,5.4397,5.4397,5.4262,5.4228,5.4262,5.4194,5.4059,5.4025,5.3991,5.3721,5.3518,5.3518,5.3518,5.3518,5.3518,5.3518,5.3518,5.3518,5.3518,5.3518,5.3518,5.3518,5.3518,5.3518,5.3518,5.3518,6.7467,6.754,6.754,6.7614,6.7687,6.7687,6.7687,6.7687,6.7687,6.7687,6.7687,6.7687,6.7687,6.7687,6.7687,6.7687,6.7687,6.7687,6.7687,6.7687,6.7687,6.7687,6.7687,6.7687,6.7687,6.7687,6.7687,6.7687,6.7687,6.7687,6.7687,6.7687,6.7687,6.7687,6.7687,6.7834,6.8091,6.8605,6.8898,6.9339,7.0036,7.077,7.1101,7.1174,7.1174,7.1174,7.1101,7.0697,7.022,7.0036,6.9963,6.9889,6.9816,6.9816,6.9412,6.8788,6.8164,6.7687,6.7687,6.7687,6.7577,6.732,6.6623,6.5815,6.4967,6.33,6.1251,5.9588,5.8667,5.8413,5.8617,5.8668,5.8795,5.9032,5.9235,5.9505,5.9742,5.9708,5.9945,5.9742,5.9302,5.866,5.7848,5.6664,5.5614,5.5478,5.5377,5.5309,5.5208,5.504,5.5006,5.4871,5.4802,5.4837,5.4769,5.4634,5.4566,5.4465,5.4194,5.3788,5.3754,5.3788,5.3551,5.3551,5.3551,5.3518,5.3518,5.3518,5.3518,5.3518,5.3518,5.3518,5.3518,5.3518,5.3518,6.7687,6.7687,6.7687,6.7687,6.7687,6.7687,6.7687,6.7687,6.7687,6.7687,6.7687,6.7687,6.7687,6.7687,6.7687,6.7687,6.7687,6.7687,6.7687,6.7687,6.7687,6.7687,6.7687,6.7687,6.7687,6.7687,6.7687,6.7687,6.7687,6.7687,6.7687,6.7687,6.7687,6.7687,6.776,6.8164,6.8531,6.9082,6.9779,7.066,7.1358,7.1762,7.1982,7.1982,7.1982,7.1945,7.1835,7.1725,7.1211,7.0954,7.077,7.0513,7.022,7.0073,6.9853,6.9669,6.9302,6.8678,6.7871,6.776,6.754,6.7063,6.6303,6.5484,6.4084,6.2654,6.1075,5.9906,5.9447,5.914,5.9066,5.9438,5.9539,5.9776,6.008,6.0148,6.0385,6.0689,6.0723,6.0452,6.008,5.937,5.8558,5.7374,5.6325,5.5953,5.5852,5.575,5.5649,5.548,5.548,5.5547,5.5478,5.5513,5.5446,5.531,5.5277,5.5243,5.5175,5.4769,5.4296,5.4126,5.3991,5.3721,5.3551,5.3518,5.3518,5.3518,5.3518,5.3518,5.3518,5.3518,5.3518,5.3518,5.3518,6.7687,6.7687,6.7687,6.7687,6.7687,6.7687,6.7687,6.7687,6.7687,6.7687,6.7687,6.7687,6.7687,6.7687,6.7687,6.7687,6.7687,6.7687,6.7687,6.7687,6.7687,6.7687,6.7687,6.7687,6.7687,6.7687,6.7687,6.7687,6.7687,6.7687,6.7687,6.7687,6.7687,6.7687,6.7907,6.8421,6.9009,6.9779,7.0917,7.1762,7.2275,7.2422,7.2459,7.2496,7.2496,7.2532,7.2532,7.2459,7.2055,7.1762,7.1615,7.1358,7.0991,7.0954,7.0734,7.0513,7.0293,6.9743,6.8825,6.8238,6.7687,6.721,6.637,6.5432,6.3285,6.2697,6.2005,6.0287,6.0055,5.9987,6.0114,6.0216,6.0385,6.0486,6.0689,6.0622,6.0723,6.1163,6.1264,6.0858,6.0419,5.9911,5.8998,5.7915,5.707,5.6494,5.6258,5.6224,5.619,5.6156,5.6292,5.6461,5.6494,5.6494,5.6427,5.6292,5.6156,5.5953,5.5886,5.5615,5.5074,5.4769,5.4634,5.4262,5.3822,5.3619,5.3653,5.3585,5.3518,5.3518,5.3518,5.3518,5.3518,5.3518,5.3551,6.7687,6.7687,6.7687,6.7687,6.7687,6.7687,6.7687,6.7687,6.7687,6.7687,6.7687,6.7687,6.7687,6.7687,6.7687,6.7687,6.7687,6.7687,6.7687,6.7687,6.7687,6.7687,6.7687,6.7687,6.7687,6.7687,6.7687,6.7687,6.7687,6.7687,6.7687,6.7687,6.7687,6.7687,6.7981,6.8605,6.9816,7.0734,7.1872,7.2239,7.2459,7.2532,7.2532,7.2532,7.2532,7.2532,7.2532,7.2532,7.2459,7.2275,7.2239,7.2239,7.1945,7.1945,7.1688,7.1358,7.1248,7.0734,7.0073,6.9119,6.8715,6.8274,6.7085,6.5258,6.3238,6.2746,6.1841,6.0681,6.0615,6.0423,6.052,6.0689,6.1129,6.1264,6.1434,6.1603,6.167,6.1839,6.1839,6.1298,6.0689,6.0013,5.9302,5.8152,5.7679,5.7103,5.7103,5.7036,5.7205,5.7239,5.7374,5.7509,5.7577,5.7577,5.7543,5.734,5.6867,5.663,5.6528,5.619,5.5716,5.5513,5.5378,5.4905,5.4499,5.4126,5.3788,5.3822,5.3788,5.3585,5.3518,5.3518,5.3584,5.3684,5.3651,6.7687,6.7687,6.7687,6.7687,6.7687,6.7687,6.7687,6.7687,6.7687,6.7687,6.7687,6.7687,6.7687,6.7687,6.7687,6.7687,6.7687,6.7687,6.7687,6.7687,6.7687,6.7687,6.7687,6.7687,6.7687,6.7687,6.7687,6.7687,6.7687,6.7687,6.7687,6.7687,6.7687,6.7687,6.8017,6.8935,7.044,7.1615,7.2312,7.2496,7.2532,7.2532,7.2532,7.2532,7.2532,7.2532,7.2532,7.2532,7.2532,7.2532,7.2532,7.2532,7.2532,7.2532,7.2312,7.1982,7.1945,7.1762,7.1138,6.9889,6.8531,6.7176,6.5889,6.4556,6.3571,6.3026,6.2439,6.1762,6.1473,6.1418,6.1569,6.1772,6.1975,6.2042,6.2178,6.2347,6.2415,6.2415,6.1907,6.1163,6.052,5.9877,5.9133,5.8355,5.8051,5.778,5.7848,5.7881,5.7881,5.7881,5.7881,5.7881,5.7881,5.7881,5.7848,5.7645,5.7442,5.7273,5.7103,5.6799,5.6427,5.6393,5.619,5.5683,5.5209,5.4871,5.4566,5.4296,5.4025,5.3687,5.3551,5.3518,5.3651,5.3881,5.4009,6.7687,6.7687,6.7687,6.7687,6.7687,6.7687,6.7687,6.7687,6.7687,6.7687,6.7687,6.7687,6.7687,6.7687,6.7687,6.7687,6.7687,6.7687,6.7687,6.7687,6.7687,6.7687,6.7687,6.7687,6.7687,6.7687,6.7687,6.7687,6.7687,6.7687,6.7687,6.7687,6.7687,6.7687,6.8054,6.9265,7.0881,7.2129,7.2532,7.2532,7.2532,7.2532,7.2532,7.2532,7.2532,7.2532,7.2532,7.2532,7.2532,7.2532,7.2532,7.2532,7.2532,7.2496,7.2386,7.2312,7.2349,7.2422,7.1688,7.0477,6.8531,6.7266,6.6263,6.5335,6.4549,6.3966,6.3821,6.2849,6.2778,6.2697,6.2537,6.2313,6.2279,6.2245,6.2279,6.2415,6.2415,6.2347,6.167,6.096,6.0351,5.9776,5.8829,5.8152,5.8051,5.7881,5.7881,5.7881,5.7881,5.7881,5.7881,5.7881,5.7881,5.7881,5.7848,5.7746,5.7645,5.7645,5.7509,5.7476,5.7239,5.7137,5.6867,5.6292,5.5886,5.5649,5.5344,5.5006,5.4329,5.3653,5.3619,5.3686,5.4011,5.4264,5.4637,6.7687,6.7687,6.7687,6.7687,6.7687,6.7687,6.7687,6.7687,6.7687,6.7687,6.7687,6.7687,6.7687,6.7687,6.7687,6.7687,6.7687,6.7687,6.7687,6.7687,6.7687,6.7687,6.7687,6.7687,6.7687,6.7687,6.7687,6.7687,6.7687,6.7687,6.7687,6.7687,6.7687,6.7834,6.7898,6.9302,7.0917,7.2275,7.2496,7.2532,7.2532,7.2532,7.2532,7.2532,7.2532,7.2532,7.2532,7.2532,7.2532,7.2532,7.2532,7.2459,7.2312,7.2459,7.2202,7.1578,7.2092,7.2018,7.1284,7.044,6.9119,6.7734,6.6738,6.6401,6.6211,6.5832,6.4858,6.3224,6.3279,6.3011,6.2736,6.2415,6.2415,6.2415,6.2415,6.2415,6.2415,6.2381,6.1704,6.0825,6.025,5.9641,5.8626,5.7915,5.7915,5.7881,5.7881,5.7881,5.7881,5.7881,5.7881,5.7881,5.7881,5.7881,5.7881,5.7881,5.7848,5.7881,5.7848,5.7746,5.7712,5.7611,5.7273,5.6833,5.6664,5.6461,5.6089,5.5647,5.511,5.4533,5.399,5.3987,5.4367,5.4787,5.5297,6.7687,6.7687,6.7687,6.7687,6.7687,6.7687,6.7687,6.7687,6.7687,6.7687,6.7687,6.7687,6.7687,6.7687,6.7687,6.7687,6.7687,6.7687,6.7687,6.7687,6.7687,6.7687,6.7687,6.7687,6.7687,6.7687,6.7687,6.7687,6.7687,6.7687,6.7687,6.7687,6.8091,6.8311,6.9265,7.044,7.1505,7.2312,7.2532,7.2532,7.2532,7.2532,7.2532,7.2532,7.2532,7.2532,7.2532,7.2532,7.2532,7.2496,7.2459,7.2239,7.2018,7.2055,7.2018,7.1403,7.1651,7.1027,7.0146,6.9302,6.8825,6.7909,6.7174,6.6517,6.5649,6.4868,6.3971,6.3277,6.3124,6.2779,6.2459,6.2415,6.2415,6.2415,6.2415,6.2415,6.2381,6.2347,6.1941,6.0825,6.0013,5.9268,5.8355,5.7915,5.7881,5.7881,5.7881,5.7881,5.7881,5.7881,5.7881,5.7881,5.7881,5.7881,5.7881,5.7881,5.7881,5.7881,5.7881,5.7848,5.7848,5.7881,5.7746,5.7374,5.734,5.7306,5.6765,5.6295,5.6065,5.5619,5.5275,5.4849,5.4969,5.5636,5.6322,6.7687,6.7687,6.7687,6.7687,6.7687,6.7687,6.7687,6.7687,6.7687,6.7687,6.7687,6.7687,6.7687,6.7687,6.7687,6.7687,6.7687,6.7687,6.7687,6.7687,6.7687,6.7687,6.7687,6.7687,6.7687,6.7687,6.7687,6.7687,6.7687,6.7687,6.7871,6.8274,6.8898,6.9816,7.055,7.0881,7.1358,7.2129,7.2532,7.2532,7.2532,7.2532,7.2532,7.2532,7.2532,7.2532,7.2532,7.2532,7.2496,7.2459,7.2202,7.1872,7.1615,7.1394,7.1321,7.0734,7.0367,6.9889,6.9229,6.9009,6.8568,6.7797,6.6881,6.6186,6.5458,6.4935,6.4007,6.3314,6.2817,6.2581,6.2459,6.2459,6.2415,6.2415,6.2415,6.2415,6.2313,6.2279,6.1637,6.0554,5.9641,5.8863,5.822,5.8051,5.7881,5.7881,5.7881,5.7881,5.7881,5.7881,5.7881,5.7881,5.7881,5.7881,5.7881,5.7881,5.7881,5.7881,5.7881,5.7881,5.7881,5.7881,5.7881,5.7918,5.7749,5.7616,5.7273,5.6977,5.6884,5.6947,5.6928,5.6446,5.5923,5.6459,5.7361,6.7687,6.7687,6.7687,6.7687,6.7687,6.7687,6.7687,6.7687,6.7687,6.7687,6.7687,6.7687,6.7687,6.7687,6.7687,6.7687,6.7687,6.7687,6.7687,6.7687,6.7687,6.7687,6.7687,6.7687,6.7797,6.7797,6.7871,6.8091,6.7834,6.8164,6.8495,6.9265,7.0513,7.1101,7.1101,7.0991,7.1468,7.2349,7.2569,7.2642,7.2753,7.2569,7.2532,7.2532,7.2532,7.2532,7.2532,7.2532,7.2459,7.2202,7.1733,7.1394,7.0991,7.0513,6.9743,6.9229,6.9082,6.8972,6.8724,6.8651,6.8229,6.7395,6.6553,6.6307,6.5873,6.5001,6.4042,6.3462,6.3049,6.2779,6.2581,6.2498,6.2415,6.2415,6.2415,6.2347,6.2245,6.1839,6.1129,6.025,5.937,5.866,5.8118,5.7881,5.7881,5.7881,5.7881,5.7881,5.7881,5.7881,5.7881,5.7881,5.7881,5.7881,5.7881,5.7881,5.7881,5.7881,5.7881,5.7881,5.7881,5.7881,5.7881,5.7918,5.7991,5.8001,5.8221,5.8152,5.7979,5.8114,5.8628,5.7942,5.7339,5.7783,5.8453,6.7687,6.7687,6.7687,6.7687,6.7687,6.7687,6.7687,6.7687,6.7687,6.7687,6.7687,6.7687,6.7687,6.7687,6.7687,6.7687,6.7687,6.7687,6.7687,6.7687,6.776,6.7724,6.7724,6.7834,6.8091,6.8385,6.8605,6.8788,6.9265,6.9339,6.9816,7.077,7.1138,7.1468,7.1651,7.1358,7.2202,7.2716,7.2789,7.2899,7.2973,7.2826,7.2753,7.2716,7.2642,7.2679,7.2716,7.2679,7.2496,7.1725,7.1476,7.0962,6.9559,6.9853,6.9779,6.9045,6.8862,6.8688,6.8083,6.751,6.7135,6.6779,6.5621,6.5101,6.4902,6.4632,6.3791,6.3388,6.3011,6.2659,6.2498,6.2459,6.2415,6.2415,6.2415,6.2381,6.2178,6.1569,6.0791,5.9776,5.893,5.8423,5.7915,5.7881,5.7881,5.7881,5.7881,5.7881,5.7881,5.7881,5.7881,5.7881,5.7881,5.7881,5.7881,5.7881,5.7881,5.7881,5.7881,5.7881,5.7881,5.7881,5.7881,5.8029,5.8281,5.8943,5.9669,5.9437,5.9004,6.0035,6.0518,5.9609,5.8951,5.9292,5.9454,6.7687,6.7687,6.7687,6.7687,6.7687,6.7687,6.7687,6.7687,6.7687,6.7687,6.7687,6.7687,6.7687,6.7687,6.7687,6.7687,6.7687,6.7687,6.7687,6.7787,6.8054,6.8201,6.8238,6.8495,6.8972,6.9265,6.9412,6.9559,7.0183,7.0844,7.1321,7.1174,7.1138,7.1835,7.2239,7.2386,7.2789,7.3193,7.334,7.334,7.3303,7.3266,7.323,7.3266,7.3193,7.3083,7.334,7.3303,7.2789,7.1872,7.1615,7.055,6.9192,6.9119,6.9045,6.8385,6.8348,6.8164,6.778,6.7359,6.7032,6.6553,6.5561,6.5133,6.4427,6.4007,6.3501,6.3087,6.2736,6.2415,6.2415,6.2415,6.2415,6.2415,6.2415,6.2415,6.1907,6.1332,6.0385,5.9302,5.8626,5.8118,5.7881,5.7881,5.7881,5.7881,5.7881,5.7881,5.7881,5.7881,5.7881,5.7881,5.7881,5.7881,5.7881,5.7881,5.7881,5.7881,5.7881,5.7881,5.7881,5.7993,5.8101,5.8423,5.8772,5.9509,6.0304,6.0304,6.0207,6.1113,6.1604,6.0888,6.0295,6.0451,6.048,6.7687,6.7687,6.7687,6.7687,6.7687,6.7687,6.7687,6.7687,6.7687,6.7687,6.7687,6.7687,6.7687,6.7687,6.7687,6.7797,6.7907,6.7981,6.8164,6.7971,6.8678,6.8972,6.9229,6.9669,6.9816,7.0073,7.0257,7.0403,7.077,7.1394,7.1835,7.1541,7.2532,7.2936,7.2532,7.312,7.3413,7.3523,7.378,7.3891,7.3817,7.3854,7.4037,7.4478,7.4221,7.3854,7.4404,7.4404,7.4001,7.2679,7.1615,7.0513,6.9486,6.8678,6.8311,6.8238,6.8421,6.8385,6.8257,6.7935,6.7797,6.749,6.6888,6.6082,6.5196,6.4173,6.3692,6.3414,6.3124,6.3165,6.3193,6.3193,6.3159,6.3159,6.3193,6.3024,6.2584,6.1704,6.0452,5.9539,5.9066,5.8592,5.8254,5.8287,5.8118,5.8017,5.7881,5.7881,5.8171,5.8171,5.8099,5.8063,5.7954,5.7954,5.7881,5.7881,5.7881,5.7881,5.7954,5.7881,5.7881,5.8101,5.8352,5.8943,5.9639,6.0082,6.064,6.0879,6.1113,6.1257,6.1659,6.1742,6.166,6.1562,6.1531,6.7687,6.7687,6.7687,6.7687,6.7687,6.7687,6.7687,6.7687,6.7687,6.7687,6.7687,6.7687,6.7687,6.7687,6.7714,6.7907,6.8458,6.8605,6.9009,6.9339,6.9816,7.0073,6.9889,7.033,7.0587,7.0881,7.1101,7.1284,7.1725,7.2239,7.2459,7.2239,7.2863,7.2716,7.2716,7.3413,7.3817,7.3891,7.4368,7.4515,7.4441,7.4074,7.4037,7.4368,7.4258,7.3854,7.4001,7.3487,7.2716,7.1688,7.1468,7.077,6.9889,6.9596,6.9522,6.9522,6.9339,6.9265,6.9155,6.882,6.8524,6.7961,6.7361,6.6835,6.604,6.4901,6.4202,6.3952,6.377,6.3882,6.3937,6.3937,6.3937,6.3937,6.3869,6.3531,6.3193,6.1907,6.0554,6.0013,5.9573,5.9235,5.8863,5.8626,5.8389,5.8186,5.7949,5.8063,5.8702,5.8875,5.8632,5.8492,5.8065,5.7993,5.8065,5.8246,5.8458,5.821,5.8174,5.8065,5.7954,5.8494,5.9112,5.9928,6.061,6.0997,6.1456,6.2103,6.2271,6.1996,6.1969,6.2156,6.2324,6.2277,6.2327,6.7687,6.7687,6.7687,6.7687,6.7687,6.7687,6.7687,6.7687,6.7687,6.7687,6.7687,6.7687,6.7687,6.7687,6.7714,6.8201,6.8935,6.9302,6.9889,7.044,7.1101,7.1505,7.1431,7.1284,7.1835,7.2165,7.1945,7.2092,7.2459,7.2496,7.2496,7.2532,7.2532,7.2679,7.2973,7.3744,7.4147,7.4294,7.4955,7.5102,7.4845,7.4294,7.4147,7.4404,7.4258,7.3927,7.4111,7.367,7.2973,7.1908,7.1211,7.066,7.011,6.9963,7.0036,7.0036,7.0,7.011,6.9969,6.9777,6.9261,6.8638,6.8145,6.7766,6.6565,6.5558,6.5773,6.55,6.4427,6.4349,6.4343,6.4309,6.4309,6.4343,6.3802,6.3294,6.2618,6.1569,6.0655,6.008,5.981,5.9776,5.9505,5.9471,5.934,5.9454,5.9081,5.9143,5.9632,6.0126,5.9727,5.9454,5.9286,5.908,5.9279,5.9346,5.9313,5.9011,5.8599,5.8317,5.8317,5.9179,5.9928,6.0489,6.1084,6.1715,6.2271,6.2705,6.2805,6.249,6.2541,6.273,6.2805,6.2805,6.2732,6.7687,6.7687,6.7687,6.7687,6.7687,6.7687,6.7687,6.7687,6.7687,6.7687,6.7724,6.7834,6.7834,6.7834,6.7871,6.8495,6.9265,7.0293,7.0954,7.1725,7.2496,7.2936,7.3083,7.3046,7.2973,7.2789,7.2569,7.2459,7.2496,7.2532,7.2532,7.2532,7.2642,7.2826,7.3597,7.4221,7.4515,7.4551,7.4882,7.5102,7.4735,7.4221,7.4441,7.4441,7.4258,7.4147,7.4515,7.4368,7.367,7.2789,7.1431,7.1027,7.077,7.077,7.0697,7.0734,7.077,7.0734,7.0596,7.0677,7.0091,6.9558,6.9162,6.8463,6.734,6.7048,6.7263,6.6748,6.5686,6.5209,6.5209,6.5,6.5,6.5017,6.437,6.3379,6.2459,6.1608,6.1032,6.0457,6.0457,6.0457,6.0287,6.0287,6.037,6.052,6.0688,6.0878,6.1144,6.1648,6.1752,6.1559,6.1437,6.1193,6.0503,6.0211,6.0023,5.9832,5.9377,5.8875,5.8772,5.9864,6.0519,6.073,6.135,6.2103,6.249,6.2755,6.2805,6.2805,6.2805,6.2805,6.2805,6.2805,6.2805,6.7687,6.7687,6.7687,6.7687,6.7687,6.7687,6.7687,6.7687,6.7687,6.7687,6.7907,6.8421,6.8678,6.8678,6.8678,6.9302,7.0513,7.1468,7.2422,7.3266,7.3927,7.4404,7.4404,7.3927,7.323,7.2863,7.2642,7.2569,7.2532,7.2532,7.2532,7.2532,7.2532,7.2642,7.2826,7.3487,7.4111,7.4294,7.4294,7.4368,7.4404,7.4258,7.4735,7.4588,7.4147,7.3927,7.378,7.3266,7.2863,7.2459,7.2202,7.1908,7.1798,7.1725,7.1725,7.1651,7.1688,7.1688,7.1651,7.1651,7.1224,7.1053,7.0646,7.0109,6.9278,6.8858,6.8858,6.8533,6.7721,6.7411,6.7217,6.6581,6.6391,6.672,6.6438,6.4706,6.3349,6.2654,6.2033,6.1864,6.1864,6.1626,6.1219,6.1268,6.1289,6.1481,6.1813,6.2048,6.2875,6.3323,6.3697,6.3498,6.333,6.2055,6.0878,6.0736,6.058,6.0427,6.0304,5.996,6.0055,6.076,6.1229,6.12,6.1778,6.2541,6.278,6.2805,6.2805,6.2805,6.2805,6.2805,6.2805,6.2805,6.2805]}]]